GFSSE_prec_cthk_000.txt.gz
RH
36 31 30 31 33 37 35 35 33 29 26 21 19 15 16 25 24 24 25 26 26 21 21 24 31 30 29 29 30 29 29 23 20 19 15 15 15 12 14 19 12 18 18
34 32 32 35 33 35 37 37 35 29 26 20 15 13 18 22 24 25 24 25 21 21 18 23 27 27 30 30 29 29 25 19 19 16 16 15 14 18 17 18 14 19 20
37 35 35 37 36 38 41 40 35 28 24 19 14 17 18 19 21 21 20 20 21 20 18 15 22 22 22 21 24 29 24 19 18 16 14 17 20 20 20 18 17 19 22
39 39 37 39 38 41 46 37 31 24 22 18 15 20 23 24 26 26 23 20 19 19 17 16 15 14 16 19 21 23 22 22 19 18 15 19 22 23 22 21 18 19 23
42 45 44 39 40 42 40 39 35 32 24 19 15 18 26 27 28 30 30 24 21 20 19 17 17 15 13 16 17 19 18 21 21 18 18 21 19 23 23 22 19 17 21
42 45 42 39 43 42 40 40 39 34 34 28 18 20 24 26 27 29 30 30 23 21 19 17 16 16 16 15 15 13 12 13 13 14 17 21 20 17 21 22 20 17 16
47 46 41 36 41 41 41 42 41 40 38 36 29 29 24 26 26 28 28 29 22 17 16 14 12 12 14 16 16 15 11 9 9 10 10 14 17 17 14 14 14 15 15
47 44 40 38 39 41 40 42 42 43 42 40 34 32 33 32 33 32 36 29 21 15 13 12 13 13 13 14 15 16 15 15 14 13 13 13 14 15 14 13 13 13 14
48 45 42 42 42 39 38 38 41 42 42 41 36 32 31 34 37 39 34 27 21 20 19 18 17 18 18 19 19 20 19 19 19 20 18 17 16 16 15 14 14 15 15
49 46 47 46 44 39 38 37 38 38 36 34 31 29 28 30 32 31 31 29 28 27 26 26 26 25 23 23 24 24 24 25 24 23 23 23 23 22 21 18 16 15 15
47 49 51 50 49 44 40 41 39 32 30 29 27 25 23 26 29 29 29 28 28 28 28 28 28 28 28 28 28 29 28 27 26 26 24 24 23 22 21 21 20 19 16
49 49 50 51 50 47 44 42 38 33 31 30 29 29 27 28 28 29 28 30 30 30 30 31 31 31 32 32 32 32 32 32 31 30 30 30 29 30 29 28 26 25 24
52 53 52 52 52 48 45 42 42 39 34 33 34 34 33 31 31 31 32 32 31 32 33 33 35 35 36 36 37 36 36 34 34 34 35 34 34 36 36 36 36 37 35
54 52 52 51 51 50 47 43 44 42 38 37 37 37 36 36 37 37 38 38 38 38 40 41 43 44 44 43 42 41 40 41 41 41 40 41 40 41 41 42 41 41 41
51 50 50 51 50 48 48 46 45 45 44 40 39 42 40 40 40 40 43 46 51 49 49 48 46 45 45 43 42 39 37 37 40 41 42 40 39 38 38 38 38 37 37
50 48 48 49 50 47 46 45 45 46 47 44 41 43 43 43 43 44 48 50 49 49 49 47 45 39 34 32 31 32 34 35 36 37 38 36 35 35 34 33 31 29 30
46 44 44 47 48 46 45 46 47 46 47 45 45 47 46 46 44 47 49 49 45 45 42 38 33 31 30 31 33 35 39 38 34 31 30 27 30 33 35 35 34 38 37
38 37 40 41 42 42 42 46 47 47 47 48 46 46 47 47 46 46 43 38 36 36 34 33 33 33 33 33 32 31 28 26 24 24 26 31 35 39 42 42 45 39 38
35 33 37 37 36 40 44 47 48 50 47 42 45 49 48 46 43 37 33 33 34 33 34 34 34 33 29 25 25 22 21 22 20 24 26 27 30 35 34 33 40 34 33
34 34 36 37 40 41 43 44 45 45 43 44 47 47 43 39 36 34 33 31 33 35 35 32 27 23 19 20 17 18 16 18 18 21 24 25 27 29 30 29 27 25 27
37 36 37 37 37 37 38 39 41 40 43 46 43 39 36 36 34 31 31 34 36 33 27 23 18 17 17 17 18 15 15 16 17 18 17 16 15 15 18 21 24 24 24
37 38 38 37 36 37 36 37 40 40 40 39 35 35 34 33 34 35 35 34 27 23 20 18 17 17 16 16 18 17 18 16 17 15 19 15 17 18 15 11 12 13 14
36 36 36 35 35 36 35 34 37 38 36 34 36 38 38 37 35 33 31 26 21 18 17 17 17 17 16 17 17 19 20 21 17 16 13 15 11 12 10 10 11 13 13
36 35 33 34 34 32 29 31 33 35 38 40 40 38 37 34 33 31 25 23 21 19 18 18 17 17 17 17 18 17 16 17 18 18 16 14 13 13 13 16 14 19 18
36 35 34 33 32 32 34 36 38 40 42 41 39 37 35 33 29 26 26 25 24 21 19 19 18 18 18 18 19 17 17 17 15 16 17 16 15 15 16 17 18 12 12
37 36 34 35 36 37 38 40 42 41 41 40 40 39 36 30 28 30 30 29 25 22 21 20 20 20 19 18 18 18 18 18 17 18 18 16 18 16 18 15 16 13 19

GFSSE_prec_cthk_003.txt.gz
RH
35 31 30 32 33 37 39 36 35 32 26 22 17 14 17 23 24 26 24 24 19 18 17 19 28 30 30 29 31 30 28 23 20 18 16 14 16 14 15 20 14 16 15
35 32 32 35 36 38 42 40 38 32 25 21 14 12 18 22 25 23 23 23 21 19 15 18 21 25 27 29 29 29 29 22 20 17 13 14 15 17 18 16 15 18 21
37 34 35 37 38 38 41 41 37 28 22 18 15 16 16 19 20 21 21 20 20 18 16 14 17 19 21 21 21 21 21 21 20 16 12 14 18 18 20 20 18 18 21
37 35 38 42 41 39 39 39 35 32 28 20 16 19 21 22 25 26 28 23 20 18 17 16 15 14 14 16 17 18 20 21 18 17 13 14 17 18 22 20 19 18 20
36 38 40 42 42 41 42 40 38 36 34 32 23 20 23 24 26 28 30 28 21 19 17 15 15 15 14 14 14 14 15 14 13 15 14 15 16 17 18 19 17 17 18
36 38 41 45 41 42 43 39 38 38 38 34 31 31 27 25 26 27 28 28 22 20 14 13 13 13 13 12 13 13 11 10 8 8 9 13 14 16 15 14 13 16 16
38 42 47 44 41 42 42 40 40 38 39 37 33 34 33 32 35 32 29 29 21 17 12 12 11 11 11 12 12 12 12 12 11 10 10 11 12 13 13 15 13 12 13
41 44 47 43 42 43 42 40 40 41 41 40 33 32 33 34 38 41 41 37 27 19 18 17 17 17 16 16 17 17 18 18 19 19 19 17 16 16 16 16 14 13 14
40 48 47 45 44 45 41 38 40 42 39 35 30 27 26 29 34 36 37 33 28 26 26 26 25 25 25 23 23 24 25 25 25 25 25 25 25 24 22 23 22 18 16
40 48 48 46 46 45 42 39 38 37 33 31 28 24 22 23 26 26 27 28 29 30 31 31 30 30 30 30 30 29 29 29 29 27 27 29 29 28 27 26 27 24 21
39 43 48 48 48 44 44 42 39 36 33 30 25 26 24 24 24 23 23 26 28 30 31 33 33 34 34 33 34 35 35 34 33 33 33 33 32 32 31 31 30 29 27
43 41 46 50 50 48 47 46 40 35 37 33 29 28 29 28 28 28 28 29 30 31 31 31 32 33 34 36 37 38 37 36 36 35 34 34 33 34 35 35 36 36 37
46 47 48 50 50 49 49 46 42 38 39 37 36 32 33 33 35 35 35 35 35 36 36 38 38 37 36 36 38 39 39 37 35 35 36 35 36 37 39 39 41 39 40
46 51 51 51 51 50 50 47 44 42 41 42 40 36 36 36 37 38 38 39 40 44 44 44 44 44 44 42 37 34 31 31 30 34 35 35 37 38 39 39 41 41 39
42 49 54 54 52 49 50 50 46 45 45 44 43 41 41 40 42 44 45 43 43 43 44 44 42 39 32 29 28 27 28 31 33 34 35 35 35 35 35 38 40 38 39
42 51 55 53 50 48 47 50 48 45 45 44 45 45 44 43 45 49 48 46 46 43 40 38 36 31 29 28 28 29 30 32 32 32 28 26 26 28 31 33 36 40 46
44 50 53 50 46 44 47 48 46 46 46 45 46 46 45 43 47 49 47 46 42 37 33 30 29 30 31 31 30 28 24 22 21 21 20 22 26 28 30 32 36 37 43
42 47 49 45 42 43 46 46 45 46 46 46 47 47 42 46 48 49 44 37 32 30 28 29 31 32 28 23 18 15 14 15 16 18 22 25 27 29 31 34 35 34 31
34 37 41 40 41 44 43 42 44 45 45 44 45 44 45 48 45 38 36 35 32 29 30 30 28 22 19 17 15 15 15 15 18 16 18 21 24 25 26 27 28 29 29
28 31 35 38 40 41 41 43 44 43 45 45 44 44 42 39 38 37 35 32 32 31 29 25 19 18 18 17 16 15 14 14 13 16 17 15 17 17 17 19 20 18 16
29 32 38 38 40 42 41 41 42 44 46 46 43 40 39 38 36 35 35 33 29 24 20 18 18 17 16 16 15 14 13 12 14 12 12 11 11 11 11 12 11 10 10
34 35 38 41 40 41 40 41 42 40 38 36 37 35 36 38 38 35 31 28 24 21 20 19 17 16 16 16 16 15 15 14 16 14 16 14 14 14 12 11 11 12 12
37 39 40 41 41 39 38 37 36 31 30 32 37 40 41 38 34 31 29 26 24 22 19 18 18 17 16 16 17 19 20 20 17 17 14 16 13 15 12 13 13 13 14
38 42 44 43 40 37 36 33 32 33 36 39 42 41 38 36 34 30 27 27 27 23 21 20 19 19 19 19 18 17 19 20 20 21 17 14 15 13 13 14 13 14 14
35 40 40 37 35 34 34 37 39 40 41 42 40 38 37 37 33 30 31 29 27 23 23 22 22 22 21 19 18 19 20 19 18 19 19 16 16 16 14 15 14 12 12
35 39 39 36 36 38 41 42 43 44 42 39 37 36 35 34 36 35 33 31 27 25 25 25 24 23 21 19 20 20 21 20 19 19 17 16 18 18 16 15 14 15 16

GFSSE_prec_cthk_006.txt.gz
RH
36 31 30 32 36 42 38 36 29 26 23 19 15 13 18 20 24 26 27 26 20 17 12 19 25 29 30 31 30 31 30 26 22 19 17 15 14 16 16 23 20 15 16
36 32 32 34 37 37 39 38 34 31 23 19 15 12 17 23 24 25 23 23 20 17 13 15 19 21 23 25 29 28 24 21 19 18 13 14 14 15 17 24 20 21 23
36 35 34 36 37 38 38 36 36 34 29 22 15 18 16 17 21 23 20 20 17 14 13 13 15 17 20 21 21 21 21 21 20 17 14 14 15 16 19 21 19 18 20
33 33 35 39 42 40 38 38 37 34 31 31 28 25 20 18 23 24 26 21 17 15 14 14 15 15 15 17 18 19 18 19 18 17 16 13 14 17 18 24 21 18 18
34 34 36 42 44 42 39 38 37 35 35 32 30 33 31 31 28 27 28 26 18 18 14 14 14 15 15 15 15 15 14 15 13 12 12 13 13 16 19 22 22 20 17
35 37 39 43 44 44 40 41 39 36 34 32 30 33 33 39 37 34 29 23 19 20 15 14 14 14 15 16 16 16 15 13 12 12 11 10 12 15 20 22 21 17 17
36 39 43 46 47 46 42 41 41 38 36 32 30 31 32 35 42 42 39 35 24 19 14 14 15 15 15 15 14 16 17 18 19 19 20 18 16 17 18 23 23 22 19
38 42 46 47 48 46 43 42 41 39 40 37 29 28 28 30 36 40 42 38 32 27 24 23 23 23 22 22 22 23 24 25 26 26 26 26 26 24 24 26 30 28 26
41 41 45 45 46 46 43 43 43 43 40 36 28 25 23 24 27 31 33 33 31 32 32 32 32 32 32 32 32 32 32 31 30 30 30 30 29 29 29 29 31 32 33
45 42 42 46 47 45 43 44 45 41 37 34 30 25 24 24 25 24 23 24 26 29 31 33 34 36 36 36 36 36 36 35 35 36 36 37 37 38 37 36 35 37 37
46 43 38 47 48 46 45 45 46 41 36 35 31 27 24 26 27 26 26 27 28 29 28 29 29 30 32 34 36 38 38 38 38 37 38 38 38 38 36 35 38 37 37
42 41 41 43 49 48 48 47 47 43 38 36 34 31 30 29 31 32 33 35 34 34 34 36 37 37 37 36 34 34 32 32 30 31 31 33 33 33 36 39 39 41 42
37 40 45 46 49 50 48 48 46 45 41 38 39 35 33 33 34 36 38 40 39 39 41 41 40 40 40 38 34 31 29 28 28 28 29 31 32 32 37 39 45 45 45
39 39 44 52 52 54 52 48 47 47 44 40 40 38 36 36 38 41 40 43 44 43 43 43 43 42 40 34 31 31 30 29 30 32 33 34 32 34 36 40 37 39 43
36 40 41 51 55 56 55 51 48 47 45 43 44 42 40 39 42 43 45 45 46 46 44 42 41 38 33 29 29 30 31 31 31 31 30 29 25 25 26 27 30 31 32
32 36 40 49 56 58 56 53 49 48 47 47 45 44 44 44 45 44 43 48 47 44 43 40 32 28 27 29 31 30 26 22 21 20 21 20 20 24 28 30 30 31 31
28 32 39 49 55 58 55 53 50 50 49 47 45 47 45 45 45 44 50 51 48 41 34 31 30 30 29 26 21 16 15 15 16 16 18 22 25 26 27 29 29 31 31
23 29 38 47 53 56 53 51 51 49 49 48 48 46 44 44 47 52 53 43 36 34 33 33 30 26 20 16 15 16 17 17 18 20 20 22 24 23 24 25 27 26 26
23 27 35 46 50 51 50 51 49 48 48 48 47 47 48 51 51 46 39 37 35 34 32 28 21 16 15 17 19 18 17 18 18 16 17 18 17 16 18 20 20 20 21
28 28 34 40 44 45 48 48 48 47 47 48 49 49 50 46 40 38 37 37 37 32 25 20 16 16 16 18 18 16 15 16 13 17 12 12 11 12 13 12 12 12 12
31 28 28 34 39 43 47 46 45 46 48 49 49 41 37 38 36 39 40 37 31 24 18 16 16 16 18 17 16 15 14 13 15 16 14 14 13 13 13 12 12 12 12
33 31 29 35 40 46 45 46 48 48 48 45 37 34 34 39 40 39 37 32 27 22 18 17 20 20 19 18 17 16 16 16 17 16 17 16 17 16 15 14 13 13 12
33 36 38 40 42 45 47 47 48 46 40 37 34 38 41 40 39 37 33 28 23 22 22 23 21 20 20 20 18 18 20 21 19 19 17 18 17 16 15 14 12 12 12
37 39 41 42 46 47 44 44 42 37 35 40 42 43 42 40 37 34 30 27 26 26 24 24 23 22 21 21 20 19 19 20 21 20 18 16 17 15 13 12 12 11 10
40 41 42 44 45 43 40 39 36 38 41 44 46 46 41 36 34 32 30 31 31 28 26 25 24 24 23 21 20 20 20 21 21 21 19 17 14 11 10 10 10 9 9
43 44 44 43 43 40 37 37 40 43 46 48 47 42 38 37 35 34 38 36 33 28 26 26 25 23 22 22 22 22 22 21 20 18 17 15 15 13 14 12 10 10 13

GFSSE_prec_cthk_009.txt.gz
RH
38 34 36 36 39 43 40 34 31 29 24 20 16 14 13 14 22 28 27 24 21 17 14 18 19 23 30 32 29 26 26 25 23 22 19 15 14 14 16 18 22 19 16
37 33 34 37 38 38 37 34 35 34 32 23 16 18 22 18 18 23 23 20 19 16 12 13 19 20 22 29 30 27 26 21 20 20 16 14 15 15 15 23 20 19 22
37 34 35 38 40 38 36 36 36 36 33 28 25 23 22 21 23 23 22 19 16 14 13 13 14 17 19 22 23 23 22 20 20 19 18 16 16 17 17 22 20 18 23
34 32 34 38 41 40 38 37 37 35 31 30 29 30 28 26 25 28 26 18 17 16 13 13 13 14 15 17 18 18 18 18 17 17 16 16 16 17 18 22 24 22 20
33 33 34 38 40 41 40 39 38 34 31 30 30 33 35 42 38 32 29 20 18 19 14 14 14 15 15 15 16 16 16 15 14 13 12 12 13 14 19 21 24 24 24
35 35 37 41 43 45 42 40 40 37 32 28 28 32 36 42 42 43 38 27 20 18 14 14 15 16 16 17 17 17 17 16 16 16 16 16 15 14 17 20 22 23 22
35 35 40 45 46 47 46 42 42 38 35 30 27 29 31 39 42 45 42 39 34 27 20 18 17 17 17 17 18 19 20 21 22 23 24 25 25 23 21 21 26 25 25
38 37 42 45 46 48 47 46 44 40 41 33 30 27 28 32 35 38 40 39 36 32 31 31 31 30 30 30 30 30 31 31 32 32 31 31 31 30 29 28 28 30 32
41 40 42 45 46 47 47 47 46 45 42 38 32 27 25 27 29 28 28 27 26 27 28 30 33 35 37 37 37 36 36 37 37 36 36 36 35 34 34 33 33 33 33
45 46 45 43 44 47 48 48 48 50 46 41 35 29 27 27 28 29 28 27 27 28 28 29 29 31 33 35 36 38 38 39 39 39 39 40 40 40 42 41 41 40 42
47 48 48 45 41 48 51 49 48 46 46 40 36 32 29 30 28 29 31 33 35 36 36 37 37 38 41 41 38 37 36 35 35 34 34 35 37 37 38 39 40 41 41
47 48 49 44 41 45 51 50 48 47 47 43 37 35 33 32 32 33 34 35 38 39 41 43 43 42 42 39 39 36 33 32 31 31 30 30 32 32 33 35 41 45 45
43 45 48 48 44 48 49 52 51 50 47 45 40 40 38 35 35 37 38 39 41 43 45 43 42 40 38 36 33 32 30 30 29 30 32 33 33 32 31 33 38 41 43
36 40 43 47 48 51 54 54 55 52 48 46 45 44 42 39 39 41 40 43 44 43 45 45 42 41 40 38 33 30 30 30 31 31 32 32 32 30 26 27 28 30 31
33 37 40 45 49 51 59 59 60 57 52 49 47 46 45 44 44 43 44 45 43 45 47 47 44 40 34 29 29 29 28 25 24 23 23 23 23 23 23 24 26 27 30
31 32 37 44 49 52 60 65 65 61 55 54 49 48 49 48 47 47 46 44 44 47 47 43 35 32 32 32 28 23 19 16 15 16 17 19 21 22 24 26 28 28 30
35 32 33 39 45 50 57 67 69 62 57 52 51 50 52 48 49 47 46 47 50 46 37 34 35 35 31 24 18 15 14 16 17 19 21 22 24 25 26 26 26 27 28
36 30 28 35 41 49 56 66 69 62 59 54 53 54 52 49 51 51 49 48 39 35 36 36 33 27 19 16 16 15 15 17 19 21 21 21 21 21 21 22 23 23 24
37 35 26 29 39 46 56 64 66 64 59 55 53 52 50 50 52 52 44 37 35 36 35 31 25 18 15 16 15 15 17 18 20 18 17 17 17 15 15 16 15 15 15
35 38 33 31 39 45 52 60 60 61 59 55 54 53 52 52 42 35 36 38 38 36 32 24 16 15 15 15 15 16 18 18 18 16 18 14 14 14 15 14 14 14 13
35 39 40 38 37 43 47 52 58 59 56 54 55 54 49 38 33 35 39 38 37 32 21 16 16 16 17 20 20 19 18 17 16 17 18 16 16 16 16 16 15 15 15
36 35 37 42 37 41 46 53 54 56 54 56 53 45 38 35 39 41 41 38 31 23 18 18 18 21 22 22 22 20 18 18 18 20 18 18 18 18 17 16 16 15 15
39 35 33 37 41 43 50 52 53 55 54 51 43 37 40 43 44 46 41 33 25 21 21 19 23 25 24 23 21 21 20 21 20 20 20 20 20 19 17 16 15 13 11
43 38 37 39 48 52 49 50 49 50 49 42 39 41 44 48 48 43 35 30 27 26 24 26 27 25 23 22 22 22 22 23 23 22 21 20 19 17 14 12 10 9 9
47 43 45 47 48 49 49 47 48 49 43 40 42 45 48 50 46 39 34 32 31 30 31 30 27 25 24 23 23 24 23 23 24 25 22 18 15 12 11 10 9 8 8
50 47 49 50 50 47 44 45 45 42 41 43 45 49 52 50 45 40 37 35 36 38 36 31 27 26 25 25 25 25 25 26 26 24 21 17 16 13 11 10 10 10 10

GFSSE_prec_cthk_012.txt.gz
RH
37 34 38 37 37 38 39 33 33 29 28 23 17 16 17 21 22 24 26 22 20 17 14 15 19 25 30 31 31 30 25 24 23 21 18 15 14 14 15 18 18 19 17
38 35 40 40 39 37 35 34 34 33 32 27 22 22 22 25 26 26 24 21 17 15 13 13 18 19 27 31 30 27 26 23 21 19 18 15 16 16 16 22 22 19 19
39 36 39 40 39 38 37 36 35 34 33 28 26 39 37 28 26 24 20 19 16 16 13 12 14 16 18 23 24 23 21 20 19 19 18 16 17 17 18 20 23 18 21
40 36 34 39 39 40 39 39 36 34 31 28 27 33 36 36 33 27 19 17 17 15 13 13 13 13 14 17 18 18 16 17 16 17 15 16 15 15 15 20 23 23 22
40 36 37 40 41 41 40 40 38 35 31 29 29 31 35 41 41 38 26 22 19 16 13 13 14 14 15 15 16 16 16 16 16 15 13 12 11 12 14 20 28 26 21
43 39 38 39 42 44 43 43 40 38 34 29 28 31 37 40 42 44 41 35 29 22 17 16 15 15 15 16 17 17 16 16 16 16 17 18 18 17 16 18 22 23 22
41 39 39 42 45 48 46 45 44 40 36 31 29 32 37 40 39 42 41 38 35 33 29 30 29 28 27 26 26 26 26 26 27 28 29 28 27 26 25 23 23 28 27
39 39 40 43 46 47 47 49 48 44 41 35 32 32 33 37 38 37 37 36 34 32 30 31 32 33 35 36 38 38 38 38 38 37 36 34 33 32 30 28 27 26 27
45 46 43 44 45 48 49 50 51 47 48 41 35 33 32 32 34 36 36 32 29 27 28 30 30 30 31 32 34 35 36 37 38 38 39 39 39 37 35 36 37 37 36
47 48 47 50 49 46 47 51 52 51 49 48 40 36 31 31 33 33 33 32 33 35 37 37 37 37 36 36 38 39 38 38 38 38 37 37 37 37 38 40 41 41 37
49 52 52 56 53 47 47 51 55 53 51 50 46 37 33 32 33 33 33 34 37 38 39 41 44 43 42 40 39 39 38 35 33 32 33 31 32 36 36 40 41 44 49
49 50 52 54 53 50 48 49 56 57 53 47 46 40 34 35 35 36 37 38 39 41 44 45 43 44 41 39 37 35 33 30 30 29 29 31 32 34 35 36 38 40 43
48 50 53 53 54 53 52 51 52 59 58 51 46 43 40 38 39 39 41 41 44 44 48 45 40 41 41 40 37 35 31 29 28 29 30 32 34 35 35 33 30 32 33
44 45 48 50 54 54 54 55 59 59 63 58 50 47 46 45 45 45 43 45 46 49 48 43 44 44 43 38 33 30 30 29 27 24 22 23 23 24 25 26 27 26 28
33 38 40 43 47 52 54 56 62 65 64 63 56 52 49 48 49 49 47 50 50 48 46 45 46 41 35 33 32 31 28 23 18 17 16 16 17 19 21 23 24 25 28
37 35 38 41 44 48 53 58 61 70 70 70 62 57 53 52 53 53 52 49 49 48 46 42 35 34 34 34 30 24 18 15 15 15 16 19 22 23 24 25 27 28 29
34 36 36 37 40 47 52 58 63 70 75 73 65 61 58 56 57 55 52 50 52 47 37 34 36 35 31 26 20 17 17 16 17 18 20 22 24 25 26 27 27 28 28
36 34 37 36 34 42 51 57 62 69 77 73 68 63 59 57 56 55 54 52 44 37 36 35 34 29 24 19 16 15 14 14 16 18 20 21 22 21 20 20 20 21 21
37 36 36 37 32 36 47 53 60 68 75 72 67 62 56 56 52 56 52 39 33 37 37 33 30 23 16 14 13 14 15 16 19 21 21 19 18 17 16 16 16 16 16
38 38 38 37 38 35 41 50 58 66 71 70 67 62 57 56 55 46 38 32 36 37 34 30 22 15 14 16 17 18 20 21 20 22 18 19 18 17 17 17 17 16 17
39 38 37 39 44 40 40 46 55 59 65 67 64 61 58 58 45 38 35 36 39 37 30 22 15 15 18 19 21 22 22 21 20 18 19 21 20 19 19 19 18 18 17
41 38 38 40 47 47 46 49 56 57 62 62 62 59 57 46 38 40 43 44 41 34 25 17 17 20 21 22 24 23 21 20 21 21 21 21 21 21 21 21 20 19 18
43 41 40 41 44 51 53 51 53 56 59 61 60 57 46 41 41 44 46 44 40 33 25 21 23 23 23 24 24 23 22 23 22 22 22 23 23 24 24 23 20 18 14
43 44 43 43 43 48 54 53 51 52 53 58 56 46 43 44 46 47 46 44 40 33 27 27 27 26 26 26 25 25 25 24 24 23 23 24 24 24 22 19 15 13 11
44 45 46 44 47 46 53 57 56 52 52 53 46 44 46 47 49 49 50 48 41 35 32 32 31 30 29 28 28 27 26 26 26 26 25 25 24 21 17 14 12 12 11
46 49 49 47 51 58 57 54 54 50 50 47 44 46 47 51 53 53 53 50 46 41 37 35 34 32 30 31 29 27 26 27 27 28 28 25 23 19 15 13 12 13 14

GFSSE_prec_cthk_015.txt.gz
RH
37 36 41 39 37 35 34 33 32 29 28 26 20 17 20 26 25 25 25 25 23 19 15 15 20 30 30 25 31 29 26 24 23 21 16 14 13 13 14 21 19 20 17
39 39 44 41 39 37 35 34 33 31 31 29 23 23 23 26 26 26 25 23 18 14 12 13 17 24 30 29 29 26 22 21 21 18 17 15 15 15 16 23 23 20 17
41 41 44 43 37 36 37 35 34 31 30 27 31 41 39 34 30 29 22 18 14 14 13 13 14 16 21 25 27 25 23 21 18 16 16 17 16 16 16 17 22 18 17
42 40 42 41 38 37 37 38 36 32 29 26 30 38 38 40 36 25 20 19 16 13 13 13 13 13 14 18 19 18 18 16 15 14 14 14 15 14 15 20 19 19 18
45 43 45 45 40 39 39 40 38 34 32 28 26 32 34 40 36 34 30 24 20 17 15 14 13 14 15 15 15 15 16 16 15 15 14 12 11 10 11 13 19 24 24
58 50 46 49 45 42 42 43 41 37 35 31 31 31 38 38 41 40 39 35 31 28 24 23 21 20 18 18 17 17 22 19 18 19 20 22 22 21 18 17 17 22 22
48 47 47 47 48 45 44 46 46 43 39 33 33 36 37 40 40 38 42 37 36 33 31 30 30 30 31 32 33 34 34 34 33 34 34 34 33 32 30 28 26 24 27
46 44 43 44 48 48 47 47 47 48 44 38 35 36 38 39 39 42 39 31 31 29 27 26 28 30 31 32 33 33 33 34 34 34 34 33 33 33 34 35 34 33 31
46 46 44 48 49 50 48 48 50 50 48 43 37 37 38 38 39 42 36 33 34 31 32 36 37 36 36 35 35 35 36 35 36 36 35 34 34 33 33 34 35 39 38
49 50 50 49 49 53 52 49 51 51 53 49 44 38 35 36 37 38 35 35 33 36 38 38 39 42 43 44 43 41 40 37 35 32 33 32 31 32 35 39 42 41 49
49 52 58 56 54 56 54 49 51 52 55 53 47 43 37 35 37 37 35 35 37 39 41 41 42 44 44 42 39 39 37 34 30 29 28 27 28 30 32 36 38 41 44
48 53 57 61 58 58 56 53 50 51 58 57 52 45 40 37 37 37 37 39 42 42 42 45 44 42 39 40 38 37 37 33 29 28 28 28 28 30 32 33 33 33 35
49 51 54 61 60 61 59 55 56 52 54 58 58 49 44 41 41 41 43 44 46 44 46 48 46 43 42 41 38 35 32 29 29 30 29 26 24 24 26 28 27 27 27
46 49 53 53 58 62 58 59 56 55 58 60 60 55 51 48 47 47 49 48 47 46 46 46 46 44 42 38 35 32 31 31 28 24 19 17 17 18 21 23 22 22 25
38 46 49 52 56 58 60 57 57 57 58 66 63 62 58 55 52 52 53 51 53 49 47 48 45 39 34 33 33 31 28 24 19 17 15 15 17 18 20 21 22 25 26
37 36 40 43 46 47 50 54 57 59 60 67 70 69 64 62 57 56 55 55 50 48 49 45 34 33 34 32 29 24 20 18 17 16 16 18 20 21 22 24 25 26 28
38 38 37 35 37 43 47 52 56 58 63 66 73 76 70 66 63 59 56 54 51 50 40 35 36 35 33 28 24 20 18 14 15 16 17 19 21 23 24 25 25 25 26
41 39 37 36 36 37 43 50 54 58 62 67 74 77 73 69 64 59 56 54 52 39 34 35 34 34 29 23 19 16 13 14 16 18 21 22 22 21 20 19 18 17 17
43 41 39 36 36 39 40 45 53 59 64 69 70 75 74 69 65 59 57 51 39 35 36 33 31 28 23 19 16 14 16 18 19 22 24 23 21 19 18 17 17 18 18
39 42 41 39 39 39 42 46 50 57 61 64 70 77 74 69 62 57 50 39 37 37 34 31 26 23 20 17 15 18 20 20 21 23 24 22 20 21 21 20 19 19 19
37 41 43 42 42 41 41 47 49 51 57 62 69 75 74 69 62 49 41 39 41 41 37 32 27 23 19 16 18 21 21 21 22 23 21 22 21 21 22 21 20 21 21
36 41 42 45 42 42 44 49 52 51 55 62 67 72 72 67 56 42 41 44 43 41 39 36 32 26 20 19 21 22 23 24 25 24 23 23 22 22 23 23 23 23 23
37 39 42 44 44 46 48 51 59 58 59 58 65 69 66 60 46 43 46 46 45 43 42 40 34 28 23 22 23 25 25 26 25 24 25 24 24 24 25 25 25 25 23
36 40 42 45 47 49 54 53 57 59 56 55 60 64 62 49 46 47 49 50 51 49 48 45 38 32 24 24 25 26 27 26 27 25 24 24 24 25 26 26 25 23 20
38 43 44 48 51 53 57 56 57 62 60 55 57 58 47 45 47 50 53 54 54 52 50 48 45 35 26 23 25 26 27 27 27 26 26 25 27 26 26 25 23 20 17
41 45 46 49 53 55 59 56 59 59 59 56 57 49 43 45 49 52 54 56 56 55 51 48 47 40 28 24 26 26 26 27 27 27 30 31 29 27 25 23 21 18 17

GFSSE_prec_cthk_021.txt.gz
RH
36 34 39 37 33 31 29 28 26 26 25 25 24 24 26 28 25 24 23 23 21 19 16 14 20 30 22 32 39 26 29 28 25 22 21 16 14 13 13 14 15 22 22
41 37 40 41 38 34 31 29 28 27 26 23 22 23 24 31 28 26 24 20 15 13 11 11 20 35 34 36 37 31 29 28 25 21 16 15 18 15 15 17 21 23 19
44 45 41 43 41 37 33 31 29 29 25 23 24 25 38 38 34 30 21 13 12 11 11 12 20 31 30 30 31 30 27 22 17 15 15 21 22 18 16 17 18 19 15
48 50 46 42 42 40 37 32 30 30 28 31 31 28 34 37 36 30 21 17 14 12 11 12 15 18 22 22 23 22 18 15 15 15 23 22 21 18 13 14 15 19 18
51 51 49 44 46 47 43 38 33 31 29 33 33 32 29 28 29 30 27 24 19 16 15 14 13 13 13 13 14 14 19 16 17 22 25 23 19 21 16 14 16 22 23
55 62 56 52 53 51 45 40 36 35 32 32 34 33 32 28 29 30 30 30 27 24 22 21 21 21 22 23 24 25 25 25 27 37 34 36 35 32 31 29 28 27 28
63 61 57 53 50 50 44 41 38 36 35 36 37 36 37 38 35 35 32 31 32 30 28 28 29 29 29 31 31 32 32 33 34 41 41 40 37 31 29 29 32 32 29
60 59 58 53 51 52 49 43 40 38 35 39 41 40 39 40 39 40 35 29 29 29 28 29 29 31 31 31 32 32 33 33 33 35 40 39 36 34 33 34 36 38 37
53 52 55 54 55 57 53 47 43 41 37 38 43 42 43 43 44 44 39 33 32 29 30 34 35 36 37 39 39 38 36 35 36 43 37 39 33 31 29 32 35 35 37
52 52 56 55 55 56 53 52 48 45 41 39 41 43 44 45 45 44 40 36 34 32 35 36 38 39 40 40 38 37 34 34 35 34 36 32 28 27 27 29 30 30 33
54 54 57 58 54 63 55 53 52 50 51 45 42 42 42 45 45 45 40 37 34 36 38 39 40 41 41 38 38 38 33 34 33 32 31 29 27 27 28 30 28 29 29
54 53 53 56 58 61 58 56 54 55 57 48 44 44 49 52 51 48 42 37 37 40 41 43 45 45 43 42 39 36 33 32 32 31 30 29 29 30 33 27 23 23 22
53 54 54 56 60 61 55 67 68 64 62 59 56 51 48 48 50 50 45 44 45 44 45 45 46 45 45 43 38 32 28 30 32 32 30 27 23 26 25 21 21 19 19
54 53 54 54 59 62 62 63 65 65 62 66 60 59 53 50 53 55 57 56 52 50 48 48 48 48 44 35 31 30 27 28 28 28 27 22 19 19 17 19 18 17 18
49 50 53 51 53 56 62 60 63 74 65 65 66 67 59 53 57 60 61 57 56 54 52 51 51 46 35 31 30 29 28 26 25 25 25 20 18 16 18 18 18 19 21
48 49 51 50 53 55 55 61 60 61 64 68 70 71 60 60 60 65 62 61 60 57 54 53 46 38 32 30 30 28 26 24 24 23 25 20 17 17 19 20 21 22 22
41 47 52 53 50 53 55 58 62 66 64 61 62 64 61 64 62 59 66 68 65 62 60 49 39 35 31 30 27 24 22 20 22 24 21 21 18 19 21 21 19 18 18
38 42 47 49 51 51 47 56 57 61 62 61 64 62 62 62 60 61 62 72 72 66 58 45 38 34 30 26 23 22 21 20 22 22 21 20 19 20 20 20 18 18 18
37 38 42 45 48 50 48 50 53 57 59 58 60 58 60 60 61 64 70 72 72 66 53 43 38 33 29 26 24 22 20 22 25 25 25 23 20 21 22 20 19 20 20
34 35 39 40 44 48 52 56 52 57 59 59 58 57 57 59 62 64 71 71 70 58 50 44 37 34 32 30 27 25 24 26 26 27 27 27 25 21 21 21 20 21 21
29 33 33 36 36 42 48 52 52 56 59 58 60 62 60 59 61 64 68 67 58 55 51 45 41 40 41 38 33 28 26 24 25 27 28 27 26 23 23 24 23 22 21
28 30 33 35 36 38 42 46 50 55 55 58 63 65 65 65 63 60 63 58 50 52 51 49 48 46 45 43 39 35 31 28 26 25 26 26 26 23 23 23 22 22 21
29 28 31 34 37 37 40 42 45 50 54 58 62 65 67 70 68 61 59 48 45 51 52 52 52 51 50 50 46 38 32 29 27 26 26 26 24 24 24 24 24 23 21
31 32 30 34 38 38 41 37 36 42 50 55 60 66 69 70 74 70 60 46 47 50 53 54 56 56 55 54 49 44 37 32 30 28 27 25 26 26 28 28 25 24 25
31 33 34 37 37 40 40 37 40 49 51 55 63 68 68 68 72 72 63 46 48 52 54 56 57 57 58 56 53 47 42 39 35 32 30 30 29 29 28 30 32 32 30
27 34 34 38 36 40 40 41 45 48 49 57 68 68 67 74 68 68 60 52 53 54 56 57 58 59 60 58 54 48 43 40 36 33 32 32 32 33 33 31 29 26 26

GFSSE_prec_cthk_024.txt.gz
RH
37 31 33 33 32 30 27 24 23 23 25 26 29 33 32 29 27 25 22 19 19 17 15 14 23 23 27 39 40 28 26 27 27 23 21 17 15 14 14 14 17 23 23
37 35 34 34 35 34 32 27 25 24 24 22 21 24 26 31 31 30 21 16 11 11 10 10 25 28 28 38 37 30 29 27 23 19 15 17 18 17 15 15 19 22 19
40 38 36 36 35 35 35 32 27 26 23 22 22 29 36 37 36 29 21 12 10 9 10 11 25 28 27 30 30 30 26 19 15 15 19 20 20 20 16 16 16 18 16
46 41 40 38 36 35 38 35 31 26 25 29 25 30 34 35 33 25 20 16 13 11 10 11 16 21 21 19 19 20 15 14 16 20 21 21 21 21 19 13 13 20 19
47 43 43 42 41 38 39 37 32 27 28 33 30 30 28 28 28 25 26 23 18 16 15 14 13 13 12 13 13 14 16 16 21 24 25 25 23 23 22 20 19 21 24
46 48 49 50 49 44 39 37 33 28 27 34 32 32 29 28 27 26 27 28 26 23 21 19 18 19 20 22 24 25 27 28 31 35 38 41 37 37 35 34 37 34 32
49 55 55 52 52 51 43 41 35 30 29 33 33 35 33 31 33 31 27 26 27 27 28 28 29 30 31 31 32 32 32 32 33 36 39 36 35 33 30 30 33 35 34
49 52 55 54 53 49 46 43 39 34 31 34 36 37 38 39 40 41 33 28 25 23 26 29 30 30 30 32 33 33 33 32 34 38 40 36 34 33 32 35 35 35 36
54 52 50 54 50 47 47 45 43 38 34 34 37 39 40 41 43 42 38 34 32 28 29 30 32 34 37 38 38 35 33 32 34 34 33 32 32 27 26 26 26 29 32
52 48 46 47 48 48 46 45 45 42 38 38 37 40 43 45 45 43 39 36 34 32 33 34 35 36 37 36 35 35 34 33 31 30 30 30 30 27 27 26 27 28 28
52 51 47 48 48 50 47 49 52 45 41 40 38 37 42 45 47 46 44 39 35 35 36 37 38 40 39 37 37 36 34 33 29 29 28 27 27 27 30 30 29 30 26
52 53 53 49 49 50 49 48 51 48 45 43 46 41 36 41 48 46 47 44 41 40 38 39 41 41 41 40 39 37 31 29 28 28 30 30 28 30 30 27 24 22 20
56 55 55 55 54 50 50 50 49 49 54 55 54 55 47 47 44 44 48 47 48 48 47 44 41 41 43 42 38 31 29 27 27 26 28 26 24 29 26 23 20 17 19
50 52 55 55 57 55 55 53 52 52 59 60 60 59 55 50 50 46 47 50 54 54 53 51 48 46 44 36 32 30 27 26 26 25 23 23 22 23 22 20 16 18 19
45 46 48 53 56 57 55 53 55 54 57 60 62 65 58 55 56 56 53 52 56 56 53 53 51 49 39 35 32 29 27 25 25 25 24 22 22 21 21 19 18 20 20
39 42 43 46 49 53 53 54 55 58 61 61 60 69 64 63 63 60 57 57 55 58 58 55 54 45 38 34 32 29 25 24 23 22 22 21 21 21 21 20 19 20 20
34 41 42 43 45 47 52 55 56 58 60 61 63 70 67 62 62 59 60 59 58 58 60 61 52 46 40 33 30 27 24 22 21 21 20 20 22 22 21 20 17 17 18
35 35 39 41 44 47 49 52 52 54 57 59 63 64 65 62 63 59 61 61 61 61 61 57 52 47 43 34 29 27 24 22 23 22 22 23 24 24 23 23 23 19 19
31 36 37 38 37 41 45 48 52 54 57 57 59 61 62 62 61 58 59 61 62 62 61 55 50 48 43 37 30 27 25 24 24 25 25 25 25 25 26 24 24 23 20
26 31 36 39 38 37 40 48 51 57 59 57 55 53 54 59 58 58 57 57 61 62 53 51 47 48 48 44 38 34 32 29 27 25 26 26 26 25 25 24 24 24 22
22 28 32 35 34 35 42 40 47 52 57 60 58 56 58 62 61 64 61 58 59 56 46 47 46 49 51 48 44 39 36 34 31 30 28 28 25 25 24 25 24 23 21
24 23 29 35 34 33 37 45 43 44 49 50 56 60 64 66 65 67 66 65 62 46 42 44 45 47 51 52 49 46 43 41 41 38 32 28 27 25 26 26 25 23 22
28 27 26 31 36 36 35 42 44 45 45 46 50 58 64 67 69 67 69 68 63 48 43 43 45 48 51 53 53 51 47 44 41 38 36 33 31 29 29 28 26 25 25
24 27 30 31 32 36 35 38 38 38 41 43 48 54 62 69 71 71 72 67 64 53 48 48 49 50 52 54 54 53 49 45 42 40 39 36 33 31 30 30 30 28 27
22 25 27 33 38 38 35 38 39 41 42 44 48 55 63 65 71 73 72 68 64 52 54 54 53 53 54 55 55 52 50 47 44 42 40 37 34 33 31 31 28 27 27
22 22 27 32 40 45 42 40 41 41 42 44 49 54 60 66 71 74 72 71 65 54 54 54 57 60 61 60 57 53 50 47 45 42 37 34 33 33 31 29 27 26 26

GFSSE_prec_cthk_027.txt.gz
RH
42 37 31 28 29 30 30 27 24 24 25 28 30 30 30 30 26 24 21 18 15 14 14 17 20 23 35 40 37 27 25 24 24 22 19 17 16 14 14 14 16 20 22
41 39 32 29 29 28 29 27 25 22 22 23 23 24 24 28 30 26 16 13 10 9 9 17 25 28 35 35 31 27 25 21 18 15 16 16 16 16 14 15 17 20 16
44 43 37 32 31 29 30 31 29 24 21 22 22 26 34 34 32 23 15 11 9 9 10 19 26 25 25 28 27 23 20 14 14 18 18 17 17 19 17 14 15 18 17
46 45 40 37 34 32 31 31 29 26 26 23 30 36 35 32 29 21 19 16 13 11 11 15 21 20 19 17 15 15 13 14 19 21 22 21 21 21 20 16 14 15 18
44 40 40 39 39 38 37 31 29 27 30 27 31 32 33 31 28 20 21 21 18 15 14 13 12 12 13 13 14 16 17 20 24 25 26 28 28 27 27 26 27 26 28
40 40 41 42 45 45 43 36 31 28 30 30 30 29 28 27 26 24 22 22 22 22 22 19 17 18 19 22 25 27 28 29 33 35 38 39 36 38 35 33 35 34 31
41 41 42 43 48 48 44 40 33 29 29 30 31 30 29 30 30 29 25 23 21 23 26 27 28 29 30 30 30 30 30 32 32 34 37 36 33 33 31 31 36 36 38
43 46 45 45 47 48 45 40 35 32 31 31 31 31 33 34 37 33 29 27 25 24 24 26 28 30 31 33 34 33 32 34 38 36 36 35 31 30 27 30 31 32 32
46 48 48 46 46 49 45 40 38 36 35 34 35 35 37 40 40 36 32 30 29 29 29 29 30 31 32 33 33 33 33 35 34 33 31 30 30 29 26 27 28 32 31
48 49 48 49 46 44 44 42 41 40 41 37 39 39 39 42 44 44 39 36 33 31 32 33 33 34 35 35 35 35 35 35 33 31 30 28 28 26 26 28 29 33 32
45 47 47 45 45 45 45 44 43 43 43 41 40 43 42 40 42 45 44 42 39 39 38 37 36 37 39 38 38 37 35 33 30 29 29 28 29 32 32 32 29 28 29
42 45 48 48 46 46 47 46 43 42 42 42 42 43 46 47 43 42 42 44 42 43 45 45 42 40 39 40 40 38 32 30 29 28 28 28 27 33 32 29 25 24 25
47 45 45 50 51 50 48 49 46 43 43 44 45 47 50 52 50 46 47 43 40 45 49 49 48 48 46 41 38 32 30 28 28 27 27 25 26 28 30 25 24 23 22
42 48 45 46 50 50 50 51 49 48 47 48 50 54 55 53 55 50 50 52 46 46 47 50 50 52 51 43 36 32 31 29 28 26 25 24 24 24 22 22 23 23 21
40 41 46 45 45 47 49 50 50 51 49 52 53 54 54 54 59 55 53 55 50 50 49 49 52 53 48 40 37 34 30 29 28 26 24 23 23 22 22 23 23 22 21
37 38 40 43 43 42 42 45 46 48 51 53 56 55 57 54 54 57 54 55 54 51 52 51 50 51 45 41 38 35 30 27 26 25 23 23 22 21 21 22 23 22 19
32 37 39 37 41 41 39 41 43 47 51 53 57 60 59 55 57 63 57 57 58 53 53 54 52 44 43 41 40 37 32 27 26 25 24 23 23 22 22 23 23 23 23
30 32 35 37 37 39 40 42 42 46 51 52 59 61 59 57 60 58 58 60 57 54 55 56 49 43 44 42 39 39 35 30 26 25 24 24 25 26 26 25 25 23 23
28 29 34 34 33 31 36 41 44 48 50 54 58 59 60 55 56 56 58 57 56 56 55 54 44 43 42 42 39 41 41 37 31 29 27 26 26 25 26 26 25 25 24
18 27 30 36 35 34 32 38 46 49 55 59 59 59 57 56 56 57 59 60 60 60 59 54 43 41 41 43 42 41 43 41 38 34 32 32 31 29 27 25 25 24 23
22 21 29 32 36 36 38 38 46 45 53 54 56 58 58 58 59 61 59 61 62 61 63 52 46 42 41 42 42 41 44 46 44 42 41 39 37 35 33 31 28 26 25
29 27 24 29 33 37 36 36 40 48 54 54 57 56 55 57 57 61 58 59 64 66 65 52 50 46 43 43 43 43 44 46 46 45 44 43 41 39 35 33 32 30 28
25 28 30 29 32 35 36 38 40 42 49 56 54 56 57 57 56 62 63 64 65 68 63 54 51 50 49 47 47 47 45 45 44 44 43 42 39 37 36 35 33 31 29
20 22 26 30 32 37 37 37 37 37 40 45 53 55 57 60 59 64 64 66 65 67 62 54 52 52 53 54 53 53 52 50 47 45 44 42 40 38 35 33 31 29 28
18 21 22 25 29 34 37 38 38 39 42 46 50 55 58 60 60 63 67 67 68 67 67 60 54 54 55 54 56 57 55 52 49 46 45 45 44 42 38 35 33 30 28
18 19 21 23 26 29 34 39 39 40 41 46 51 55 58 59 62 66 68 71 73 69 67 63 57 57 56 56 58 59 57 54 51 49 49 49 47 45 40 37 32 28 26

GFSSE_prec_cthk_030.txt.gz
RH
43 37 34 31 28 28 29 29 27 26 26 26 26 27 28 29 27 22 19 16 15 13 16 18 19 24 38 36 27 24 23 21 22 21 19 17 15 13 12 13 15 18 20
43 41 36 33 29 28 28 28 28 27 25 27 27 25 23 24 25 24 15 13 10 9 13 21 31 40 36 32 25 23 23 20 17 15 14 15 15 15 13 14 16 16 16
44 42 40 36 32 29 28 27 26 25 24 24 24 23 25 27 25 20 15 12 10 9 14 18 21 23 28 26 21 19 16 13 14 16 16 16 17 18 17 14 16 20 18
42 41 38 38 34 34 32 31 26 25 24 24 26 31 31 29 21 17 17 15 13 11 16 19 19 19 20 18 16 13 13 15 18 19 19 20 18 20 18 16 16 17 20
41 39 37 37 36 37 39 36 32 28 26 30 32 31 30 29 21 18 18 18 18 16 15 17 17 14 14 13 15 15 18 21 25 27 26 27 28 30 30 31 32 31 30
41 39 38 38 38 40 41 39 34 31 28 31 32 32 31 28 22 21 19 19 20 21 22 22 21 19 20 22 24 26 29 31 33 31 34 34 33 35 31 30 35 35 37
41 40 39 39 40 41 43 41 35 33 32 32 31 29 29 27 27 25 24 22 22 21 22 25 27 29 29 29 30 30 30 31 31 32 33 36 35 32 32 35 36 35 36
40 42 41 41 41 43 43 42 36 32 32 35 32 31 31 32 33 30 28 27 26 27 27 27 27 29 31 32 31 30 30 31 34 34 34 34 33 30 25 26 28 35 38
45 41 43 43 43 44 44 43 37 35 34 36 35 37 37 38 39 38 35 32 31 31 32 32 32 32 32 31 32 32 33 34 35 35 35 36 34 30 25 26 32 33 33
47 51 51 50 48 47 44 42 40 38 36 38 42 40 42 39 40 40 39 40 38 38 37 35 35 36 35 35 35 35 35 34 34 33 33 32 31 30 32 32 33 33 35
47 53 54 54 51 48 45 44 43 40 39 39 42 43 43 46 44 39 39 40 41 43 43 43 43 41 39 37 37 38 35 34 32 32 31 31 31 33 34 34 33 32 30
42 49 52 51 50 49 48 47 45 43 40 39 42 43 44 46 48 49 44 41 40 39 44 48 48 48 47 44 42 39 35 32 31 32 31 30 31 32 33 31 28 30 29
41 45 47 50 52 51 50 50 48 46 43 40 41 43 45 46 53 53 52 46 44 48 45 43 45 48 50 49 46 39 35 32 31 31 30 29 28 33 32 26 24 23 24
38 40 45 48 50 51 53 53 52 50 46 43 41 42 44 46 50 52 50 52 47 48 50 45 46 46 47 48 41 37 37 35 31 29 29 28 28 27 25 24 24 24 24
37 38 39 44 46 50 53 55 54 53 49 48 45 45 45 47 47 47 50 54 57 50 50 47 47 50 49 44 41 37 35 32 29 27 27 27 26 26 25 24 23 23 23
39 37 38 38 39 42 44 47 51 53 52 49 48 48 50 51 49 52 52 54 56 54 52 51 50 50 50 42 39 36 35 35 33 30 27 27 26 26 25 23 23 22 21
33 38 42 36 38 36 36 39 39 42 47 46 46 50 51 52 54 51 52 55 56 55 56 56 52 50 44 39 37 36 34 35 35 34 30 28 27 25 25 25 26 25 25
29 30 35 42 40 37 33 37 37 40 41 43 46 49 52 53 57 53 55 56 57 59 57 54 54 51 42 39 37 35 34 36 36 38 37 31 27 27 26 25 25 25 25
27 29 32 35 44 40 36 38 39 39 40 44 47 46 51 56 58 58 56 54 56 58 59 60 60 51 45 42 38 36 36 37 36 38 40 38 33 30 29 29 28 27 27
27 30 32 35 36 44 51 48 49 47 46 46 50 52 57 57 58 59 57 60 61 63 63 63 64 51 49 47 44 39 37 36 37 38 42 44 43 41 39 37 35 33 31
20 22 27 30 34 36 47 52 50 49 51 51 50 52 56 57 59 59 58 60 61 63 63 64 63 52 52 51 47 43 40 38 38 40 41 43 44 44 42 41 39 37 35
25 23 21 20 27 31 34 39 50 44 46 50 50 55 57 60 65 62 58 54 60 60 60 64 64 54 54 52 49 47 45 44 43 43 42 41 41 42 41 40 38 35 34
26 28 28 27 26 31 34 37 46 61 56 54 55 56 59 69 70 67 65 61 61 64 65 64 63 56 56 53 52 50 49 48 50 49 48 46 45 44 42 40 37 34 32
20 24 26 28 29 29 32 35 38 45 54 52 47 49 57 64 69 71 70 64 64 62 61 63 60 57 57 55 55 54 55 53 51 49 49 47 46 44 44 43 41 39 36
17 18 20 24 26 29 30 30 37 46 46 49 48 50 53 59 69 73 72 70 68 69 66 62 64 64 57 56 57 58 57 56 56 56 54 51 50 49 48 45 43 40 35
16 16 18 18 20 24 27 31 32 36 45 45 49 51 53 59 63 66 70 73 71 75 71 65 67 64 62 57 58 58 58 59 58 56 55 56 56 57 54 51 46 39 34

GFSSE_prec_cthk_033.txt.gz
RH
44 42 43 37 31 27 27 28 29 27 26 27 28 28 28 29 29 25 20 16 13 13 14 16 21 25 31 24 25 23 22 22 26 26 24 20 17 14 12 13 14 16 17
41 42 41 40 35 30 30 31 30 29 29 28 27 26 25 24 22 21 16 14 12 12 22 31 37 40 40 27 23 24 21 19 17 16 15 15 15 14 13 14 15 16 16
43 42 39 40 40 35 32 31 28 27 29 31 29 28 23 25 22 16 15 13 11 12 20 28 29 28 25 24 21 19 16 13 13 15 15 16 17 17 15 15 17 22 18
44 41 38 39 37 37 34 33 32 28 26 28 26 25 29 26 17 15 15 15 14 18 18 19 19 22 22 20 17 14 14 16 17 18 19 19 19 21 21 20 20 22 25
46 42 38 39 37 35 35 38 36 32 29 26 30 31 29 27 18 16 16 16 17 21 23 21 19 18 16 13 15 15 18 20 22 24 26 27 28 30 30 31 32 31 30
43 40 39 37 36 35 34 37 38 35 31 34 35 33 31 27 22 20 19 18 18 19 21 22 22 22 23 24 24 26 29 32 33 32 31 30 32 37 31 35 38 42 44
42 41 40 38 37 37 35 35 37 37 33 38 38 34 32 27 25 24 24 24 22 21 20 22 25 27 28 28 29 30 30 31 31 32 32 32 34 31 28 31 33 34 37
39 42 41 39 40 40 38 37 35 36 34 34 35 33 30 30 30 30 28 28 28 28 28 28 28 29 31 31 31 30 30 32 33 34 34 34 34 33 30 25 29 34 36
41 41 41 42 42 42 42 41 39 35 34 35 35 37 34 35 32 32 33 34 34 34 33 32 33 34 34 33 32 32 33 35 35 35 34 34 34 33 30 32 33 32 31
41 44 42 42 43 44 46 45 41 38 38 38 38 40 39 41 42 35 33 36 38 40 41 41 41 40 38 36 35 35 35 36 36 33 33 33 33 33 35 36 36 36 34
40 45 51 50 49 49 48 47 44 40 41 40 39 42 44 43 44 45 43 38 37 39 40 43 45 46 45 44 43 41 38 35 34 33 33 34 34 37 38 36 35 32 30
36 43 50 54 56 55 52 49 46 43 42 42 43 43 43 45 46 48 50 50 46 46 47 46 42 44 46 47 48 46 42 37 34 32 32 34 35 36 35 35 32 31 27
36 40 45 50 54 54 52 51 47 46 44 43 44 43 45 44 45 47 52 51 50 51 48 49 49 46 45 46 46 43 40 38 36 34 32 33 34 36 35 31 28 27 26
32 36 41 46 49 49 51 51 51 49 47 43 44 43 45 45 48 47 49 50 50 50 52 50 48 47 46 46 43 39 38 37 34 30 28 27 29 30 30 27 27 26 25
32 34 37 40 43 46 50 51 51 51 50 48 45 42 45 46 48 49 50 50 51 48 56 60 53 49 49 46 42 38 35 33 31 30 30 30 28 27 27 26 26 26 25
34 34 36 38 39 43 46 48 51 54 55 51 49 45 45 46 46 50 54 54 53 53 56 59 51 53 53 48 40 37 33 31 30 29 31 33 31 30 28 28 27 26 24
37 35 35 37 40 40 40 43 46 49 49 49 45 45 45 43 47 53 55 56 55 58 60 57 56 56 54 47 41 38 35 32 30 29 31 33 34 34 31 28 26 26 25
35 36 32 34 40 43 44 43 43 45 46 45 45 42 43 47 53 58 58 58 56 61 62 60 58 58 58 50 44 42 39 36 33 32 32 33 34 37 37 33 28 28 27
32 33 33 30 32 37 40 46 49 46 46 45 48 44 46 50 54 58 60 60 60 60 59 60 61 61 60 51 47 45 44 41 38 34 33 34 35 36 39 40 39 37 36
29 32 34 35 34 33 36 41 52 50 49 49 49 46 48 54 58 61 61 61 61 63 64 64 65 63 59 51 49 47 46 44 41 39 37 37 37 39 39 39 40 39 38
22 23 26 32 35 35 33 38 46 51 56 57 56 56 52 53 54 60 61 61 60 62 62 65 62 61 55 49 49 49 48 46 44 43 44 44 43 42 40 38 37 37 37
20 20 21 23 32 36 36 35 37 43 51 55 58 57 57 54 55 59 59 62 65 61 62 61 58 61 59 50 51 50 49 48 48 47 48 48 47 47 45 43 41 40 38
25 25 25 24 23 27 33 35 35 42 41 44 49 53 55 60 60 66 69 70 68 69 66 61 60 62 59 50 51 51 50 50 50 51 51 50 49 47 47 45 44 43 42
19 23 26 29 30 29 28 28 29 35 44 45 53 63 65 67 68 69 70 77 80 77 74 71 63 61 58 53 53 54 52 52 51 54 53 53 53 52 50 48 48 47 45
16 16 19 22 26 30 31 31 33 36 39 43 48 49 58 64 67 64 64 70 77 83 82 77 72 67 60 58 59 56 54 53 54 56 55 56 55 54 54 54 51 48 45
16 17 17 18 20 24 28 30 32 34 36 39 45 52 57 58 61 63 63 64 70 78 81 84 83 72 66 60 62 61 58 56 57 58 59 59 59 57 57 57 53 50 47

GFSSE_prec_cthk_036.txt.gz
RH
40 43 44 40 37 32 28 29 28 29 29 28 29 30 30 31 32 30 25 20 16 13 14 16 21 30 25 21 21 22 26 29 29 28 29 25 19 15 13 14 16 15 18
38 42 47 45 44 37 34 31 30 28 28 28 28 27 27 26 25 22 18 16 15 20 32 27 38 39 36 24 21 21 20 19 19 19 16 16 15 14 13 15 17 17 18
41 40 46 44 42 43 41 37 36 34 31 30 29 29 24 23 20 14 14 14 14 27 31 40 40 38 26 22 19 17 16 14 14 14 15 17 17 16 15 15 17 24 18
42 40 42 39 37 42 40 38 41 39 35 32 32 28 27 23 16 14 14 14 16 24 29 30 28 24 21 19 17 13 13 15 17 17 18 18 19 22 24 24 24 25 28
43 42 40 39 38 37 33 32 38 40 39 35 29 31 28 22 19 17 15 15 16 20 22 21 19 19 16 13 14 15 18 20 22 24 26 31 32 31 30 35 34 33 32
40 41 39 39 37 36 32 30 33 36 35 31 34 32 29 24 22 21 19 17 19 23 25 25 23 23 24 25 24 25 27 29 31 32 29 30 31 39 34 37 36 39 41
39 40 38 38 37 37 35 32 33 33 35 38 38 35 31 26 25 25 24 24 23 22 22 21 22 25 27 28 29 30 31 32 32 31 31 32 32 31 28 28 33 35 34
38 38 38 38 37 37 36 34 35 34 35 40 40 40 33 29 29 30 30 30 29 29 29 29 29 30 31 32 32 32 33 34 34 35 35 35 34 33 31 30 31 34 37
33 36 38 38 39 39 38 36 36 37 39 41 41 38 37 34 35 32 31 34 36 37 36 36 37 36 36 35 34 34 35 35 36 36 34 34 34 31 33 37 35 33 32
33 35 37 39 39 40 40 40 39 39 39 37 37 35 37 38 37 38 39 34 34 36 38 41 44 42 42 40 41 40 39 36 34 33 33 33 34 38 42 41 36 36 32
34 35 39 40 40 40 42 43 43 41 40 41 40 37 39 43 42 42 43 44 44 43 44 46 43 40 42 45 45 44 42 39 36 34 33 33 35 38 37 36 34 32 30
35 37 40 43 45 46 46 46 46 45 41 42 43 44 42 43 44 45 44 46 48 50 49 47 47 48 46 44 44 44 43 40 38 37 35 35 37 35 33 34 34 30 26
38 39 40 44 49 51 52 52 49 46 44 43 46 46 47 47 47 47 47 48 48 48 50 51 50 48 47 46 46 43 37 35 34 33 33 37 34 31 28 29 26 24 24
33 36 42 43 48 49 50 52 52 49 47 47 48 47 48 48 48 49 50 49 48 44 48 49 53 54 52 51 49 42 37 33 31 30 28 28 30 30 28 26 25 25 24
33 33 34 41 44 47 52 52 52 52 50 50 47 46 47 47 47 48 51 52 52 48 48 49 53 53 53 50 49 43 38 33 30 28 27 27 27 29 31 28 27 27 27
33 33 35 37 40 44 45 49 52 54 54 53 51 48 46 46 47 48 48 51 51 50 51 52 55 56 54 54 51 44 39 36 33 29 27 28 28 29 31 32 29 28 28
31 33 37 40 41 42 45 46 49 51 53 52 54 50 45 42 45 45 45 49 52 52 55 57 59 57 57 56 52 46 41 39 36 34 33 31 29 29 29 32 32 33 31
28 33 36 38 43 44 43 44 47 48 49 46 49 49 49 45 43 43 45 51 54 53 57 60 63 58 57 57 54 47 44 42 39 39 37 34 32 31 31 32 33 35 37
27 29 35 38 40 40 38 39 45 52 56 56 50 48 47 49 45 47 53 58 58 57 59 61 62 60 60 60 54 48 45 43 42 40 38 37 36 35 34 33 33 34 36
27 28 30 31 32 32 31 34 41 47 50 53 55 53 51 49 50 51 58 61 61 60 61 62 63 62 61 60 52 45 44 42 42 41 40 39 40 40 40 40 37 36 36
22 25 28 31 31 31 31 31 31 35 38 43 51 58 59 53 55 57 61 70 64 65 63 62 61 63 59 57 49 45 45 44 43 42 42 44 43 44 43 42 41 40 40
20 21 22 25 30 33 33 33 32 34 35 39 47 56 61 64 65 67 64 66 63 64 65 65 64 65 60 58 52 46 44 44 45 44 44 46 46 47 47 46 45 45 45
21 22 23 24 24 27 28 29 31 34 34 34 39 46 53 61 67 69 68 70 69 68 68 69 71 71 66 60 57 48 45 44 46 47 45 45 46 47 48 48 49 48 47
19 20 23 26 28 28 27 25 27 30 33 34 36 40 43 46 55 61 66 73 76 78 81 83 85 80 75 69 63 54 50 49 48 49 48 48 49 50 50 51 51 51 50
17 17 18 19 25 28 31 33 33 32 30 31 35 42 48 50 56 70 78 81 81 79 81 83 87 87 86 84 75 65 58 55 55 52 52 52 53 53 54 54 54 53 52
19 19 18 18 20 22 23 27 31 35 36 37 37 38 42 47 51 57 65 72 72 72 71 76 80 84 84 83 82 76 69 63 60 59 58 57 57 57 57 58 57 56 55

GFSSE_prec_cthk_039.txt.gz
RH
33 37 44 41 39 33 28 27 26 29 29 30 31 31 32 32 32 32 27 23 17 14 16 16 33 28 19 21 20 27 35 32 30 28 26 25 21 15 13 13 13 15 19
32 38 43 43 42 39 35 32 31 30 29 30 31 29 29 28 27 24 19 18 18 28 28 37 40 38 30 20 21 21 21 24 22 21 20 16 14 13 14 15 16 16 19
38 38 42 45 42 40 39 35 35 33 30 28 29 27 28 26 21 15 15 16 27 41 31 40 42 36 27 20 18 19 17 17 16 15 14 16 16 15 15 18 23 22 23
39 39 40 41 40 41 40 34 37 39 35 32 33 26 25 22 17 15 14 15 25 33 34 36 36 29 20 17 15 13 13 14 16 17 17 18 18 22 26 27 27 28 28
40 38 37 41 38 43 39 35 35 38 37 35 31 27 25 21 20 18 16 15 21 29 34 32 28 22 19 15 14 16 19 21 22 23 24 28 30 32 36 37 37 37 35
40 39 38 38 38 34 36 34 32 34 37 35 28 29 26 22 22 21 20 20 22 22 21 21 23 23 23 24 25 27 27 28 28 28 30 31 33 35 33 36 37 45 42
40 37 36 37 35 35 33 33 29 30 34 33 35 33 28 24 25 25 23 24 26 27 25 24 23 24 25 26 28 29 30 30 30 30 30 30 32 31 28 31 36 37 38
41 40 38 38 36 35 34 34 31 33 31 35 38 36 33 28 27 28 29 29 30 30 31 31 31 31 31 31 31 32 32 33 34 34 33 33 34 31 33 32 31 34 37
36 39 39 37 37 38 36 35 34 34 36 39 40 37 33 32 32 32 31 30 32 35 37 38 40 39 38 36 36 35 34 34 33 32 31 32 32 34 39 38 35 34 33
33 34 36 39 39 40 38 37 35 37 42 45 40 40 33 34 34 35 36 38 38 37 38 40 41 40 41 41 41 41 39 38 36 35 34 33 37 41 43 39 36 33 32
33 34 35 36 40 40 41 41 38 38 40 43 45 42 36 36 36 36 37 40 42 43 44 45 44 44 42 40 40 40 40 39 37 36 35 36 36 35 36 34 33 32 29
37 35 35 40 41 42 42 43 42 43 41 42 41 41 42 42 40 39 39 41 42 45 50 50 48 46 44 44 43 42 40 35 33 32 31 35 36 34 32 30 30 27 23
35 35 36 39 43 45 46 46 46 47 47 45 43 43 44 45 44 43 42 42 42 43 45 45 48 49 49 48 46 44 39 35 32 29 29 34 33 31 29 26 25 23 22
33 34 37 41 43 48 52 53 53 52 52 49 46 44 44 46 47 46 44 44 44 44 43 44 47 48 49 52 51 46 42 36 32 29 28 28 27 27 25 24 26 26 24
36 33 35 39 41 45 49 55 55 54 53 53 51 45 45 46 47 47 45 45 47 46 43 44 47 50 50 51 51 48 42 36 33 31 29 28 26 26 26 25 27 28 27
34 32 34 33 35 41 45 50 53 55 54 55 53 51 47 45 47 47 47 47 49 49 46 45 48 51 51 53 52 51 44 39 36 35 33 32 31 30 29 27 27 28 29
31 33 34 34 34 32 37 45 50 55 55 55 56 54 52 50 48 46 44 45 47 48 47 47 50 53 52 55 54 50 45 42 39 37 35 34 33 33 31 30 29 29 30
28 27 29 32 32 33 34 38 44 49 52 53 54 54 53 52 51 47 44 42 43 47 49 51 53 56 56 55 53 52 47 42 40 37 35 34 33 32 32 32 31 31 31
27 26 24 26 29 32 32 37 40 46 51 55 53 51 53 52 52 51 50 46 43 49 54 54 56 58 58 56 56 54 48 42 39 37 35 35 33 34 35 36 36 35 34
23 24 23 24 27 32 34 35 41 41 43 46 49 50 55 56 56 54 55 51 50 54 58 58 61 59 58 59 58 54 46 41 39 38 37 37 35 35 38 39 39 39 38
21 22 23 23 24 28 32 33 32 30 34 40 43 47 52 56 58 61 60 57 56 57 61 65 64 64 62 59 60 53 46 40 40 40 38 37 38 38 38 39 41 42 41
19 19 19 21 23 24 27 30 31 33 33 35 38 43 46 48 51 59 65 66 69 67 68 69 68 65 65 64 65 60 52 44 42 42 39 38 39 41 41 40 42 42 42
18 19 19 20 21 21 23 26 27 29 32 34 35 37 39 42 45 53 61 68 75 78 74 74 71 68 69 70 72 68 61 52 48 45 44 43 42 43 44 44 46 46 46
18 18 19 20 21 23 24 24 24 24 25 28 32 35 37 43 48 54 54 61 73 79 78 76 77 79 82 83 81 79 75 69 59 55 53 50 47 47 48 49 50 50 50
19 18 18 18 19 22 26 28 30 30 30 29 28 30 35 37 43 50 58 59 62 70 74 78 84 87 88 88 86 85 81 79 73 68 65 62 58 56 54 54 54 53 53
20 20 19 18 18 18 20 24 28 30 33 34 36 37 38 36 37 43 53 59 61 64 77 82 86 87 87 86 84 84 81 79 77 72 71 71 69 63 60 60 59 57 57

GFSSE_prec_cthk_042.txt.gz
RH
30 32 39 39 35 33 30 29 28 32 32 29 31 31 31 31 31 30 27 21 13 16 12 27 32 25 25 23 24 28 32 32 31 33 30 23 20 14 13 13 16 21 15
31 38 42 42 39 36 35 32 31 30 29 29 30 30 29 28 26 23 19 16 27 26 30 38 36 33 20 17 21 22 28 27 27 25 20 16 13 13 14 16 16 18 20
40 43 43 46 42 40 37 34 34 34 32 31 30 27 27 25 20 15 15 24 38 32 38 41 39 29 23 17 19 19 18 18 17 16 15 21 16 16 17 18 20 23 20
45 45 45 46 43 41 39 35 33 33 33 31 30 24 25 22 17 15 16 26 32 32 37 40 37 28 18 15 13 13 13 14 15 16 22 25 24 23 29 29 30 28 26
46 45 45 43 44 42 39 35 32 32 34 32 26 24 20 17 17 17 18 23 27 33 34 35 33 25 18 15 15 17 19 20 22 25 28 29 34 34 37 39 41 41 40
47 45 42 42 45 43 40 39 36 33 33 33 28 25 20 19 18 18 18 19 26 30 29 25 22 21 22 23 25 27 28 27 28 30 31 31 38 30 32 35 41 48 44
47 45 43 44 45 43 39 39 39 36 35 32 30 28 23 22 22 23 22 24 26 26 25 24 24 24 25 26 27 27 28 29 32 32 33 34 34 28 28 35 38 39 42
46 47 45 46 46 40 38 37 36 38 37 33 34 31 28 26 26 25 26 29 29 28 28 29 30 31 31 31 30 30 31 31 35 35 35 37 31 31 36 32 31 34 37
47 48 46 44 41 39 37 36 35 35 35 36 37 35 30 30 29 30 30 29 30 31 33 35 37 38 38 37 36 36 35 35 37 35 34 35 30 42 43 40 38 36 35
42 44 47 47 44 38 38 37 35 36 37 45 43 39 33 31 32 32 34 36 36 36 37 41 39 38 37 37 39 40 40 39 38 36 38 39 45 44 43 38 35 32 31
37 39 40 42 45 44 44 39 38 38 40 46 47 46 39 39 35 34 34 37 39 41 42 45 42 41 40 40 40 38 37 36 35 37 40 38 39 36 37 35 31 29 29
37 38 38 40 42 42 41 42 42 41 41 47 47 47 47 46 44 42 37 37 38 41 46 47 45 46 46 46 45 43 40 35 34 36 38 32 32 31 30 27 26 25 22
32 36 35 35 42 41 40 43 47 50 48 48 48 49 48 48 48 46 44 38 39 41 46 44 44 45 46 46 47 47 43 38 37 37 37 34 33 30 25 25 23 23 22
31 32 35 35 37 41 45 45 49 50 49 49 50 50 48 46 49 49 48 47 45 44 47 46 44 45 46 45 46 47 47 41 39 38 38 33 32 28 26 24 24 24 24
33 37 36 36 37 40 44 52 56 55 55 53 48 50 51 48 48 50 51 51 48 46 47 44 44 44 46 47 48 49 48 43 39 41 41 34 32 31 29 28 27 26 25
32 33 34 33 36 39 40 42 48 55 58 59 55 51 49 49 48 50 51 49 51 50 47 45 44 43 45 48 49 51 50 44 40 42 43 39 34 32 30 29 28 29 29
34 36 35 33 31 33 33 35 40 44 53 58 58 59 56 52 50 50 51 53 51 51 48 47 44 44 46 49 50 52 51 44 41 41 40 41 33 32 30 30 29 28 30
32 33 35 36 34 32 31 30 31 38 45 52 57 60 63 60 56 53 55 55 54 51 45 43 44 45 49 51 52 53 50 45 41 40 37 35 34 34 31 31 31 32 32
27 29 27 29 33 34 31 29 30 33 39 44 48 52 59 61 66 64 55 53 54 53 48 45 45 48 52 55 55 55 53 49 43 39 37 35 34 33 33 31 33 34 35
22 25 26 25 27 31 33 30 30 33 33 38 41 43 48 54 58 63 61 57 58 57 52 50 52 52 54 59 60 56 57 52 45 39 36 35 36 34 32 33 34 35 36
18 20 22 23 24 24 29 33 30 29 30 31 35 39 43 48 54 58 57 62 60 59 58 57 59 55 57 64 62 59 59 54 48 43 41 38 37 35 33 34 36 37 37
17 17 18 20 21 22 22 27 27 31 31 31 32 35 39 42 48 53 55 55 63 63 64 66 66 64 62 67 68 62 61 57 54 52 47 42 39 37 37 37 38 39 39
17 17 17 17 17 18 18 20 26 30 32 30 30 31 34 40 42 45 48 52 56 58 66 72 75 74 73 73 71 69 66 64 63 62 58 54 50 47 45 44 43 43 43
18 17 17 17 19 20 21 21 21 26 26 24 26 29 33 36 41 44 48 53 55 57 60 67 73 80 81 78 76 75 77 74 72 71 67 63 61 59 57 56 54 52 49
19 19 18 17 17 18 19 22 24 29 31 32 32 32 29 28 31 40 49 54 63 60 59 63 67 76 81 84 82 82 87 87 84 79 76 72 68 65 63 60 59 60 60
21 20 20 19 19 18 17 17 19 24 31 35 38 39 38 39 33 33 38 45 49 60 69 67 68 73 79 84 88 88 91 92 87 81 77 74 72 70 68 67 66 68 66

GFSSE_prec_cthk_045.txt.gz
RH
32 25 28 36 37 35 33 29 31 32 32 31 30 30 30 30 30 29 24 17 16 13 17 34 27 27 26 21 28 31 32 37 36 33 30 22 16 12 12 14 21 20 17
31 26 33 38 38 36 34 30 33 32 29 30 29 29 29 27 24 21 16 22 25 24 36 35 27 20 16 15 19 23 26 27 27 25 19 16 12 13 15 16 16 16 17
33 35 37 41 39 37 36 35 30 32 32 30 29 29 27 25 20 13 18 32 32 35 41 40 32 24 16 14 18 17 18 19 17 16 20 22 17 17 18 19 20 20 20
42 42 44 44 41 41 38 34 31 30 30 29 28 24 24 21 17 16 26 32 31 37 41 39 29 25 15 12 12 12 12 13 14 19 29 30 29 27 30 31 31 29 26
50 43 44 45 43 43 41 36 34 29 29 29 24 22 18 16 15 16 22 28 30 33 35 35 33 23 17 15 16 17 19 20 23 29 33 30 35 32 33 35 41 43 40
51 51 45 45 43 43 40 38 36 33 31 30 25 22 18 18 16 16 18 23 27 28 27 27 23 20 21 23 25 26 26 27 29 34 36 33 34 28 32 35 43 44 46
51 51 44 40 43 43 41 40 40 37 34 30 27 24 21 20 20 20 20 22 28 28 26 22 22 23 24 25 26 27 28 30 35 36 38 39 32 28 30 35 37 39 43
53 52 46 43 44 44 44 40 43 41 38 34 29 26 24 24 24 23 24 27 29 29 27 26 27 29 29 30 30 30 30 30 39 39 35 35 28 35 36 33 30 33 34
49 50 47 45 46 45 44 40 37 39 39 38 34 29 25 27 26 27 27 28 28 28 29 31 32 33 34 35 36 37 37 38 42 39 39 40 34 42 39 36 34 33 33
46 49 47 45 45 43 38 37 36 36 36 37 39 37 30 27 28 29 29 31 32 32 33 35 36 35 35 35 34 34 34 35 39 38 39 37 45 45 38 35 32 28 28
42 44 46 47 45 45 42 37 36 36 37 44 44 42 35 33 31 30 31 32 33 37 38 39 40 39 39 39 39 38 36 37 34 34 40 35 37 35 32 29 26 24 23
38 42 42 43 44 43 43 42 38 38 39 44 45 44 43 43 43 40 35 33 34 35 37 40 42 41 41 42 42 43 43 41 36 37 37 32 31 31 28 24 23 22 21
30 39 41 41 41 40 41 43 44 46 46 48 46 46 47 48 49 46 43 36 35 37 39 42 41 40 41 42 42 43 42 41 41 40 38 33 33 31 28 24 23 22 21
32 31 34 40 39 41 43 42 43 46 48 50 54 54 54 51 51 48 46 45 43 42 43 44 45 45 43 43 44 44 43 43 44 41 40 37 36 32 29 27 26 25 24
32 34 31 34 38 40 43 46 48 51 52 53 53 52 50 52 52 53 54 49 50 50 46 46 44 44 44 44 44 45 45 46 46 43 41 39 37 34 31 29 26 24 24
34 34 35 36 36 37 38 43 49 52 54 56 55 55 55 54 53 52 56 53 51 55 50 48 46 42 42 43 44 46 48 48 49 45 42 41 36 33 31 28 25 26 25
37 36 35 34 31 30 31 34 39 45 50 50 53 55 57 58 57 55 56 54 53 55 57 54 50 43 40 41 43 46 50 50 49 45 42 42 37 33 32 29 27 27 28
27 28 32 36 34 34 33 32 33 34 37 42 44 50 53 56 57 58 60 62 59 57 58 58 54 49 43 40 42 46 51 52 50 46 44 42 41 36 32 31 29 29 29
23 28 30 33 36 39 39 36 34 34 33 34 42 44 50 54 57 60 62 66 69 69 63 60 55 51 49 46 43 45 51 54 52 48 47 43 40 37 33 32 29 29 30
20 23 26 28 31 33 38 40 39 31 33 34 38 42 42 47 51 55 58 60 64 66 70 67 63 57 54 52 50 48 52 57 53 50 49 45 40 36 34 34 32 31 31
17 19 21 23 25 27 31 34 38 31 27 29 31 36 46 45 48 49 52 55 56 61 62 64 65 62 61 62 58 53 52 59 57 54 52 49 46 44 41 37 34 34 34
17 17 17 18 20 21 23 26 30 33 25 24 28 32 35 40 43 48 47 49 55 55 60 65 64 65 65 67 68 67 62 60 62 60 57 55 53 52 50 46 43 42 42
18 17 17 17 17 17 18 19 20 27 31 29 26 27 28 34 41 44 47 48 50 55 56 60 63 64 64 67 72 75 75 70 67 66 63 60 62 62 60 57 54 54 53
19 17 17 16 16 17 18 20 20 22 26 29 30 30 28 29 34 41 48 50 54 58 59 55 63 68 72 72 75 79 79 78 75 70 69 68 72 71 70 65 63 60 58
19 18 18 17 17 16 16 17 20 22 25 29 33 33 31 31 30 31 38 45 48 51 57 63 63 64 69 74 73 78 86 86 83 80 78 80 82 81 77 71 67 64 62
22 19 18 18 19 20 19 18 17 17 19 24 29 34 35 37 38 38 38 40 44 45 47 53 64 70 74 82 80 81 83 86 86 87 88 84 87 87 80 71 69 67 67

GFSSE_prec_cthk_048.txt.gz
RH
36 27 26 33 37 35 31 31 32 32 31 33 32 29 28 29 28 23 18 16 15 16 36 28 27 25 23 21 28 29 32 35 34 32 27 18 11 12 13 17 16 15 22
31 25 28 36 38 37 35 34 33 33 34 33 30 28 28 27 23 17 18 22 20 31 34 26 19 17 12 14 21 25 26 29 27 24 17 13 13 14 15 16 15 15 21
31 27 31 38 39 37 35 34 30 29 30 30 29 28 26 24 17 15 29 29 30 38 40 34 25 19 13 14 17 17 19 19 19 20 21 22 20 20 21 20 19 20 20
33 31 35 38 38 37 35 35 32 29 28 28 24 22 22 18 15 24 31 31 33 41 39 33 25 18 12 12 13 12 13 14 20 27 31 32 26 31 30 32 31 31 29
39 37 38 38 39 40 38 35 33 31 27 25 21 19 16 14 15 23 25 27 30 33 33 29 29 18 17 18 18 19 20 23 27 31 27 30 27 31 31 33 39 38 38
42 41 41 40 41 41 40 38 35 33 31 24 22 18 16 16 16 17 22 24 28 28 26 26 19 18 19 21 23 25 26 28 29 37 34 31 26 27 30 36 37 39 46
42 45 42 42 42 42 40 38 38 36 33 29 24 20 19 18 18 18 20 24 26 26 26 21 20 22 23 24 24 25 27 29 30 37 32 31 26 26 28 32 34 36 39
46 46 43 43 43 43 40 39 40 40 36 34 27 21 21 21 22 21 21 24 28 27 25 26 27 28 29 29 29 30 31 35 35 34 32 31 28 34 33 31 29 28 31
48 45 42 40 43 43 40 40 41 41 40 37 31 26 22 22 22 24 26 27 28 26 26 28 29 30 30 30 30 31 33 37 38 38 36 35 41 40 35 32 30 27 27
47 45 43 38 41 40 40 40 39 39 39 41 35 31 26 25 24 24 25 27 29 30 31 32 32 32 33 33 33 33 32 32 31 29 30 30 38 35 30 28 25 21 20
45 44 42 40 38 35 34 34 35 36 36 37 41 37 30 28 28 27 27 27 29 30 30 34 35 36 37 37 37 38 38 37 36 34 33 31 32 32 29 25 22 20 19
41 41 40 42 42 39 37 35 35 34 36 38 43 43 36 32 33 31 30 31 31 30 32 33 35 35 36 37 37 38 38 38 37 38 37 35 31 28 26 24 22 20 20
35 41 40 40 38 37 39 39 34 35 36 39 43 45 41 41 42 41 37 35 33 33 34 34 36 37 38 37 38 40 41 39 39 37 39 36 32 30 28 24 24 23 22
32 35 39 40 38 36 36 36 37 38 39 41 44 44 44 45 44 44 43 39 37 36 36 37 38 38 37 39 39 41 41 41 41 41 44 39 35 33 32 28 26 24 22
34 34 35 36 37 37 37 37 38 41 40 41 41 45 47 48 47 47 48 48 46 41 41 41 42 41 40 38 39 40 41 41 43 43 43 42 37 35 34 30 27 25 22
38 35 32 33 33 35 37 40 42 45 47 48 49 49 50 49 49 48 50 51 52 49 48 47 47 45 43 39 38 38 40 41 44 45 43 43 38 36 33 31 28 26 23
38 37 33 30 30 31 34 37 39 41 43 40 43 45 48 49 50 51 51 52 53 54 55 54 50 48 48 46 44 40 38 40 43 46 45 43 40 37 34 32 30 27 26
35 40 40 33 30 29 29 30 32 37 39 40 44 41 39 41 46 51 52 52 53 56 56 59 63 61 54 50 45 44 44 41 42 47 47 44 41 41 37 34 29 28 28
22 26 31 35 37 33 34 32 31 32 33 36 38 41 38 39 41 47 50 55 55 57 60 62 63 65 66 63 55 49 48 48 46 46 50 48 44 43 41 37 31 29 30
20 19 21 27 31 37 38 39 35 33 34 35 36 37 40 40 40 42 47 51 55 56 59 60 61 63 67 67 65 60 56 55 54 50 51 53 49 46 44 41 39 36 33
20 19 19 19 21 24 29 37 39 36 33 35 34 34 38 45 41 40 43 44 51 54 59 61 61 58 60 63 64 62 59 62 62 60 55 55 56 54 49 47 45 44 41
22 20 18 18 19 21 23 24 29 35 35 35 34 33 31 35 46 45 44 43 45 50 57 60 59 60 60 60 60 63 62 64 66 67 68 64 61 62 58 52 51 52 51
19 18 18 17 17 16 17 17 18 20 25 29 26 24 22 24 33 44 47 48 44 50 55 59 60 61 66 70 68 69 69 66 69 70 73 76 72 69 68 62 58 61 61
19 18 18 17 17 17 18 19 20 20 20 24 29 29 29 31 29 28 39 48 54 55 53 58 64 63 66 67 71 70 73 75 77 77 76 79 78 76 75 71 67 69 72
21 19 19 19 19 18 17 16 16 17 19 22 26 31 34 33 32 32 32 35 41 51 54 56 58 58 62 69 71 71 71 74 76 80 81 83 82 82 82 82 77 76 79
23 21 20 19 19 20 19 18 18 18 18 18 19 22 26 31 33 33 34 39 42 43 49 52 57 63 61 62 64 70 72 77 79 81 85 87 89 89 89 87 87 84 85

GFSSE_prec_cthk_051.txt.gz
RH
42 35 30 31 33 32 28 25 28 31 31 31 30 28 26 25 23 18 17 15 23 36 26 28 23 21 19 22 27 30 31 31 31 28 21 13 12 13 15 14 16 22 29
38 31 28 32 34 35 33 28 26 29 32 31 28 28 26 24 19 17 21 18 33 37 23 20 16 11 11 17 23 25 25 27 25 22 16 16 15 16 16 14 14 19 24
33 30 32 36 37 36 36 35 30 28 28 27 27 25 24 20 15 26 25 29 36 41 30 25 19 11 13 16 17 18 20 22 20 19 19 20 23 23 23 20 18 18 22
34 29 31 39 38 37 38 37 34 30 27 26 20 20 19 15 24 29 27 28 34 33 30 23 18 11 11 13 13 14 17 20 21 23 23 24 29 30 31 30 31 32 33
33 30 34 42 39 37 38 37 36 32 28 22 19 17 14 15 22 23 26 27 30 30 28 24 19 17 17 18 19 20 23 27 28 29 30 27 31 32 31 35 36 37 43
37 33 35 38 39 39 38 36 34 33 29 22 17 15 15 15 21 22 22 26 25 24 24 22 17 17 19 20 21 23 26 28 29 30 28 26 25 30 34 36 38 40 42
39 36 37 40 41 40 39 37 35 33 28 27 20 18 17 17 16 20 23 24 25 24 24 20 20 21 22 23 24 26 27 29 30 30 29 28 24 26 30 31 33 35 37
40 40 40 41 43 42 40 37 37 37 34 30 25 21 18 18 19 19 20 23 25 24 22 23 24 26 27 27 28 30 33 34 35 35 33 31 33 35 33 31 28 28 28
46 46 44 41 43 43 39 39 40 40 38 30 28 24 23 21 20 21 24 26 26 26 26 27 27 27 27 28 28 28 30 30 31 30 29 30 34 34 29 27 25 22 22
47 46 43 42 43 42 38 39 39 41 40 34 32 29 25 25 24 24 24 24 25 27 28 29 31 32 32 32 32 32 32 32 33 30 30 28 31 30 26 23 20 18 17
46 46 46 40 40 39 36 35 36 36 36 36 34 32 30 27 26 26 27 27 27 27 28 29 30 31 31 32 33 33 33 32 31 33 34 33 31 29 26 23 20 18 17
42 42 43 39 38 35 34 32 31 31 33 34 35 36 32 29 29 30 30 30 31 31 30 31 31 31 32 32 33 33 34 34 34 35 34 35 32 28 26 23 21 20 20
39 38 37 35 35 35 35 35 33 31 29 30 34 37 37 34 37 37 37 35 34 33 33 33 34 34 34 32 32 34 35 36 35 37 38 38 37 29 26 24 24 23 22
35 36 36 33 31 31 30 31 32 31 31 31 34 38 39 40 40 43 41 41 41 39 38 37 36 37 36 34 34 34 34 36 35 36 40 41 40 35 29 28 26 25 23
36 37 37 36 35 32 30 30 29 31 32 34 37 40 42 42 42 43 43 44 43 45 44 44 41 40 40 39 37 37 36 35 35 35 39 43 43 38 33 30 29 27 25
36 38 40 38 37 35 31 31 31 31 34 35 38 40 43 45 44 45 45 46 46 47 50 49 49 50 49 45 43 42 41 41 38 36 37 43 46 41 36 32 30 28 26
35 34 35 37 37 35 33 32 34 33 33 34 35 36 39 41 44 46 46 44 47 51 52 51 52 53 55 60 57 51 47 41 41 42 37 40 47 46 39 35 33 31 28
32 35 33 37 36 34 31 32 33 34 34 37 38 37 38 39 38 39 41 40 44 48 50 52 53 53 56 58 58 58 58 57 49 47 46 42 44 49 45 41 38 35 31
27 33 31 33 30 31 36 41 35 36 37 38 38 38 35 36 36 37 35 36 39 44 49 55 57 58 60 61 60 60 61 61 64 59 55 52 47 48 51 46 42 40 36
24 24 32 33 30 30 32 32 34 39 44 46 48 46 43 39 39 40 39 41 43 45 47 51 54 58 60 63 64 64 60 59 61 61 59 59 59 54 52 52 49 46 43
24 25 24 22 28 29 29 31 31 30 34 38 41 40 41 43 45 44 44 43 46 48 50 53 60 60 57 67 71 68 61 56 54 55 61 62 64 65 64 54 56 53 50
26 26 26 24 22 20 21 23 26 28 30 30 31 33 36 40 45 44 44 45 50 51 54 57 57 60 63 68 73 76 73 67 65 66 65 67 68 67 71 72 63 61 58
24 24 24 24 22 21 19 19 20 20 21 22 24 25 25 26 29 32 36 43 47 55 57 55 58 67 72 74 75 78 76 69 68 69 72 73 76 72 72 75 78 75 70
23 21 20 20 20 19 19 19 19 19 19 21 22 22 25 29 27 29 33 38 44 44 49 54 60 62 67 71 76 77 78 77 73 70 71 72 76 78 81 81 80 79 77
21 21 20 19 19 18 18 18 17 17 18 18 20 22 24 27 30 33 33 35 35 37 41 41 46 50 58 60 60 67 73 77 79 81 83 79 79 79 83 86 87 82 80
24 23 22 21 21 20 20 19 18 18 17 17 16 17 19 22 24 26 29 30 34 35 40 50 55 56 59 63 71 71 73 71 72 75 78 83 88 87 86 86 90 92 88

GFSSE_prec_cthk_054.txt.gz
RH
38 32 34 29 31 30 26 25 27 27 28 28 29 27 25 23 20 17 16 25 32 31 33 24 21 19 20 29 34 34 31 29 27 24 18 13 13 13 13 17 23 29 30
37 31 32 31 32 33 33 29 25 25 26 28 26 27 24 21 18 21 19 34 40 20 18 15 11 11 17 23 24 25 25 26 23 16 15 15 16 15 14 15 20 22 25
38 32 32 32 34 35 36 34 28 24 24 24 24 23 20 16 24 21 27 33 36 25 22 17 10 12 13 18 19 19 20 19 18 18 19 23 25 25 21 18 17 19 20
36 31 33 34 37 36 38 36 34 29 21 19 19 19 16 21 25 23 27 32 31 28 22 18 11 13 15 15 15 16 17 18 22 22 23 27 30 31 29 30 30 35 36
35 32 35 39 40 39 39 37 34 32 26 19 17 16 15 21 22 25 26 29 28 26 21 18 16 16 17 17 19 23 24 25 25 26 27 28 32 33 35 35 36 42 42
35 32 38 40 40 39 40 37 35 32 30 22 17 15 15 22 22 22 23 23 24 22 22 18 18 19 20 20 21 24 24 25 26 26 25 24 29 35 36 36 38 39 41
35 34 38 39 39 40 40 38 36 33 28 25 20 18 16 16 18 20 21 23 23 23 22 21 22 23 24 25 26 28 29 30 30 29 28 26 25 27 30 32 33 33 37
39 36 36 36 40 41 41 40 36 33 29 27 23 21 19 18 18 20 21 23 23 23 22 23 23 24 24 25 26 27 28 29 29 29 30 29 33 31 29 28 27 27 26
44 38 35 40 43 42 41 40 38 37 31 29 26 24 23 22 21 20 21 24 24 24 25 26 27 27 28 28 28 29 30 32 31 30 28 27 29 25 23 22 20 19 18
43 43 44 43 44 43 41 39 40 39 35 32 30 27 25 25 23 24 26 26 25 25 26 27 27 28 28 28 28 28 29 31 31 29 30 30 32 26 23 21 19 18 17
47 47 45 44 43 43 40 40 39 37 34 34 33 31 28 28 28 28 28 28 29 29 30 30 30 30 29 30 30 30 30 29 30 30 31 32 32 31 27 22 20 18 17
49 48 48 44 40 39 39 37 35 32 32 33 33 32 32 32 32 32 33 32 31 32 33 33 34 34 33 33 33 32 32 31 32 34 34 34 34 33 28 25 22 21 20
49 47 44 43 40 37 35 34 32 30 30 29 30 31 34 33 35 35 36 36 35 37 39 39 38 37 36 36 35 35 35 34 32 34 36 36 35 36 31 27 25 24 23
45 44 42 39 37 36 34 30 30 29 29 30 32 34 35 36 37 39 40 41 41 40 40 40 42 43 44 41 39 38 38 37 36 32 34 37 37 39 38 31 28 27 26
45 40 36 35 34 33 33 30 28 27 27 28 29 34 37 37 38 41 43 44 44 44 44 41 40 42 45 46 46 46 44 41 39 39 38 36 37 40 43 38 31 29 29
42 38 35 34 34 33 32 31 29 29 28 30 33 35 36 37 39 42 44 45 46 46 46 47 47 48 48 49 49 49 53 54 50 46 41 40 40 39 43 45 37 32 32
38 40 41 38 36 33 33 33 31 29 30 32 34 35 37 37 37 38 39 41 43 45 47 50 51 50 51 52 53 53 53 52 53 58 58 49 46 46 42 46 44 38 35
34 39 43 41 37 35 35 35 32 30 29 29 30 32 37 36 35 33 33 32 34 36 37 40 46 49 53 55 56 58 58 54 51 54 57 62 62 56 53 48 47 45 40
29 30 31 35 37 38 39 38 38 39 40 35 34 32 34 37 37 37 35 34 37 38 40 42 43 45 47 52 56 60 62 62 59 56 53 55 59 62 63 62 57 50 47
27 28 29 30 30 33 34 37 38 38 36 44 49 51 53 54 50 48 48 51 53 53 51 49 49 51 53 58 62 64 67 68 67 65 60 59 57 56 61 67 69 65 55
29 28 28 29 31 30 29 29 29 30 33 35 41 51 49 44 44 50 58 56 56 51 57 57 51 55 59 65 70 73 70 71 71 73 70 67 65 66 63 66 70 74 73
29 29 28 28 28 29 31 30 29 27 26 27 34 36 41 45 51 57 52 51 50 49 48 50 58 59 59 62 68 73 73 74 74 76 77 74 73 71 71 76 75 75 75
31 30 29 27 27 26 27 26 24 23 22 21 22 22 24 26 28 30 36 40 36 32 34 39 47 56 62 59 65 74 76 72 73 73 75 74 73 72 71 75 81 83 83
32 29 28 27 27 26 24 25 24 23 22 20 20 20 20 20 21 24 27 31 34 40 41 44 43 42 48 57 63 69 73 75 74 70 69 72 75 75 78 79 80 83 89
31 29 28 25 22 21 21 21 20 20 19 19 19 19 19 19 20 22 25 28 32 39 40 37 36 37 42 55 57 61 72 76 75 75 69 71 82 77 77 81 86 87 89
28 26 24 23 22 21 20 20 19 19 19 18 18 17 16 15 16 18 20 24 24 28 32 36 42 45 46 52 63 63 66 70 70 68 78 73 86 92 85 83 86 92 92

GFSSE_prec_cthk_057.txt.gz
RH
36 34 32 28 29 29 25 25 25 26 26 27 26 25 24 21 17 17 23 37 40 33 25 21 18 17 24 32 34 35 32 27 24 19 15 12 12 12 16 21 27 30 31
34 34 32 27 30 32 30 26 24 24 25 24 23 21 21 16 19 18 33 37 19 16 14 10 10 16 19 22 24 23 22 22 18 14 14 16 17 15 15 19 21 24 26
34 35 32 27 30 32 34 30 26 24 23 22 22 19 16 18 18 25 32 35 21 20 14 10 11 11 17 18 18 17 17 16 15 17 20 23 26 24 21 19 21 21 22
32 35 33 31 32 35 34 33 32 28 21 20 19 16 15 19 21 26 28 29 25 21 16 12 14 14 16 17 17 16 16 18 20 22 24 26 30 29 31 30 41 36 39
34 33 32 32 34 36 36 37 33 31 25 20 16 15 19 22 21 24 27 27 25 21 16 14 14 15 16 17 18 18 20 22 22 22 23 27 32 32 33 32 36 40 44
36 35 34 35 34 38 39 37 33 29 29 22 18 16 18 23 22 22 24 24 24 21 18 18 19 19 19 20 22 23 24 25 24 25 24 25 30 35 35 35 34 37 37
35 35 37 36 35 39 40 39 36 32 27 25 21 19 23 21 20 21 21 22 22 22 21 21 22 22 23 24 25 26 26 27 26 26 26 26 27 30 31 31 31 32 34
34 36 39 38 36 39 41 40 38 33 28 25 24 23 26 21 21 21 22 22 23 22 22 23 24 25 26 26 27 28 29 29 29 29 27 27 27 23 23 22 22 22 21
36 34 37 38 35 40 41 41 38 33 29 27 24 23 23 24 24 23 24 24 23 22 23 24 25 25 26 27 27 29 30 30 30 30 29 29 32 26 23 20 18 18 17
41 39 35 36 38 42 41 41 40 35 32 31 28 25 24 25 24 25 26 27 27 26 26 27 28 28 28 28 28 29 31 32 31 30 30 31 32 30 26 23 20 18 17
45 45 42 39 42 43 42 41 41 38 35 33 31 28 27 27 27 27 28 29 29 29 31 32 32 31 31 31 31 30 31 32 32 31 31 33 34 35 32 27 23 21 20
46 46 46 47 46 42 40 40 40 38 35 33 31 31 29 30 31 32 33 33 33 34 34 35 36 36 36 36 36 35 35 34 33 34 32 34 35 35 35 32 27 25 24
50 50 51 49 47 44 42 42 39 36 34 31 30 30 31 32 32 34 35 36 37 37 37 38 39 40 41 42 43 43 42 40 38 37 37 35 34 35 36 37 33 28 27
52 49 48 47 44 42 39 37 35 33 31 30 29 28 31 34 35 35 35 35 37 39 39 39 40 41 42 43 44 46 47 47 48 46 42 39 40 40 36 38 39 33 30
53 50 49 46 43 41 38 35 31 29 29 27 25 27 29 33 34 34 35 38 40 42 43 43 41 41 43 45 46 46 46 47 48 51 54 53 47 43 44 41 41 42 35
54 51 49 45 42 39 37 35 34 32 30 28 28 29 31 34 36 38 40 41 43 45 46 48 49 47 46 46 47 47 47 47 48 45 46 51 56 58 54 51 47 43 41
50 50 47 43 40 37 37 37 37 35 32 30 31 33 34 35 38 40 40 39 40 41 42 42 43 44 45 47 49 52 54 55 54 53 50 49 50 56 61 63 60 56 48
46 44 42 39 39 38 37 37 36 36 34 32 30 31 31 33 36 37 35 35 37 38 38 37 38 40 42 46 50 54 57 60 61 62 59 57 58 59 58 62 67 67 64
34 35 38 40 38 38 39 38 37 38 35 33 33 34 35 35 35 38 39 39 41 41 43 46 48 50 51 50 52 52 54 58 64 66 66 69 68 68 66 65 61 62 67
30 29 31 35 38 39 38 38 38 38 36 36 35 36 41 45 48 51 53 52 52 52 54 59 59 55 54 54 52 50 56 63 64 67 70 73 75 75 74 73 71 71 67
32 29 29 31 33 36 39 40 38 36 36 35 35 35 36 42 54 55 55 57 58 63 63 57 56 57 47 46 52 59 59 62 66 69 72 72 74 77 81 79 77 77 79
33 31 29 29 30 31 32 34 35 35 33 33 32 32 35 38 43 44 45 59 51 51 49 48 48 45 39 42 54 61 63 64 59 63 67 71 72 75 77 81 81 81 82
35 33 32 30 29 29 29 28 27 27 28 27 26 24 24 26 29 32 35 37 35 38 34 37 39 37 42 46 51 61 59 50 55 59 63 65 70 72 75 79 79 81 83
39 37 34 31 30 28 27 27 26 26 26 27 26 24 23 22 22 22 23 23 26 35 31 34 37 42 46 45 43 41 44 49 57 55 56 71 68 69 72 75 78 86 89
39 38 36 35 33 30 27 26 25 25 27 26 24 23 22 21 22 22 22 22 23 26 29 31 34 38 39 40 39 45 49 54 62 64 55 57 63 68 68 73 79 79 84
38 36 35 33 32 30 29 27 27 26 23 22 22 21 20 19 18 18 18 18 20 23 26 29 31 36 39 43 51 51 55 56 55 55 56 55 55 55 64 66 65 80 81

GFSSE_prec_cthk_060.txt.gz
RH
35 38 33 29 29 27 25 24 25 25 25 25 25 24 22 17 17 23 35 38 28 22 18 16 16 21 27 31 32 30 27 21 19 13 12 12 12 16 20 26 28 31 29
35 37 32 29 29 29 26 23 22 22 23 23 23 22 17 17 17 28 30 18 14 12 10 10 14 15 18 21 22 19 18 16 13 12 14 17 17 15 18 19 21 23 23
36 34 30 28 29 30 30 27 24 24 23 22 18 17 17 16 21 30 29 19 17 13 10 11 11 16 17 17 17 16 15 15 16 18 21 24 23 23 24 31 31 27 30
36 32 28 27 29 33 33 30 29 26 23 20 17 15 18 18 25 28 25 22 20 16 12 14 15 18 20 20 19 18 18 20 20 22 23 24 26 29 30 36 37 37 36
36 32 30 28 33 34 33 34 32 29 23 19 16 17 20 20 23 24 24 24 21 17 15 15 17 18 18 19 19 21 22 23 23 23 26 29 31 33 31 33 34 38 41
37 35 34 32 33 34 35 35 31 28 26 23 19 20 25 21 22 23 24 25 24 20 19 19 19 20 21 22 24 25 26 25 25 24 24 29 31 37 35 32 33 36 36
39 38 36 34 33 34 36 35 31 29 27 26 24 23 26 22 21 23 22 23 22 20 20 21 22 22 23 25 26 27 28 27 27 26 26 25 25 26 26 26 24 25 27
41 41 38 36 34 36 38 38 34 30 28 26 25 27 28 23 22 22 23 22 22 21 21 23 23 24 25 26 27 27 29 29 28 27 27 30 29 26 24 22 20 18 17
41 40 38 37 36 37 40 41 38 34 29 28 25 24 25 27 27 26 26 25 24 23 23 23 24 24 25 26 27 28 29 29 29 29 28 29 30 28 26 23 21 19 18
42 38 37 36 35 36 42 42 41 38 32 31 27 25 24 24 25 27 28 28 27 27 28 29 29 29 29 28 29 30 31 30 29 28 29 31 32 31 32 28 23 21 20
43 38 36 36 35 37 42 42 42 41 36 33 30 27 26 26 26 27 28 30 30 30 31 32 33 33 33 34 34 34 35 35 35 33 32 32 32 33 34 33 29 24 23
42 42 39 37 39 40 43 43 42 41 38 35 33 30 28 28 30 32 32 34 34 34 34 34 33 34 35 37 38 39 40 42 41 40 39 38 38 37 35 34 34 31 27
43 43 45 44 44 46 42 43 42 42 39 36 33 30 31 30 31 32 34 35 36 37 37 38 37 37 38 38 39 41 44 44 45 46 48 46 44 44 41 40 36 35 32
50 49 47 47 48 47 46 46 44 42 37 34 31 30 29 31 31 31 32 32 33 35 35 35 36 37 38 40 40 42 43 42 41 43 46 44 47 49 50 45 45 40 36
50 50 49 49 47 47 45 43 40 36 34 32 30 28 27 29 32 34 32 32 34 38 39 40 40 39 39 39 40 41 42 43 43 45 45 44 43 45 50 53 53 50 49
54 53 52 51 50 48 45 43 38 34 32 31 29 27 27 29 32 34 36 38 41 43 43 44 45 45 46 45 45 45 46 47 48 49 50 50 50 49 50 52 55 58 59
58 58 55 53 51 48 46 43 40 38 36 35 33 31 31 32 34 36 38 39 41 40 40 40 41 41 40 43 46 49 51 54 55 56 58 60 60 59 59 60 60 60 60
56 57 55 55 52 49 46 44 42 41 39 38 36 34 32 31 31 33 34 36 38 40 41 42 43 43 44 49 51 52 54 56 55 56 59 66 69 70 69 69 67 68 67
49 50 49 50 48 47 46 46 46 44 41 41 39 37 35 36 36 36 36 38 43 47 50 50 50 51 55 60 60 54 51 49 51 55 57 64 70 72 74 76 75 74 74
42 41 41 39 37 38 40 42 44 43 40 39 38 38 38 39 40 42 45 47 53 57 56 57 58 63 61 54 55 52 45 44 47 56 61 67 70 71 75 78 77 78 77
41 38 36 35 35 36 37 37 37 37 35 34 34 35 35 35 39 42 41 45 50 54 53 59 61 54 51 50 46 40 35 38 48 55 61 63 61 67 71 73 75 78 79
46 41 37 34 32 32 33 37 39 41 42 41 39 37 36 36 34 34 36 38 41 41 42 45 42 43 42 38 42 41 45 44 42 46 50 48 54 61 66 69 71 73 73
44 41 38 36 35 33 33 33 35 37 36 34 33 32 33 32 32 32 32 32 33 35 35 36 34 38 40 37 40 44 49 46 43 40 40 43 51 58 60 63 68 71 72
42 41 39 37 36 35 33 31 30 30 29 28 28 28 29 29 29 29 28 25 24 24 25 27 29 33 42 40 38 41 43 42 43 42 46 49 54 57 58 60 64 71 72
43 43 41 38 36 34 33 31 30 28 27 26 26 25 26 29 29 27 24 23 22 23 23 24 27 32 35 35 36 39 41 45 45 51 51 51 50 49 49 49 56 58 61
46 43 42 40 38 35 34 33 32 30 28 25 24 25 25 26 24 22 21 20 19 19 19 21 26 29 31 32 35 39 45 51 54 51 47 47 45 42 39 39 42 44 43

GFSSE_prec_cthk_063.txt.gz
RH
39 38 35 33 29 26 26 27 27 28 27 26 25 22 18 17 25 32 28 22 17 15 15 19 25 29 28 28 28 24 18 16 11 12 13 12 16 19 20 22 27 24 22
39 39 35 33 28 27 24 24 23 23 22 23 22 20 17 19 27 25 15 14 12 10 9 13 14 16 18 20 18 16 15 13 14 18 21 19 17 18 22 23 21 24 29
40 37 31 29 28 27 26 23 21 21 21 19 17 17 17 21 27 26 17 16 14 11 11 11 15 16 17 18 18 17 17 18 21 24 25 24 26 30 37 34 33 33 33
40 33 30 29 29 29 29 27 24 23 20 18 16 18 17 24 27 23 19 19 15 12 13 13 16 18 19 19 18 19 21 21 23 25 26 29 29 32 33 33 36 35 42
41 34 30 29 31 33 33 30 28 27 21 18 16 18 19 22 22 23 22 21 17 16 16 17 19 19 20 20 22 23 23 23 22 24 27 28 32 34 32 31 34 36 38
44 41 33 31 34 33 34 33 31 27 24 21 20 18 19 21 22 23 24 23 19 17 18 18 19 20 21 23 24 25 24 24 24 24 25 28 29 28 26 24 27 29 29
46 43 36 36 34 32 36 36 32 29 26 24 24 26 22 21 25 25 22 22 20 19 20 21 22 22 23 24 25 25 26 25 25 24 25 25 25 25 23 22 20 18 18
47 45 38 38 34 33 35 37 34 32 27 25 25 31 28 27 28 23 23 21 20 19 20 21 22 22 23 24 25 25 26 26 26 26 26 27 27 25 24 22 20 18 17
48 47 42 38 36 35 36 39 38 35 29 27 26 25 26 29 30 26 25 24 24 24 25 26 26 27 27 27 27 28 28 28 28 28 28 28 28 27 27 26 23 20 19
49 45 43 39 38 36 37 41 41 37 33 30 28 26 25 25 26 27 29 28 27 27 28 30 30 30 31 31 32 33 33 33 32 31 30 30 30 30 30 29 28 25 21
51 45 42 40 38 36 38 41 42 40 37 33 31 29 26 25 25 27 28 29 30 30 30 32 31 31 32 33 34 35 36 37 37 37 37 36 37 35 34 32 32 31 28
53 45 42 41 39 36 39 41 42 42 40 36 33 30 28 27 27 28 30 31 32 32 33 33 32 32 33 33 34 35 36 36 37 37 38 38 40 42 41 41 38 35 32
50 46 42 41 39 39 41 43 44 43 42 39 36 33 32 28 27 27 29 31 32 31 32 32 33 33 34 34 36 37 37 37 37 37 38 39 39 39 41 44 46 45 42
45 45 45 45 45 45 45 45 46 44 44 41 36 34 32 30 29 28 28 29 29 29 30 32 33 34 35 35 36 36 36 36 38 40 41 42 42 43 43 43 46 49 50
52 49 45 44 46 48 49 47 47 47 45 40 36 33 30 29 29 30 30 29 30 31 35 38 38 39 39 39 40 40 41 43 44 43 45 47 48 47 47 47 48 49 53
65 60 53 51 50 49 50 50 50 46 42 39 36 32 30 28 28 31 32 34 35 38 40 41 42 44 44 44 44 45 47 49 50 49 50 50 52 54 54 54 55 57 59
71 62 55 52 52 52 51 51 50 46 42 39 37 35 33 32 31 32 35 37 40 41 41 40 41 40 41 42 43 46 53 55 54 51 49 49 52 57 59 60 62 62 63
72 66 59 56 54 53 53 51 49 47 44 42 41 39 36 35 33 31 32 34 38 39 39 40 43 45 45 46 47 54 55 50 52 52 47 46 50 58 63 66 68 68 68
70 67 64 57 57 58 57 54 51 49 45 45 43 41 40 39 37 34 35 38 40 41 43 46 50 52 51 54 58 56 52 51 54 49 45 44 53 57 64 67 67 67 69
63 62 59 55 52 54 54 52 50 48 46 45 44 43 43 40 38 37 37 39 41 46 46 52 56 56 53 56 53 49 49 47 43 41 40 44 50 59 62 62 62 65 68
50 50 49 49 47 46 42 39 38 38 39 39 36 36 36 36 36 36 35 40 41 43 44 46 48 47 45 47 49 41 39 34 34 36 45 43 45 51 54 55 58 63 65
55 49 43 41 41 40 38 37 36 35 36 38 40 40 40 37 36 34 33 32 33 36 38 40 41 40 39 39 40 38 41 36 33 38 43 45 43 43 44 48 55 61 63
58 58 55 50 40 37 36 35 34 34 35 36 37 38 37 36 34 33 34 34 32 31 31 32 32 34 34 35 36 39 41 43 38 38 38 38 39 41 46 50 53 58 63
59 54 51 49 48 44 40 37 36 34 34 33 33 33 31 30 30 29 29 29 29 30 30 28 27 30 34 35 36 34 37 38 40 41 42 42 46 50 50 50 50 50 51
53 49 46 45 43 43 43 40 37 36 34 33 31 30 28 27 26 26 26 27 27 27 27 24 24 25 27 32 33 35 36 36 37 44 46 47 50 46 41 41 39 39 40
56 54 49 46 43 41 41 40 39 37 35 34 31 29 27 26 25 25 26 26 27 25 22 21 20 21 23 30 32 34 34 36 41 47 49 46 43 36 39 38 39 37 38

GFSSE_prec_cthk_069.txt.gz
RH
44 36 31 29 27 27 29 33 32 31 27 25 22 20 22 27 25 17 16 22 29 37 42 40 32 26 18 16 12 11 12 16 15 15 19 26 27 24 23 28 30 31 29
46 36 30 28 27 27 28 30 29 28 24 22 21 19 24 25 19 14 10 9 13 21 27 25 21 15 14 13 13 15 18 20 20 23 29 35 33 30 29 28 36 37 33
46 37 31 29 28 27 28 27 25 23 20 20 18 21 26 22 17 16 11 10 9 12 19 15 14 15 15 15 17 19 20 22 25 28 35 34 31 30 30 36 44 42 30
45 39 35 30 27 27 25 23 22 20 17 17 19 24 28 23 19 16 12 12 11 12 16 15 16 16 17 18 19 20 21 23 25 30 34 33 28 29 30 35 32 30 27
50 44 37 31 31 29 27 22 21 19 17 18 20 26 30 25 21 19 15 15 15 16 18 19 18 18 19 20 21 20 20 23 28 34 33 29 27 21 21 21 22 21 20
56 56 46 36 33 31 30 29 25 19 18 19 23 26 30 26 24 21 17 16 17 17 18 18 18 20 20 21 22 22 21 23 27 29 31 28 22 20 19 18 16 16 15
59 58 50 46 35 31 32 32 28 24 22 21 22 24 25 26 26 22 19 18 18 18 18 18 19 20 21 22 23 22 22 23 27 29 29 27 21 21 21 20 19 17 17
62 57 52 50 42 34 31 32 30 28 28 29 29 26 28 28 28 21 20 19 19 19 20 21 22 23 24 25 25 26 26 28 32 33 35 28 26 26 25 23 22 22 20
66 60 54 52 48 38 35 32 32 30 30 32 36 33 32 33 31 28 25 23 22 23 24 26 26 27 28 28 28 29 30 31 36 36 37 39 33 34 34 33 30 26 24
69 64 58 54 49 39 38 34 34 31 32 32 32 33 33 29 27 28 28 27 27 27 28 29 29 29 29 30 30 31 32 33 38 37 39 34 33 34 35 36 38 38 34
69 66 63 57 51 44 41 37 36 33 33 33 33 32 31 35 29 29 28 28 28 29 30 30 31 31 31 31 31 31 32 36 38 38 38 37 37 37 37 37 38 38 40
71 69 65 62 56 48 44 40 39 35 34 35 35 33 38 38 37 35 28 28 28 29 29 29 29 30 32 34 33 32 33 36 36 38 40 38 38 38 39 38 38 38 39
72 68 63 61 60 56 50 43 43 40 40 42 42 41 40 38 32 29 28 27 27 28 28 28 28 29 36 33 32 33 34 34 37 39 41 41 41 39 37 35 35 37 41
78 70 65 63 61 56 49 45 48 48 44 44 46 44 43 39 35 35 33 32 28 31 30 33 34 34 35 33 34 35 37 37 39 41 43 42 39 38 40 38 37 37 40
78 77 68 59 59 57 51 47 45 48 47 48 48 48 46 43 39 35 33 32 31 30 30 31 32 35 37 38 40 41 43 43 41 41 44 43 42 42 43 42 38 37 40
73 74 71 67 63 57 53 52 50 49 49 50 52 49 48 45 40 36 35 33 32 30 31 33 35 37 41 42 42 43 45 44 44 44 44 41 41 41 42 42 41 39 40
63 63 67 67 64 60 58 56 52 49 49 51 53 52 51 43 37 33 35 36 36 34 34 35 37 38 40 40 41 42 45 46 44 45 43 42 41 41 42 39 40 40 43
57 55 58 59 64 65 57 54 50 49 51 54 58 57 50 48 41 39 39 39 40 39 37 36 38 40 38 38 42 46 49 51 47 46 45 47 46 43 40 35 38 41 43
56 56 55 57 60 64 63 58 58 58 58 57 56 57 53 51 47 44 44 43 43 42 39 38 38 40 40 47 50 55 55 52 50 50 48 47 47 40 35 36 35 39 43
58 59 61 59 62 68 69 70 65 57 55 55 58 57 55 54 52 49 48 47 46 44 41 41 43 49 48 52 54 52 51 49 47 47 44 41 38 35 37 38 37 39 42
58 61 63 64 63 65 67 67 68 64 62 59 60 59 58 56 53 48 44 45 44 43 42 42 46 45 44 46 51 48 44 43 41 36 34 33 34 35 39 36 35 38 40
59 63 64 66 65 62 65 65 66 68 64 64 55 53 53 51 47 45 44 44 46 47 45 43 44 43 42 44 48 48 44 38 38 41 38 38 33 37 35 34 35 37 40
62 62 61 59 58 58 59 63 64 63 59 59 58 53 50 47 46 44 43 43 42 42 41 39 39 40 40 38 38 44 45 44 42 39 40 38 36 36 36 35 37 41 47
63 61 59 59 59 58 58 62 62 61 59 57 52 48 43 42 43 42 40 39 37 35 34 32 31 32 33 35 36 36 38 40 42 43 45 40 36 35 35 38 47 45 42
62 62 61 59 62 62 61 59 56 53 53 50 52 46 42 39 38 36 35 35 34 32 31 29 28 27 27 29 36 36 30 31 32 39 45 43 41 40 43 50 49 48 41
63 62 63 63 64 64 62 58 58 59 58 56 53 53 50 44 41 37 36 35 33 30 29 28 27 26 28 30 29 31 33 33 32 36 43 46 51 50 53 51 47 41 35

GFSSE_prec_cthk_072.txt.gz
RH
44 33 31 31 30 29 30 32 30 28 24 22 19 21 24 20 16 23 33 40 48 46 44 36 25 16 11 10 11 15 15 16 26 30 30 27 26 24 27 32 31 29 25
40 33 29 28 28 28 29 29 26 23 20 19 19 23 24 16 12 10 15 22 29 31 30 25 15 13 12 14 16 18 21 24 28 30 29 29 27 28 34 40 39 28 26
38 32 29 27 29 29 27 24 21 19 18 18 20 25 20 15 14 10 9 9 18 20 18 13 14 14 16 17 18 20 23 27 30 31 29 27 27 31 38 35 30 24 24
37 33 31 29 29 26 23 22 19 16 16 19 22 28 20 17 13 11 11 10 14 15 14 15 16 17 18 18 18 21 24 28 28 31 26 21 22 22 20 20 20 21 21
41 38 35 31 32 26 23 20 17 16 17 19 25 27 22 19 16 14 14 14 16 16 17 17 18 18 18 18 18 20 25 27 27 26 25 20 19 19 18 17 16 16 16
48 47 42 37 34 30 25 22 18 16 17 20 25 27 23 21 19 16 15 16 17 17 17 18 19 19 19 19 19 20 21 24 26 26 23 19 19 19 19 18 18 17 16
51 52 48 45 37 31 29 27 22 19 18 21 23 26 25 23 21 18 17 17 17 17 17 18 19 19 19 21 22 22 24 26 28 31 28 27 27 26 25 22 21 20 20
56 53 50 50 44 35 31 26 25 25 25 26 25 26 25 24 20 19 18 18 18 19 20 21 22 23 23 24 25 26 28 31 33 32 32 31 30 31 32 32 31 28 24
63 54 52 50 49 41 34 28 24 26 30 30 31 33 30 29 24 25 23 22 23 24 24 25 25 26 26 26 27 28 30 32 32 33 35 33 32 33 34 34 34 34 32
67 58 53 52 50 45 37 31 26 26 32 36 33 32 33 28 25 26 26 26 27 27 28 29 29 29 29 29 29 30 30 33 34 36 37 35 34 35 35 35 35 34 35
72 67 60 55 52 48 42 34 30 26 29 35 37 35 32 29 28 28 27 27 28 28 29 30 30 30 30 31 30 30 31 33 37 36 37 37 37 38 37 35 33 33 34
77 70 66 62 55 51 47 40 34 29 27 30 34 35 37 38 31 30 29 29 28 28 29 30 30 29 29 30 30 30 32 34 36 36 37 37 38 37 35 34 32 32 33
81 78 75 66 61 54 51 46 39 35 31 31 33 36 40 40 38 33 29 28 28 27 27 27 28 28 28 28 29 29 32 33 34 38 38 39 38 35 33 35 36 35 33
81 86 77 71 64 60 58 50 47 41 39 37 37 39 42 40 37 33 32 30 27 25 25 25 26 29 30 30 32 32 34 36 39 39 38 40 41 38 36 35 35 36 34
87 82 76 67 64 63 63 55 55 51 44 41 40 40 44 44 43 39 35 32 29 28 28 27 27 27 30 33 36 37 38 39 40 40 39 41 40 39 39 39 38 36 34
82 85 85 78 76 68 65 59 52 52 48 45 43 43 44 48 46 43 38 32 31 29 27 26 27 31 32 34 36 38 38 38 40 42 41 39 40 42 41 40 38 38 35
81 79 80 80 71 67 64 63 57 55 53 49 46 45 44 46 48 44 38 36 35 34 33 33 33 32 33 37 37 36 38 40 43 46 45 44 42 41 41 41 38 37 38
70 73 74 75 75 73 68 64 60 58 55 52 49 44 47 51 46 44 42 39 40 40 38 37 36 35 34 36 36 39 47 47 49 49 45 46 46 44 39 35 31 32 38
59 64 65 67 65 63 60 61 67 65 57 49 46 53 53 49 50 50 47 46 46 45 44 41 39 39 44 48 53 53 53 52 53 49 47 46 45 47 41 36 31 33 38
56 58 58 57 59 58 57 60 65 64 61 60 60 52 51 52 54 54 54 54 52 51 47 45 45 46 46 49 49 49 50 50 52 51 42 40 41 44 41 37 35 36 37
59 60 60 57 57 59 60 62 66 71 70 74 66 59 59 61 62 59 56 55 53 50 49 48 52 54 50 51 46 44 43 43 43 42 39 42 40 40 40 35 35 36 37
63 60 61 65 61 59 62 62 61 63 67 66 70 67 66 62 62 58 55 52 52 50 49 49 48 45 43 42 44 45 42 39 36 38 40 40 39 41 41 36 36 37 37
62 63 65 66 65 64 63 63 62 62 64 65 66 66 66 65 63 57 53 51 49 48 46 44 42 42 41 39 41 45 47 46 42 44 42 42 41 41 43 40 38 38 39
63 62 64 67 68 65 61 57 56 56 60 64 65 66 66 61 58 54 50 47 45 43 41 39 37 36 36 37 36 36 39 44 49 43 38 42 41 43 44 41 42 44 45
62 63 66 64 62 60 61 59 60 60 61 60 64 64 62 55 51 51 51 48 43 40 38 36 35 34 32 32 33 32 34 38 41 41 43 34 43 43 51 44 49 49 49
63 66 65 64 63 63 60 58 61 62 60 63 63 61 55 53 54 52 49 47 45 43 41 38 36 35 34 32 32 31 36 38 36 39 38 37 41 50 56 59 47 53 47

GFSSE_prec_cthk_075.txt.gz
RH
47 34 34 34 32 31 31 30 28 23 20 18 22 24 18 24 35 47 53 56 55 52 39 20 11 9 11 15 15 20 23 24 25 25 25 24 27 33 35 32 24 22 21
43 34 32 32 30 32 32 27 24 21 18 19 22 25 11 14 21 29 36 40 37 35 24 11 10 12 16 18 21 23 24 25 24 24 26 26 32 37 32 25 21 22 25
40 35 31 29 30 30 27 23 21 20 18 20 24 14 12 10 9 11 18 26 25 18 11 13 13 15 17 20 23 24 24 24 22 20 23 26 27 23 20 20 18 20 22
37 33 30 30 27 26 24 20 17 18 19 25 21 15 14 11 11 10 10 18 15 13 14 15 15 17 18 21 24 25 24 24 23 22 19 18 17 17 16 16 15 16 17
36 32 31 30 27 24 22 18 16 17 20 23 18 16 14 12 12 12 12 13 14 15 16 17 17 17 18 21 24 25 25 22 22 20 18 18 18 17 17 18 17 17 16
41 40 37 32 29 26 21 17 16 17 20 22 21 19 17 15 15 15 15 16 16 16 17 17 17 18 18 20 23 24 26 26 25 25 25 25 26 25 25 24 22 20 19
48 49 47 42 32 26 24 20 18 18 20 21 22 20 18 17 16 16 16 16 16 16 16 18 19 21 23 24 24 26 27 28 28 29 28 28 29 30 30 30 29 28 26
53 53 52 50 40 31 26 22 23 23 22 22 23 22 18 18 17 17 16 17 18 19 20 22 23 24 25 26 26 28 30 30 30 31 31 31 31 32 33 34 32 31 29
60 55 54 51 46 40 30 25 24 27 30 29 28 28 23 22 22 21 21 22 23 24 25 26 26 27 27 28 28 29 30 31 31 33 33 33 34 34 35 34 33 31 30
69 61 57 53 50 44 38 29 26 27 29 32 35 33 27 25 24 24 24 24 25 26 27 28 29 28 29 30 30 30 30 32 33 33 34 35 35 36 36 33 32 30 29
73 66 59 55 53 48 42 36 29 29 29 31 36 37 32 30 28 27 27 26 26 26 28 29 29 29 28 29 29 29 29 31 32 34 35 36 36 36 34 32 30 31 30
79 71 65 62 57 52 46 41 35 29 28 31 33 35 35 33 32 30 29 29 28 27 26 28 29 29 28 28 28 27 29 31 32 34 36 36 36 37 37 36 34 33 31
87 79 71 68 61 55 49 46 41 35 28 28 29 32 38 38 35 32 30 29 27 26 26 25 25 25 26 26 27 28 28 31 34 35 36 35 36 39 38 40 39 36 34
91 82 83 73 69 61 54 51 49 45 39 32 31 33 38 40 41 36 32 30 27 25 24 23 23 24 24 26 28 29 31 34 36 36 36 37 37 39 40 41 42 39 35
82 84 83 80 72 69 62 56 52 52 49 42 38 35 36 40 40 39 38 34 30 27 25 24 24 23 24 26 28 30 32 33 34 35 38 39 39 39 41 41 42 41 38
77 80 78 83 78 77 71 63 59 60 55 50 47 43 39 39 41 43 42 38 34 29 28 27 27 29 30 30 31 34 34 32 35 38 41 42 43 43 44 44 46 44 39
74 85 88 84 78 78 76 72 64 61 60 54 51 49 46 41 41 44 45 40 38 35 33 34 34 35 35 35 33 33 33 37 44 44 46 46 44 44 44 46 46 42 37
63 73 79 92 88 83 77 73 68 61 61 58 56 56 50 44 39 44 44 44 43 43 43 41 40 38 37 37 38 42 47 48 49 50 51 52 51 49 46 45 45 41 36
59 62 69 79 86 79 75 75 73 68 62 64 61 60 53 45 45 46 46 48 50 49 49 48 46 44 44 45 45 47 49 48 50 50 49 52 51 48 46 47 42 41 37
66 58 57 64 72 73 70 67 65 61 61 67 66 59 56 53 52 48 50 53 56 56 56 52 51 50 49 50 50 49 43 42 44 42 43 42 42 45 47 45 44 43 37
63 62 61 59 60 63 68 66 65 61 61 65 68 75 74 73 63 58 59 57 59 59 57 56 54 52 51 50 47 42 39 36 36 35 36 37 41 46 42 43 46 43 36
59 64 67 63 64 58 57 59 65 71 69 70 73 75 76 79 77 72 66 64 61 58 56 54 52 50 47 46 46 45 42 37 35 35 36 36 42 46 45 44 44 41 37
59 60 62 65 68 68 60 62 65 68 70 67 67 66 69 72 70 69 69 68 66 60 56 52 51 48 47 44 43 46 46 44 41 42 42 42 45 45 46 47 46 41 37
59 62 63 65 67 73 69 66 68 66 65 60 60 63 65 67 68 68 65 64 59 60 60 58 54 49 47 41 39 38 41 45 48 46 40 41 44 44 42 43 37 42 42
56 62 64 66 69 68 75 74 71 69 65 66 65 63 62 62 65 63 61 61 59 57 54 49 46 44 44 41 39 37 36 38 39 43 47 40 42 43 40 42 42 46 51
58 62 65 66 67 69 69 70 68 69 71 71 65 62 59 60 63 61 62 61 57 54 50 46 43 41 40 39 38 38 36 36 36 40 44 45 42 41 48 51 56 54 56

GFSSE_prec_cthk_078.txt.gz
RH
41 41 41 35 33 31 30 28 27 21 21 21 15 22 34 41 53 58 59 57 53 50 21 10 10 12 13 17 21 24 25 24 23 23 27 33 35 28 21 21 22 23 23
39 41 37 35 33 31 32 27 23 19 23 28 18 17 30 42 48 53 54 48 43 28 9 11 14 16 17 20 21 22 21 22 21 23 26 26 24 20 18 18 20 24 26
40 40 37 34 34 35 28 22 20 19 23 28 16 12 18 26 32 39 37 29 21 11 12 14 16 18 19 21 22 24 21 20 20 21 20 18 17 16 16 16 17 19 23
39 39 37 35 34 31 24 19 18 20 24 22 14 12 9 10 13 18 21 18 12 13 14 15 17 19 20 21 21 23 22 20 18 17 17 16 17 17 17 17 17 16 17
40 38 36 36 33 26 20 17 17 21 28 18 15 12 11 10 10 11 11 12 14 15 16 16 16 18 19 20 22 24 24 25 24 23 23 24 24 24 24 24 22 20 18
38 37 39 38 34 26 20 17 17 21 22 18 16 14 13 13 14 14 15 15 15 15 16 16 16 18 21 24 25 27 26 27 27 26 27 27 28 29 29 29 27 26 25
41 41 42 41 34 28 22 18 18 20 21 20 17 16 15 15 15 15 15 15 15 15 17 19 21 22 23 25 26 27 28 28 28 30 29 30 31 32 33 33 31 28 27
47 50 49 46 35 28 24 22 22 22 22 23 18 17 16 16 16 16 16 16 17 19 21 23 24 25 25 26 27 29 30 30 30 31 32 32 33 34 34 34 32 30 28
56 58 56 53 42 34 26 25 26 29 27 26 23 20 19 20 20 20 21 21 22 23 24 26 26 26 27 28 28 30 29 30 31 32 33 34 34 34 34 32 30 29 28
61 63 62 58 49 42 35 30 29 31 33 34 31 26 23 23 23 23 23 23 24 25 27 28 28 27 27 27 27 28 28 30 31 32 33 34 34 33 32 32 32 31 30
74 71 65 59 55 48 42 38 35 34 33 34 36 32 30 29 27 26 25 24 24 24 25 27 28 27 27 26 26 26 27 29 31 32 34 34 33 33 36 36 36 35 33
87 78 73 63 59 55 47 41 40 37 34 33 35 33 34 33 32 31 29 28 26 25 24 24 25 25 25 25 25 26 26 28 31 34 35 34 34 35 38 39 39 39 38
92 91 78 70 64 60 53 47 41 43 39 34 33 33 34 36 36 35 34 31 29 27 26 24 23 23 24 25 25 27 29 31 33 35 35 37 38 37 38 39 39 39 41
90 94 88 74 69 66 60 54 47 44 42 41 33 32 34 36 38 39 37 34 30 27 27 26 25 23 24 25 28 29 31 33 34 34 35 37 39 41 41 41 41 42 41
66 85 93 86 74 69 65 60 56 52 48 43 39 36 36 35 36 39 40 39 36 31 27 27 27 26 26 27 27 28 30 32 33 34 36 40 43 45 46 45 44 43 43
68 73 78 89 86 74 67 65 63 60 58 55 50 44 40 39 37 37 41 42 41 37 32 31 30 29 31 32 31 31 32 32 32 37 44 45 47 48 49 49 50 46 44
74 76 72 71 89 86 82 73 67 64 61 59 56 52 48 44 42 40 39 42 44 42 39 37 34 34 35 34 34 35 35 38 42 45 45 49 50 50 52 51 48 49 46
84 83 77 76 73 84 92 86 77 72 72 68 64 58 54 53 50 43 39 42 44 47 47 47 46 44 42 41 40 40 41 42 46 46 46 47 46 50 49 47 44 51 46
77 79 79 77 69 62 72 80 86 77 73 68 65 62 62 61 56 47 42 46 46 48 51 51 51 51 50 47 46 47 47 47 45 41 41 41 43 46 44 46 49 46 42
71 73 76 78 71 69 82 89 82 79 75 72 62 60 62 64 57 52 49 50 50 52 55 54 54 55 54 53 51 50 47 41 42 37 35 36 41 44 43 46 47 43 41
61 65 72 76 79 72 73 76 72 67 65 66 66 61 62 64 66 69 60 57 56 56 58 57 58 59 57 55 53 49 43 40 37 36 35 35 37 41 48 52 47 46 42
52 57 65 65 66 72 69 66 64 66 64 67 73 73 71 72 73 75 74 75 70 64 65 63 62 60 60 57 53 52 48 42 38 36 37 37 39 43 47 50 52 51 48
52 54 56 62 62 63 66 72 69 69 63 69 71 75 79 77 71 74 72 72 72 75 75 68 63 63 62 62 60 60 57 52 45 42 46 45 46 47 47 53 51 49 41
51 54 58 61 68 73 72 72 76 74 69 69 74 77 79 78 76 73 73 68 65 63 65 65 63 62 59 56 51 51 50 51 50 48 44 41 44 46 46 54 51 44 46
48 50 56 62 69 75 79 80 80 89 87 81 79 79 80 80 77 72 69 68 61 60 60 63 60 56 54 50 46 42 41 40 42 45 43 39 41 46 50 51 49 44 45
45 49 52 54 60 67 77 80 83 83 86 88 81 77 76 77 79 78 75 72 69 69 66 64 62 58 54 49 46 43 41 40 41 41 43 45 43 43 47 48 47 52 51

GFSSE_prec_cthk_081.txt.gz
RH
43 42 43 37 39 38 30 28 23 21 15 19 23 27 34 44 46 60 59 55 52 35 10 9 11 13 19 21 22 21 19 21 25 29 28 25 18 16 17 19 21 23 22
40 41 42 38 37 34 30 27 21 22 19 19 27 34 44 53 58 58 54 50 43 11 9 12 14 17 19 19 19 18 18 20 23 23 20 18 16 16 22 23 21 24 24
42 41 42 39 36 35 34 25 21 23 27 15 24 38 44 48 52 55 45 31 15 10 14 15 16 18 19 19 16 16 17 18 19 17 16 16 16 16 16 16 17 23 26
44 41 40 40 41 37 28 23 22 24 21 14 17 26 33 37 40 36 24 17 11 14 15 16 17 18 18 18 17 18 19 20 20 21 21 22 22 23 23 22 21 20 22
46 43 40 43 45 34 27 23 23 27 20 14 11 11 14 18 20 18 16 12 14 15 15 15 16 17 20 20 22 22 24 24 24 25 26 26 27 28 28 27 26 25 23
48 45 43 49 40 34 24 24 25 28 17 14 12 11 10 10 11 12 14 15 15 15 14 15 18 21 23 23 24 25 25 26 26 27 28 30 30 31 32 31 30 27 25
50 48 44 46 39 30 24 24 32 26 18 16 14 14 13 14 14 15 16 16 15 15 17 19 21 23 24 25 25 26 26 27 28 30 31 32 32 32 32 31 31 29 27
49 47 46 49 38 30 25 26 32 29 23 18 16 15 16 16 15 15 16 17 18 20 21 22 23 24 24 25 26 27 28 28 30 32 32 32 32 32 31 30 29 29 29
51 50 50 49 39 30 27 29 32 32 26 22 19 16 16 17 17 18 20 21 23 24 24 25 25 25 25 26 26 27 28 29 31 32 32 34 33 32 32 32 31 30 30
60 58 57 53 44 34 29 30 33 36 32 26 24 21 20 21 21 22 22 23 24 24 25 26 26 26 26 26 26 26 26 28 31 32 33 34 32 32 33 36 35 34 33
74 66 63 59 50 43 36 33 37 38 38 37 35 29 27 26 25 25 25 24 24 25 25 26 26 26 26 25 25 25 26 27 30 33 34 35 33 34 34 36 37 36 36
81 72 68 63 56 50 44 40 41 41 41 40 38 35 35 34 32 31 29 28 27 26 26 25 25 25 25 24 24 24 26 28 31 34 35 35 36 37 37 37 38 37 38
82 80 81 73 62 58 52 46 46 45 42 41 40 36 35 37 37 36 35 33 31 28 27 25 24 24 24 25 25 25 27 28 31 33 34 34 36 38 39 41 40 39 39
67 78 84 82 74 65 60 54 51 50 48 46 44 40 35 35 38 40 40 37 34 31 29 26 26 25 25 25 27 28 29 30 31 32 33 34 39 43 44 45 44 42 40
68 62 71 79 86 76 67 63 58 52 54 53 50 46 41 40 39 38 39 39 39 36 34 29 28 28 27 28 30 31 30 31 32 31 32 40 45 47 49 51 50 48 44
71 71 71 77 91 87 76 69 65 61 55 52 51 48 46 44 42 40 38 39 42 42 38 36 33 32 33 33 34 34 34 34 35 38 43 45 45 49 51 53 52 48 44
71 78 73 72 80 81 88 81 72 69 67 62 58 56 54 50 47 46 44 40 38 43 42 41 40 39 38 38 39 40 40 41 44 45 45 45 47 46 46 50 50 47 47
68 71 73 79 79 75 79 89 83 79 73 68 64 63 62 59 56 52 49 46 40 41 45 46 47 47 46 45 45 45 45 44 46 48 47 45 44 44 44 51 52 47 48
71 69 70 72 85 82 79 78 77 79 82 78 70 69 67 63 61 61 57 51 46 42 47 48 52 51 51 52 53 51 50 50 49 47 44 42 42 43 45 46 51 47 53
76 73 81 76 84 84 80 79 72 77 77 82 76 72 74 68 64 62 63 59 52 46 49 50 52 50 54 55 56 56 54 51 49 44 40 40 38 38 43 46 47 50 52
80 88 86 90 90 84 82 81 73 75 80 79 75 72 67 67 65 59 64 65 63 57 54 53 51 56 58 56 58 59 57 54 48 44 40 38 37 39 42 45 46 48 54
71 76 80 84 76 79 74 69 69 79 85 84 78 75 72 73 74 72 67 69 73 75 71 71 69 65 63 62 59 60 58 55 53 49 47 44 42 42 46 49 49 52 57
57 64 69 70 70 76 82 89 87 89 90 87 86 82 79 78 74 82 82 78 78 78 78 78 75 73 70 70 70 65 62 58 54 53 50 48 46 48 48 48 49 51 56
50 51 54 66 71 73 76 82 84 86 87 90 91 90 89 85 85 90 89 88 90 91 84 73 66 63 62 66 66 65 59 57 54 48 45 44 44 43 45 47 50 51 55
52 51 52 60 65 69 72 75 77 81 87 87 93 87 91 95 95 95 92 88 86 85 81 77 75 72 72 70 66 61 56 52 49 51 47 42 42 43 45 48 51 52 55
44 49 52 54 57 58 59 70 74 77 81 82 85 83 82 89 89 89 84 83 83 83 82 78 76 68 62 60 57 56 54 53 51 50 50 49 48 47 48 48 50 50 47

GFSSE_prec_cthk_084.txt.gz
RH
44 44 43 39 35 37 32 27 21 20 21 21 16 20 27 31 41 58 58 53 45 18 9 10 14 18 21 19 18 19 22 22 21 19 17 16 17 23 22 23 24 22 21
41 43 43 38 37 38 33 28 24 19 23 24 24 31 39 45 61 56 55 49 29 9 11 13 16 17 17 17 17 18 18 18 17 16 15 15 15 16 18 21 25 24 23
42 43 45 39 39 38 32 26 26 20 26 29 37 42 54 63 63 54 47 27 9 12 14 15 16 15 15 15 16 16 17 17 17 18 19 19 20 20 20 20 21 28 28
45 44 44 42 39 38 32 24 29 32 22 33 42 48 55 54 54 42 23 11 13 15 15 15 15 15 16 17 19 19 20 21 21 22 23 24 25 25 25 25 24 24 25
49 45 43 42 42 38 28 24 31 28 20 26 38 42 44 43 37 25 17 13 15 16 15 15 16 18 20 21 22 23 23 23 24 25 26 27 29 29 29 28 26 25 24
53 48 46 46 49 37 27 25 31 26 18 17 22 26 29 28 22 18 14 15 15 15 16 18 20 22 23 24 25 25 25 24 25 27 28 29 30 31 30 29 28 26 25
57 52 50 54 47 34 27 27 32 23 18 14 13 12 13 14 13 15 16 16 15 17 19 22 23 24 24 25 26 26 26 27 27 29 30 30 30 30 29 28 28 28 27
58 53 55 52 42 31 28 32 33 24 19 15 14 14 17 15 16 16 16 17 19 20 22 23 24 25 25 26 26 26 26 27 29 30 31 31 31 30 30 31 30 30 29
63 54 56 53 40 31 30 37 35 29 22 18 17 16 17 16 16 17 19 21 22 23 24 24 25 25 25 26 26 26 26 27 29 30 31 32 30 30 31 34 33 32 31
63 58 54 51 38 31 31 37 39 34 28 22 18 17 17 18 20 22 24 25 25 26 26 26 26 26 26 25 25 26 26 26 28 31 32 33 31 32 32 34 34 34 33
68 62 57 45 39 33 31 36 42 39 35 29 25 21 21 22 23 23 24 25 25 26 26 26 26 26 25 24 24 24 24 25 27 30 33 34 33 34 35 35 35 35 35
70 67 60 51 43 35 33 37 43 46 43 38 35 31 29 28 28 28 28 28 28 27 26 26 26 25 24 24 23 23 24 25 27 29 31 33 33 34 36 37 38 39 39
76 68 66 59 51 44 37 37 41 44 49 45 41 38 36 35 34 34 33 33 31 30 28 27 26 25 24 24 24 24 25 26 28 30 31 31 33 36 39 41 42 43 43
87 77 67 64 61 54 48 41 42 46 47 47 45 42 39 37 37 38 38 38 37 35 32 28 27 27 26 27 27 29 30 31 32 33 32 32 37 42 44 45 46 46 45
76 83 79 72 66 62 60 55 48 49 50 50 50 50 46 42 39 38 38 39 39 38 38 34 30 30 30 30 31 32 32 32 33 33 35 40 44 46 47 50 48 46 44
80 79 75 74 62 63 66 66 61 56 54 58 57 54 51 47 48 45 41 38 36 39 42 41 37 35 34 35 36 37 36 36 37 39 43 46 46 48 48 48 47 46 42
83 90 82 75 72 64 65 72 69 63 62 58 55 53 51 49 50 50 47 43 40 39 39 46 43 41 42 41 42 41 42 43 44 45 45 45 47 46 45 43 41 50 49
85 82 83 79 71 75 68 70 76 72 68 69 67 61 60 57 57 55 53 52 50 46 42 42 48 48 49 48 49 48 47 46 46 49 47 45 44 44 42 44 42 49 54
82 82 84 81 71 74 80 80 76 72 72 72 68 66 66 64 64 65 63 60 57 54 50 47 49 53 54 53 52 54 56 55 53 51 45 44 42 41 42 42 45 51 58
81 82 78 77 72 78 79 81 78 77 73 74 72 73 75 72 69 69 68 67 65 62 59 56 52 55 55 53 56 58 55 59 56 52 48 47 43 41 41 41 43 49 52
84 83 80 83 83 85 79 79 78 75 75 79 78 78 78 75 71 73 70 68 67 67 68 66 62 60 56 55 58 57 57 57 57 54 50 46 45 42 43 45 48 50 47
86 90 92 81 78 78 69 73 81 79 77 75 79 87 87 82 77 77 76 75 72 72 72 73 73 69 66 64 62 62 61 60 58 55 52 50 45 45 46 46 47 49 49
80 81 81 79 75 83 72 83 93 90 88 89 88 98 93 89 86 85 88 88 85 85 86 84 82 80 77 74 75 76 75 69 66 65 61 58 54 50 47 44 46 44 49
68 69 71 68 72 77 82 86 81 87 88 87 83 81 87 97 93 94 97 93 95 97 96 92 88 86 87 85 78 74 74 73 69 59 56 54 53 49 49 47 46 50 52
57 57 58 58 59 63 65 73 78 80 77 76 78 82 86 85 89 91 89 98 98 94 93 90 89 89 89 84 79 70 64 61 58 54 49 45 46 47 50 51 51 54 56
54 54 54 53 54 54 59 68 74 74 74 79 83 89 85 81 83 83 82 87 89 89 91 91 89 86 79 74 69 67 65 61 57 55 51 50 48 50 50 53 55 55 56

GFSSE_prec_cthk_087.txt.gz
RH
47 47 48 46 37 32 29 25 21 21 19 15 15 21 31 41 42 53 53 48 25 13 11 19 23 19 16 17 19 20 18 15 15 14 14 21 20 19 22 22 21 21 20
43 46 50 44 35 34 29 24 21 27 25 22 16 26 38 36 52 53 53 38 18 11 16 22 19 15 15 16 17 16 16 15 15 16 16 16 17 17 19 23 26 25 24
46 48 51 42 38 37 29 23 22 25 30 28 34 40 41 65 59 54 46 18 11 13 19 17 16 15 15 16 17 17 17 18 19 19 20 21 21 22 22 23 22 27 26
49 50 49 44 41 38 30 24 22 26 33 42 46 56 65 64 58 50 20 11 14 16 16 15 14 16 17 19 19 20 21 22 22 23 24 25 26 26 26 25 24 23 27
53 51 48 48 42 37 27 29 29 28 34 45 56 68 66 62 48 21 12 15 16 16 15 16 18 19 21 22 22 22 23 23 24 25 26 27 28 28 27 26 25 24 23
58 55 50 49 43 36 25 33 31 23 35 45 54 64 63 47 29 19 15 17 16 16 19 20 21 23 24 24 24 24 24 24 25 27 28 28 29 28 26 26 25 25 25
62 57 53 52 50 35 26 33 30 22 26 35 39 44 41 31 23 18 16 17 17 19 21 23 23 24 25 25 26 25 26 26 27 28 29 29 29 28 28 28 27 26 26
63 59 57 60 50 34 28 35 31 21 17 19 22 24 24 19 16 16 16 17 19 21 23 24 25 25 25 25 26 25 25 26 28 28 29 29 28 28 30 31 30 29 28
64 59 64 67 48 32 31 38 30 22 17 15 14 16 15 16 16 16 17 19 22 23 25 25 26 26 26 26 26 25 25 26 28 29 30 30 29 29 30 31 30 30 29
68 62 64 60 42 32 36 40 33 25 21 19 19 26 18 16 16 18 21 23 24 26 26 27 27 27 26 26 25 25 25 25 27 30 32 32 31 31 32 33 33 33 33
79 69 66 57 40 35 40 41 37 30 26 22 21 20 18 18 20 22 23 25 25 26 26 27 27 26 25 24 24 24 25 25 26 28 30 32 31 31 33 34 36 37 37
79 73 67 56 41 35 39 42 40 36 30 28 23 22 23 22 23 23 24 26 26 27 27 27 26 25 24 23 23 23 23 24 25 27 27 29 30 31 34 37 39 40 40
93 78 66 54 43 35 36 43 43 40 34 31 32 28 27 27 29 29 29 30 30 29 29 27 26 25 24 23 23 22 23 25 27 29 29 29 30 32 37 40 43 44 43
93 81 70 55 42 37 37 41 44 46 44 39 39 36 35 34 35 36 36 35 34 34 33 30 28 26 25 25 25 26 27 29 29 30 30 31 34 38 40 41 44 46 46
90 82 77 59 47 41 39 40 46 49 49 46 45 43 40 39 39 40 40 40 40 38 37 37 33 29 29 29 29 31 31 31 32 32 33 36 41 43 43 43 43 42 42
89 84 78 72 61 55 44 45 44 44 48 48 46 45 44 43 43 43 43 42 40 38 39 41 42 38 36 34 34 36 37 38 37 38 41 42 44 44 42 42 42 39 41
90 87 77 73 69 65 64 55 49 48 45 47 48 50 51 51 49 49 49 47 45 42 42 40 43 46 43 42 42 42 42 42 43 42 42 43 42 43 41 39 43 42 41
90 88 81 77 74 76 73 75 60 55 55 55 53 53 53 53 50 49 49 50 51 50 48 46 44 45 49 49 51 50 50 49 48 48 49 46 42 41 41 43 42 44 45
87 88 81 90 87 83 77 81 72 63 63 63 64 63 67 67 61 59 55 56 57 57 55 54 52 52 51 54 55 52 51 52 51 52 52 50 49 46 43 42 44 44 45
85 81 83 83 82 76 79 79 72 68 68 66 69 70 71 73 70 69 66 66 69 65 65 61 59 60 60 55 56 54 54 53 55 54 52 50 46 44 42 42 42 43 47
83 77 80 86 79 76 78 80 77 73 73 73 73 75 78 76 76 77 74 72 72 70 70 68 66 69 71 65 59 54 54 55 53 53 54 51 46 45 43 43 44 45 48
81 84 89 81 86 77 74 73 71 75 82 83 83 80 79 79 84 89 87 83 80 80 78 77 72 73 75 74 67 65 57 56 56 61 63 63 62 57 53 54 52 52 52
88 88 94 91 82 79 77 78 74 83 81 82 86 85 84 85 86 95 94 90 85 88 92 94 92 90 89 85 81 87 84 76 71 71 69 66 62 59 56 52 49 49 50
92 86 82 85 84 91 84 89 86 85 82 82 82 82 85 84 86 89 90 96 94 97 99 98 99 96 90 87 86 88 91 90 80 70 64 60 57 56 51 48 48 44 50
84 80 80 91 92 87 92 92 93 91 91 91 92 88 91 94 92 90 83 88 94 92 90 92 95 94 92 92 90 88 85 74 68 65 62 58 53 51 50 49 51 51 53
70 68 64 64 69 68 70 76 78 79 83 84 82 85 90 89 87 85 84 88 87 84 82 85 87 91 89 90 87 84 74 70 69 68 64 61 58 52 51 51 52 53 56

GFSSE_prec_cthk_090.txt.gz
RH
52 53 49 44 40 34 30 26 22 18 17 17 17 22 34 48 53 52 51 40 20 18 17 21 20 22 19 22 20 16 14 13 14 17 17 15 17 21 19 20 24 23 22
48 53 50 48 40 34 30 25 20 19 17 19 18 22 34 44 50 52 50 24 18 15 21 22 18 16 18 19 15 14 14 15 16 16 16 17 18 19 20 24 25 22 21
56 53 50 49 39 34 29 23 22 24 22 19 25 29 40 41 52 53 38 19 17 22 23 20 16 16 18 17 16 16 17 18 19 19 21 25 21 22 23 23 25 27 23
59 55 56 50 39 37 29 22 25 28 27 23 34 43 44 58 55 51 23 15 21 24 23 16 16 17 18 18 19 20 21 21 22 22 27 29 25 25 24 23 23 24 29
64 61 57 48 43 40 28 23 25 30 35 45 46 55 68 62 55 28 13 15 23 23 18 17 18 19 20 20 21 22 22 22 23 24 25 27 28 26 24 24 22 23 23
67 66 55 49 50 40 27 25 27 37 44 54 64 72 71 61 38 13 14 17 22 20 18 19 21 22 22 23 23 22 23 23 24 26 27 27 27 25 25 25 24 23 23
70 67 56 54 52 41 28 32 29 38 48 58 66 73 70 50 20 14 16 17 17 19 21 22 23 25 25 25 24 24 23 24 27 27 28 30 27 28 29 28 27 26 25
70 67 62 61 54 37 32 38 26 36 49 56 64 65 59 33 20 16 17 17 20 21 23 24 25 25 25 25 25 24 24 25 28 28 29 31 28 29 29 29 28 27 27
74 73 69 67 63 38 34 40 28 31 40 48 51 52 39 25 19 18 17 19 21 23 25 26 25 25 25 25 24 24 24 25 30 29 30 34 29 30 31 31 31 31 31
84 82 75 75 67 41 40 43 29 24 29 32 33 32 24 19 18 17 19 22 23 24 25 26 26 25 25 24 24 23 23 24 27 28 31 32 30 31 31 32 34 35 36
92 90 83 87 74 46 44 49 32 25 21 18 19 20 19 20 18 19 22 24 26 26 27 27 27 26 25 24 23 22 22 23 24 25 29 29 29 29 31 33 35 37 38
98 95 89 93 68 51 48 49 35 30 26 30 30 27 28 26 27 28 24 26 26 26 27 27 26 26 25 23 22 21 22 22 23 25 25 26 27 28 30 34 37 40 41
98 97 96 92 59 51 61 51 43 36 35 33 32 32 30 30 25 25 25 27 27 28 29 28 27 26 25 25 24 24 23 23 26 26 26 26 27 29 33 37 39 42 42
98 92 98 83 55 53 61 54 45 41 37 35 29 27 28 27 28 29 30 31 31 31 32 31 30 28 27 25 26 28 28 29 30 28 29 27 30 33 38 40 41 42 43
96 94 94 76 52 47 52 57 52 46 39 38 35 30 31 32 33 34 34 34 35 35 35 35 32 30 28 29 30 32 34 35 35 34 35 34 36 39 41 41 41 41 40
85 97 92 74 52 45 43 44 45 47 46 41 42 39 39 38 38 38 39 40 41 40 40 39 37 36 37 36 37 36 38 39 39 39 39 41 40 41 38 38 39 42 42
87 96 98 78 59 47 43 43 45 41 42 45 49 50 46 45 43 43 43 45 46 42 42 41 40 40 41 41 41 44 44 44 43 46 44 43 44 40 41 42 41 41 43
91 97 93 87 79 67 54 47 49 46 47 47 48 48 50 49 51 47 51 52 53 49 47 46 45 44 43 46 49 51 52 52 52 50 49 47 49 46 46 43 42 44 46
89 97 98 84 70 73 71 68 69 59 56 58 46 48 52 57 57 53 52 54 53 52 52 52 51 50 51 52 52 55 57 54 51 52 53 55 53 50 48 43 39 40 41
90 93 94 83 78 76 77 76 73 76 72 64 62 59 60 62 63 68 70 72 66 63 64 64 59 56 59 61 61 57 56 53 53 54 54 54 52 48 47 44 42 42 43
96 93 92 94 85 81 76 74 77 77 78 78 70 70 67 65 64 72 81 85 77 71 73 72 72 66 63 66 68 70 65 57 55 56 54 55 56 52 51 49 49 52 56
95 95 92 91 88 81 82 80 80 78 81 83 80 79 74 73 73 77 85 88 90 84 80 81 80 74 68 74 82 85 79 70 61 56 56 54 55 53 52 53 56 52 51
92 91 91 90 86 87 84 83 89 93 88 88 83 82 82 81 82 82 82 86 89 94 98 95 91 84 88 92 91 90 88 83 76 77 74 66 63 61 58 55 53 51 50
91 91 92 95 96 92 88 89 90 94 93 90 84 84 84 83 84 84 84 83 87 85 96 98 94 98 98 97 95 89 90 90 89 85 84 79 70 67 64 59 54 50 48
93 95 97 93 90 93 94 92 91 87 88 87 87 87 85 84 86 87 87 92 86 88 93 88 92 87 95 93 92 91 90 89 88 81 73 74 72 70 65 59 56 53 51
88 84 85 88 90 85 78 89 95 93 87 87 93 93 84 95 91 88 88 90 90 92 91 88 87 84 83 85 85 84 85 87 86 76 73 73 72 70 64 61 56 53 52

GFSSE_prec_cthk_096.txt.gz
RH
45 43 40 41 38 34 31 29 25 25 34 33 29 33 37 41 44 45 41 32 33 30 37 29 29 43 34 16 12 13 15 13 14 14 14 14 16 22 22 21 19 19 21
47 48 45 42 42 38 33 29 24 23 24 30 27 38 41 48 45 49 40 31 36 30 24 20 28 26 13 12 12 13 14 14 15 16 15 17 20 24 23 21 19 20 25
52 49 49 45 46 41 34 31 26 23 21 22 25 36 41 51 48 48 31 35 28 19 17 19 23 14 13 14 15 15 16 19 21 23 21 20 21 23 23 24 26 24 27
52 54 51 51 47 43 37 32 27 23 20 20 21 30 41 52 50 44 25 28 24 18 16 19 17 14 15 16 17 18 20 24 25 25 25 22 22 21 21 24 26 27 26
49 60 56 55 51 44 37 33 27 22 21 21 26 28 47 52 48 34 28 35 22 22 19 17 15 16 17 19 19 20 21 22 24 26 25 23 22 21 20 20 21 22 22
53 63 65 62 58 48 40 34 27 26 26 26 26 33 58 57 48 32 33 30 21 20 17 17 17 18 19 20 20 20 21 24 25 26 25 24 24 24 24 23 22 22 21
53 55 70 65 65 53 45 34 31 30 28 29 35 52 65 67 55 35 31 24 20 18 18 19 19 20 21 21 21 21 22 24 27 29 25 25 25 26 25 24 24 24 24
52 52 68 69 67 59 51 37 35 33 30 37 52 67 69 72 57 45 30 24 19 21 20 22 23 23 23 23 22 22 22 25 27 28 26 25 25 26 26 26 27 27 28
53 58 66 76 71 66 59 38 37 40 37 48 61 70 78 76 54 44 29 25 20 21 23 24 25 25 24 24 23 23 23 27 28 29 30 27 27 27 27 27 29 29 31
55 53 62 82 78 69 66 45 41 47 52 61 71 78 79 72 46 41 29 27 23 23 24 25 26 26 25 25 24 24 24 26 26 27 29 29 28 27 26 26 29 30 32
60 58 57 77 89 79 74 58 46 56 60 66 75 80 79 63 41 35 29 29 24 25 26 27 26 27 26 25 24 23 23 26 26 28 29 28 27 27 26 27 30 32 34
49 64 69 77 94 91 82 72 49 57 65 69 75 85 79 56 38 30 28 29 26 27 27 28 27 27 26 25 24 24 24 24 26 26 27 26 26 25 26 29 31 33 35
52 47 82 74 92 96 89 80 65 45 61 72 77 83 78 55 36 26 24 26 26 27 29 29 28 27 27 28 28 27 27 27 27 27 27 26 26 26 28 31 34 35 35
47 47 62 86 83 93 96 87 74 46 48 62 68 75 71 47 33 26 24 25 28 30 29 29 29 29 29 29 29 30 31 29 31 30 29 29 28 28 31 34 34 34 34
49 46 53 59 80 96 92 98 76 55 41 53 58 62 58 38 30 28 27 27 29 30 30 32 33 33 32 30 31 32 33 34 36 37 35 34 34 32 33 34 35 34 35
55 52 42 49 77 90 86 99 86 68 44 48 51 52 43 32 32 33 30 31 33 34 36 36 35 35 35 34 38 36 37 39 41 41 38 37 38 38 36 36 34 35 40
56 52 44 46 77 86 94 99 90 78 53 46 45 44 36 35 34 34 36 35 36 38 38 38 41 41 40 45 47 42 41 42 46 46 45 46 45 40 40 42 43 42 42
78 67 52 58 69 88 90 98 93 83 64 52 44 40 38 36 33 35 36 37 40 42 42 44 44 43 44 50 48 47 47 50 49 52 56 50 46 48 49 47 45 44 41
95 85 70 72 72 88 96 93 96 86 73 57 47 42 41 37 37 38 40 44 47 47 47 49 47 47 58 50 55 55 52 55 58 58 55 59 57 52 50 46 44 44 44
98 92 83 78 69 74 91 98 97 93 87 71 63 51 44 44 44 47 51 54 53 50 56 51 59 60 64 57 62 68 57 60 62 59 61 62 58 49 44 41 42 42 41
99 98 87 86 78 82 88 90 89 89 93 88 76 74 61 56 54 54 57 56 59 63 66 62 68 68 63 66 71 73 64 67 70 70 72 66 60 54 52 52 50 48 47
96 98 96 89 88 84 73 72 83 81 82 83 79 72 66 63 64 67 68 73 72 74 70 70 72 72 67 79 86 84 79 79 84 87 89 78 71 69 68 68 66 63 63
95 99 97 90 89 84 79 74 74 78 79 74 71 71 73 79 80 79 80 83 80 81 76 78 79 79 74 85 95 92 97 93 92 92 89 87 83 81 79 78 74 72 63
95 99 96 91 95 95 93 91 88 86 85 92 90 87 81 87 89 86 84 85 83 87 82 84 82 82 79 83 85 90 93 95 96 94 88 86 86 83 78 75 74 66 63
98 99 97 95 95 94 98 90 89 76 91 92 91 91 88 94 94 90 88 84 86 85 83 86 87 85 81 81 80 87 89 93 91 87 80 76 76 75 69 65 64 63 60
99 98 99 97 94 94 98 99 96 97 94 92 92 94 96 94 96 94 85 87 82 80 89 91 92 90 83 75 80 82 85 89 90 79 74 72 74 68 58 56 55 50 48

GFSSE_prec_cthk_099.txt.gz
RH
55 46 41 37 36 35 32 30 29 29 30 26 26 25 29 30 38 39 36 27 29 34 36 31 32 36 19 12 14 13 14 14 15 14 14 18 20 22 19 19 19 21 25
51 52 46 41 39 36 35 30 29 30 37 33 26 28 33 36 41 41 36 34 38 41 29 31 32 15 11 12 12 12 13 13 14 15 17 20 24 23 19 19 21 29 36
52 51 52 43 43 40 38 32 27 26 30 34 28 34 40 45 45 45 38 41 44 32 23 28 20 12 12 13 13 15 17 18 18 17 18 21 23 23 23 26 25 27 31
53 51 53 51 44 43 40 36 29 26 25 27 29 34 39 47 48 46 40 36 30 22 22 22 14 14 14 15 16 18 19 20 19 19 20 21 22 21 22 24 23 24 26
49 50 56 55 50 46 42 38 32 28 25 24 27 30 40 48 50 42 32 32 24 18 20 17 16 16 17 17 18 20 21 21 21 21 21 21 21 20 20 21 21 21 23
46 47 49 56 59 52 46 40 35 29 27 25 27 28 42 52 51 35 31 32 19 18 18 17 17 19 20 20 21 21 22 21 22 22 22 23 23 24 23 22 21 21 21
49 52 50 52 61 60 50 46 37 31 30 29 30 29 45 54 53 33 40 30 16 16 17 17 19 21 21 21 21 23 23 24 24 24 23 24 25 25 24 24 24 25 25
48 54 57 53 56 64 53 50 41 35 32 37 37 32 55 59 56 45 41 23 15 20 18 18 20 22 22 23 23 23 24 25 26 26 25 25 25 25 26 26 27 27 28
41 48 56 57 56 60 61 52 45 42 36 40 40 45 64 67 59 53 45 24 22 24 19 20 22 23 24 24 23 23 25 25 26 28 27 26 27 27 27 26 27 28 30
44 47 47 58 62 56 66 60 49 49 43 46 49 60 68 70 66 58 45 28 25 25 21 22 24 24 24 24 24 23 25 26 25 27 28 28 28 27 26 26 28 30 31
71 66 59 49 59 66 62 66 52 52 52 49 57 69 72 74 66 59 46 32 27 21 22 24 25 25 25 24 24 24 24 25 25 26 27 27 27 26 26 26 28 30 31
60 71 80 65 64 62 64 66 65 54 56 60 62 73 79 77 67 59 48 36 29 25 25 26 26 26 25 25 24 23 24 24 24 24 25 25 24 23 23 24 27 29 30
52 62 69 75 75 70 63 65 73 63 62 70 73 79 86 79 61 55 47 42 28 27 27 26 26 26 26 26 25 24 24 26 26 26 25 25 25 24 24 26 29 30 29
52 58 59 68 75 76 69 69 75 74 67 75 78 82 87 74 56 51 46 37 27 28 29 29 28 27 27 27 26 26 27 27 29 29 28 27 27 26 27 29 30 30 29
49 49 55 64 67 69 79 78 78 87 69 73 81 81 83 89 61 49 41 34 28 29 30 29 28 29 30 28 28 28 30 32 34 32 33 31 31 32 31 31 31 30 31
57 51 50 56 57 56 65 75 92 98 89 63 85 79 98 93 68 48 40 31 30 30 32 31 32 32 32 32 32 31 32 36 43 39 37 37 36 34 33 32 33 33 34
69 59 59 53 43 48 59 66 80 95 96 77 62 81 78 73 65 47 36 29 30 33 35 34 35 37 37 36 37 39 42 47 50 45 44 44 40 39 38 38 38 38 37
67 73 65 58 47 39 41 62 74 90 98 87 58 59 70 79 65 35 31 31 32 36 36 38 39 39 39 39 40 42 46 47 56 56 49 50 49 47 44 43 44 41 40
52 64 62 57 50 48 40 45 68 83 96 93 71 56 66 68 50 36 36 35 38 39 40 42 44 42 42 43 44 45 53 55 58 65 59 53 51 55 50 48 45 40 38
43 50 55 61 58 54 50 50 64 96 95 92 80 56 54 50 42 42 39 40 42 44 47 49 48 46 45 50 54 60 62 61 63 73 66 55 61 62 58 56 46 47 48
52 60 81 88 85 79 56 62 87 98 96 94 84 62 52 44 43 42 43 48 49 51 55 53 54 56 60 68 63 69 67 67 72 77 68 68 76 73 69 60 62 63 63
68 88 99 97 97 83 71 85 86 93 95 94 85 63 52 51 50 48 52 55 59 61 61 63 67 68 72 73 76 76 69 71 84 86 83 82 86 85 69 67 71 73 70
79 87 89 99 97 86 86 92 90 97 99 97 93 92 82 73 65 58 60 60 65 68 73 73 79 81 86 81 80 80 71 77 82 85 91 91 93 84 80 78 77 71 69
85 90 92 97 99 94 94 94 95 94 94 96 93 94 91 92 88 84 79 84 85 82 79 74 76 82 87 88 90 81 75 82 87 86 88 93 92 85 77 77 72 65 59
93 94 97 99 99 97 95 90 93 95 92 96 95 95 95 92 90 90 87 90 90 88 83 82 80 81 84 87 85 79 77 78 84 88 88 87 86 85 74 70 62 56 53
92 92 98 99 98 98 95 91 92 96 95 94 88 91 92 90 91 88 89 88 87 89 86 82 82 85 87 87 86 83 80 76 82 85 84 88 87 74 68 67 58 50 50

GFSSE_prec_cthk_102.txt.gz
RH
55 51 47 41 37 34 34 33 31 34 33 30 28 26 26 28 31 31 29 28 28 35 37 37 31 22 16 13 15 16 18 12 12 15 17 20 18 18 18 20 25 25 22
49 48 49 46 41 37 34 34 33 32 32 31 28 28 27 28 31 33 31 31 37 45 38 34 27 14 14 12 12 11 11 12 12 15 18 20 21 19 21 27 33 40 28
50 49 47 47 46 41 38 34 34 32 33 32 30 29 30 31 35 36 33 37 45 39 30 30 15 13 14 13 13 14 14 15 15 17 19 20 22 24 24 24 27 29 32
52 48 46 47 50 46 41 39 35 34 37 37 31 33 39 38 38 41 43 45 43 31 25 22 14 15 15 16 18 19 19 19 18 18 19 20 21 22 20 20 22 23 23
52 52 49 45 50 50 44 41 37 33 32 35 33 34 42 44 42 45 41 38 35 24 21 14 15 16 17 19 19 20 21 21 20 20 20 20 20 20 20 19 19 20 20
47 49 47 44 46 55 51 44 40 35 32 31 35 35 42 47 48 48 41 31 28 20 17 15 16 18 19 20 21 20 20 21 21 21 21 22 22 22 21 20 20 21 21
47 47 47 45 44 54 57 50 42 40 37 32 31 34 42 50 51 49 35 32 26 17 16 16 18 19 21 22 22 22 23 23 23 22 22 24 24 24 24 24 24 24 24
49 50 49 50 49 47 54 52 45 38 38 35 32 36 41 52 54 52 36 37 22 15 16 17 19 21 22 22 23 22 23 24 25 24 24 24 24 25 25 25 25 26 27
55 48 47 52 58 55 51 51 49 40 37 41 37 41 40 56 56 54 47 40 23 16 17 18 20 21 22 23 23 23 24 24 26 26 25 25 25 25 25 25 25 26 27
56 54 45 45 54 57 56 52 50 48 40 47 45 47 43 62 60 61 53 44 34 20 19 20 22 23 23 23 23 24 23 23 24 25 25 25 25 26 25 24 25 27 28
72 65 50 48 47 53 55 53 52 53 48 53 51 51 48 64 65 66 53 46 42 30 21 22 23 24 25 24 23 23 23 22 23 24 25 24 24 25 24 23 25 26 28
80 70 66 64 63 56 50 53 52 55 53 55 55 56 61 68 67 72 57 51 46 36 24 25 25 25 25 25 23 22 22 21 21 21 23 23 22 22 21 22 24 26 27
67 71 75 72 73 74 66 53 54 55 60 55 59 62 67 72 71 75 60 55 49 37 31 26 26 26 27 26 24 23 22 21 21 24 24 24 23 22 21 23 25 26 26
65 59 63 69 71 71 75 71 60 58 61 63 61 69 72 77 76 77 63 56 46 38 36 28 27 27 27 27 26 24 25 23 23 25 28 27 26 25 24 25 26 27 26
53 58 57 58 62 71 74 76 71 62 60 67 73 75 75 81 83 77 66 55 49 42 38 29 28 28 28 28 27 27 26 27 27 29 30 30 31 31 28 28 27 27 27
43 57 61 58 62 60 69 80 78 72 62 65 76 83 86 89 89 79 60 56 56 44 41 31 30 30 30 30 30 30 29 30 32 33 35 38 37 33 31 30 30 31 32
42 50 57 63 65 63 64 70 70 62 67 72 73 80 89 96 92 79 69 67 54 49 42 33 32 33 34 33 34 33 33 35 36 38 45 43 44 42 39 37 37 38 38
46 50 55 61 62 58 61 67 66 63 68 72 76 84 94 92 95 82 66 60 55 48 38 35 35 36 38 39 38 37 38 38 40 44 48 50 53 56 50 45 45 46 42
47 51 53 67 63 59 56 62 61 59 65 66 68 87 91 90 91 93 84 68 52 45 37 39 38 39 42 43 46 44 43 42 43 51 56 55 58 60 56 52 50 47 42
47 52 53 57 61 62 59 59 56 51 59 61 63 81 84 79 85 96 85 61 50 41 41 42 42 45 47 49 50 48 48 50 54 60 64 59 59 65 66 61 59 54 50
49 51 54 52 51 60 56 55 57 52 45 55 61 77 85 79 83 96 91 72 48 42 41 44 48 51 54 56 58 62 65 64 63 74 69 62 65 69 74 70 68 62 65
49 54 56 48 49 58 54 53 53 51 56 53 70 79 89 86 76 76 84 69 47 42 48 51 54 54 60 68 68 72 72 73 72 75 73 69 74 83 83 85 75 67 71
51 65 51 46 44 47 67 72 79 80 72 67 86 86 91 87 76 72 63 52 47 49 54 58 61 67 71 79 82 79 83 81 79 78 74 80 87 85 90 90 82 73 76
44 48 44 41 53 79 89 95 89 87 96 95 85 89 91 82 75 66 57 54 54 61 71 73 74 79 80 78 83 85 87 88 85 82 79 83 87 85 91 89 80 75 72
48 53 54 68 84 91 95 93 88 90 96 97 97 89 88 87 82 78 77 75 72 75 82 89 86 85 88 87 82 82 83 86 86 83 86 83 86 91 94 90 79 75 66
85 89 84 91 91 92 95 92 96 95 98 96 98 97 92 93 94 92 89 92 91 87 84 84 92 90 89 87 83 83 84 86 90 83 81 82 82 89 88 85 79 72 63

GFSSE_prec_cthk_105.txt.gz
RH
50 51 48 45 42 38 37 36 36 34 33 32 30 31 30 31 31 27 23 24 26 32 34 29 24 25 21 23 27 18 12 13 17 17 18 17 18 18 25 26 29 19 18
49 49 50 49 47 42 39 37 35 34 31 31 31 30 29 29 31 26 25 29 35 41 40 31 21 24 20 16 17 13 12 12 14 17 18 18 19 24 28 36 36 30 28
49 46 47 51 51 47 42 38 37 37 34 32 30 30 29 31 31 29 31 35 42 41 34 22 14 18 13 12 12 12 13 15 17 19 21 24 27 24 26 30 27 32 37
48 50 48 47 51 50 47 42 40 38 37 34 31 33 31 32 34 31 40 41 47 36 27 15 12 13 15 15 16 16 16 16 17 18 20 21 23 22 22 22 22 23 22
46 47 47 47 44 48 51 46 42 39 38 40 34 36 39 37 37 38 48 49 44 32 25 12 13 14 17 18 19 19 19 19 18 18 19 19 19 19 19 19 19 19 19
49 50 48 47 45 41 48 52 46 40 42 44 39 37 44 45 46 49 49 44 40 30 16 13 14 16 18 20 21 21 20 19 19 19 19 20 21 20 20 20 20 21 22
51 51 51 47 45 41 42 52 49 44 40 39 42 39 44 49 52 52 49 43 36 29 14 14 15 16 19 21 22 22 21 20 20 20 21 22 23 22 22 23 22 23 24
53 52 53 52 48 44 44 53 51 45 41 38 39 45 43 50 52 55 45 39 33 28 16 16 16 17 19 20 22 22 23 22 21 21 22 23 23 24 24 24 24 24 25
66 59 55 52 51 50 45 48 54 50 44 43 40 42 45 52 53 55 47 37 36 27 18 18 18 19 19 20 22 22 23 24 23 23 23 23 23 24 24 24 24 25 25
72 71 63 55 52 51 52 48 46 52 50 45 43 40 48 53 55 57 49 44 40 31 20 21 20 20 21 21 21 22 22 22 24 23 23 24 24 24 24 23 24 25 25
76 82 74 63 56 52 51 50 48 47 46 47 49 46 52 53 61 59 55 49 44 36 28 22 22 23 22 23 22 22 22 22 22 23 22 23 24 23 23 23 23 25 25
71 83 82 82 71 59 50 45 48 48 45 47 53 53 59 57 62 64 64 51 49 43 36 29 24 24 24 23 23 22 22 21 21 21 20 20 22 22 21 20 22 25 26
57 77 81 77 77 82 68 52 45 47 45 46 56 56 58 60 63 67 70 54 54 48 44 38 30 26 26 25 24 23 22 22 21 22 22 21 22 23 22 22 23 25 25
45 59 77 81 81 78 83 77 65 56 51 50 52 59 58 59 67 71 74 55 56 50 45 43 37 29 28 27 25 25 24 24 23 24 24 23 24 26 25 27 27 27 26
40 50 63 73 71 75 78 77 74 67 61 56 56 58 59 64 71 75 77 63 57 56 50 46 41 34 29 28 28 27 26 26 25 26 27 28 29 29 30 31 29 29 26
37 46 54 59 66 71 79 79 72 68 67 63 58 60 62 67 73 79 80 70 60 53 53 51 47 38 31 30 30 29 29 29 30 31 31 31 33 35 38 36 33 34 34
33 37 49 52 59 73 76 70 72 71 71 68 68 65 64 70 75 80 87 77 66 61 56 55 51 43 33 32 32 32 33 33 34 35 37 36 37 43 45 45 45 44 41
33 35 42 50 54 58 67 70 69 72 73 65 65 66 74 72 80 83 90 90 72 59 58 57 54 44 37 36 36 37 37 38 39 40 40 42 43 48 50 53 54 53 51
33 35 40 47 52 53 60 66 70 72 71 67 65 66 67 70 79 88 94 90 79 69 66 67 60 48 39 39 41 42 43 42 43 42 42 46 50 52 55 57 61 58 55
29 34 40 46 51 52 51 62 62 67 67 65 64 64 68 64 65 90 92 94 87 84 68 62 61 55 44 44 46 46 47 47 47 48 49 51 52 61 60 67 71 68 64
27 32 39 48 52 54 55 52 56 55 59 59 63 67 66 58 63 78 89 91 83 78 77 69 61 55 47 48 51 51 50 52 56 57 58 64 70 67 72 70 68 75 75
27 31 34 43 52 56 57 53 52 52 52 55 55 61 62 60 57 71 85 90 90 82 76 66 62 55 51 54 53 54 58 59 60 63 65 67 69 71 83 80 74 86 83
33 31 34 37 41 52 56 55 51 49 53 52 48 46 54 54 57 67 75 80 88 90 77 71 61 56 55 58 57 62 67 65 70 69 70 71 74 81 84 83 87 88 87
36 40 39 42 40 43 49 51 46 46 50 48 48 48 51 52 57 67 86 87 88 86 77 66 64 61 62 61 65 72 75 75 80 81 81 83 84 87 91 84 89 90 88
44 44 48 45 48 47 44 42 42 46 56 62 67 75 66 69 75 75 84 89 87 93 78 70 75 76 77 77 82 84 87 85 83 84 78 81 82 86 88 94 93 91 93
50 46 44 48 48 43 44 45 43 59 76 82 97 98 97 95 89 96 93 90 86 81 75 84 86 87 89 87 92 91 86 88 86 85 87 89 86 88 91 92 93 98 95

GFSSE_prec_cthk_111.txt.gz
RH
46 51 52 50 46 44 43 39 39 43 43 39 37 36 34 33 34 29 22 23 35 32 26 22 20 22 22 16 14 18 24 20 19 17 15 21 24 27 19 16 17 18 19
45 48 57 56 51 48 47 43 40 38 42 42 38 35 33 32 32 26 23 30 37 34 28 25 30 25 19 16 12 14 15 13 13 13 18 26 31 33 32 33 31 29 29
41 49 53 54 55 55 51 48 44 40 41 41 38 34 32 31 31 26 26 39 40 41 28 21 20 20 15 11 11 11 13 14 13 15 21 26 32 33 33 39 36 30 32
46 53 52 52 52 56 56 53 49 46 41 38 36 35 33 32 31 28 33 44 54 40 26 15 12 12 13 13 14 14 15 16 17 19 18 19 20 20 19 20 20 21 22
45 49 53 54 53 53 56 55 52 47 42 38 35 34 35 33 32 33 39 52 55 40 24 13 11 12 13 15 16 16 15 16 17 17 17 16 17 16 16 17 18 19 20
47 49 51 55 52 51 52 52 51 49 46 41 36 36 37 37 35 40 48 55 51 40 27 14 13 14 15 17 18 18 17 16 17 17 17 18 17 17 18 19 20 20 21
47 50 51 54 55 52 48 47 46 48 52 47 43 40 39 42 44 52 54 58 51 41 28 19 14 15 16 17 18 19 18 18 18 18 19 20 20 20 21 21 21 22 22
50 52 52 54 53 56 54 47 42 44 52 50 48 46 45 47 53 57 58 60 51 41 29 21 18 17 17 17 18 19 19 19 19 20 21 21 22 22 23 23 23 23 23
48 49 52 53 51 53 55 54 49 43 46 49 49 46 48 50 61 65 62 59 52 43 32 24 19 20 19 19 19 20 20 20 21 21 22 22 22 23 24 25 25 25 24
48 53 55 69 62 51 53 53 50 49 49 47 46 46 46 49 55 67 74 64 51 46 37 32 23 22 21 20 20 20 20 20 21 22 22 23 23 23 24 25 25 26 26
50 50 56 60 73 63 55 51 52 50 50 49 47 48 48 47 52 59 67 64 53 44 42 37 32 27 23 22 21 20 20 21 21 22 22 22 22 23 23 23 24 25 26
48 50 53 63 67 76 67 60 54 54 53 48 48 52 51 51 49 52 59 60 57 46 44 42 40 35 31 25 23 22 21 20 21 21 21 21 21 21 21 21 21 24 26
38 48 50 60 67 70 76 75 74 61 57 54 51 51 52 52 53 55 57 60 61 53 48 47 44 40 39 36 28 25 24 22 21 21 21 21 21 21 20 21 21 23 26
28 38 43 50 63 71 87 80 82 78 68 60 55 51 48 52 53 57 60 61 62 58 51 47 45 43 44 42 39 31 27 25 24 23 24 24 23 22 23 23 24 26 27
25 31 38 42 48 59 74 88 86 89 87 77 68 56 49 49 52 57 62 63 64 66 53 48 46 47 45 49 47 41 31 28 27 26 25 27 27 28 29 29 29 27 27
22 24 30 36 42 53 61 72 79 87 90 88 82 73 62 53 53 50 57 64 66 73 59 55 54 52 51 51 53 51 42 33 30 29 29 31 33 34 35 35 34 36 35
20 22 24 29 36 43 54 67 73 82 88 86 88 90 84 76 64 57 58 62 63 71 73 59 53 56 54 53 52 54 50 44 36 34 33 34 37 39 41 43 45 45 46
14 19 21 24 28 35 43 54 66 76 81 88 87 89 85 82 78 73 64 65 68 69 86 71 66 64 62 59 56 55 54 53 44 40 39 39 41 44 46 48 48 50 51
17 16 19 22 25 31 40 46 55 60 71 85 91 90 86 84 82 82 79 78 74 77 81 83 83 74 69 70 64 56 57 58 57 45 41 42 45 45 48 52 54 58 60
20 20 18 20 24 27 34 46 53 56 59 77 87 85 85 83 83 80 82 84 81 86 85 87 85 77 79 75 67 65 67 63 60 55 46 45 45 48 53 58 60 63 63
23 22 19 18 23 28 29 39 52 55 58 61 71 75 84 86 77 78 77 78 81 84 84 82 83 87 80 76 84 76 69 75 67 59 52 49 47 53 56 64 68 69 71
25 21 21 18 20 28 29 34 44 54 57 61 65 69 71 84 80 76 69 68 72 74 73 75 76 75 75 82 84 81 78 77 72 63 64 60 61 66 74 72 71 77 75
26 24 22 21 20 22 30 34 42 53 58 59 60 65 65 75 78 73 66 77 70 70 70 70 73 62 59 64 74 79 83 88 74 68 65 67 68 75 75 78 82 77 80
34 29 25 23 22 20 26 35 42 48 52 54 55 54 53 56 59 60 58 58 65 62 62 65 67 68 69 65 64 80 86 92 83 76 72 76 81 83 87 85 82 83 83
45 38 32 24 23 23 22 31 42 49 50 53 54 52 49 47 46 45 48 52 48 50 50 54 57 58 64 72 67 76 86 88 88 84 82 84 88 88 85 88 90 89 83
49 49 46 32 24 23 23 30 44 48 49 48 47 47 47 46 47 45 43 42 42 44 45 51 59 61 58 62 65 79 87 88 87 87 90 87 90 88 89 89 88 87 90

GFSSE_prec_cthk_114.txt.gz
RH
48 50 53 54 51 47 45 43 45 47 44 43 40 39 36 34 33 28 24 28 33 24 23 18 23 29 20 15 17 22 23 24 18 16 15 26 20 16 16 19 24 24 19
43 49 53 55 55 51 47 49 48 41 42 46 42 40 38 34 31 26 25 35 35 30 26 22 27 22 18 14 17 18 17 16 15 15 25 29 27 26 25 25 24 26 30
35 46 51 56 54 54 51 51 54 46 44 44 42 38 36 33 32 26 26 42 42 35 29 29 25 19 14 13 14 13 12 12 13 22 31 45 42 39 42 37 34 36 35
38 47 53 56 52 50 50 50 51 50 46 46 41 36 34 33 33 28 32 47 51 38 26 20 20 15 12 13 14 14 15 14 17 22 31 30 28 23 23 23 23 24 23
42 49 53 56 58 54 51 50 52 49 47 42 38 35 35 33 33 31 44 60 57 40 24 14 12 12 13 15 16 17 17 18 19 22 24 25 25 18 18 18 19 20 19
45 50 53 53 59 56 55 51 52 49 48 43 38 36 37 35 34 45 51 60 58 42 27 17 13 13 14 15 16 17 18 18 19 23 25 19 25 18 19 20 20 21 21
45 48 53 50 55 58 54 52 52 47 46 49 43 39 39 39 40 46 54 58 57 45 29 22 16 15 16 16 17 18 18 19 20 20 22 23 21 21 22 23 23 23 23
49 50 52 52 51 59 60 54 50 43 42 48 50 48 47 46 47 52 56 60 59 49 32 24 20 18 17 18 18 18 18 19 20 22 22 24 22 23 24 25 25 25 25
47 50 49 55 57 52 61 63 61 52 44 46 48 50 49 53 55 60 62 64 60 51 36 30 23 22 22 20 20 20 20 20 22 23 23 26 23 24 24 24 25 26 26
44 50 49 48 56 61 54 56 62 59 54 51 50 50 50 52 55 65 74 73 67 53 40 36 28 26 25 25 24 23 22 22 24 22 23 26 23 24 24 24 24 25 26
45 49 51 49 51 52 67 61 54 55 58 57 55 57 53 51 51 58 72 78 74 59 49 38 37 33 29 27 26 25 24 24 23 24 26 23 23 23 24 23 23 23 24
40 46 49 49 53 57 64 64 62 60 58 55 57 59 55 58 57 56 62 76 75 62 51 43 41 39 37 35 27 26 26 27 27 24 23 22 21 22 22 22 22 22 24
29 40 46 50 52 56 59 64 65 68 66 64 58 56 60 64 63 58 61 66 67 62 54 50 46 44 41 46 44 33 29 27 28 25 23 22 22 23 23 23 23 24 25
23 27 36 44 48 53 57 65 67 66 72 71 65 60 56 55 62 64 62 64 66 68 62 55 48 51 48 44 47 46 40 31 27 26 26 24 24 24 25 25 26 27 28
18 23 26 34 44 49 56 65 67 67 69 76 76 70 64 59 55 55 59 63 67 71 66 61 52 50 48 48 47 46 49 45 36 31 26 27 28 28 29 29 30 29 28
11 14 24 26 33 41 48 57 67 74 80 80 83 81 72 71 61 55 52 57 63 69 71 70 56 51 53 51 47 50 52 51 48 39 33 31 31 33 33 34 35 39 43
11 10 11 22 27 32 39 48 55 61 82 87 84 87 83 74 75 72 60 60 60 65 69 69 67 53 55 59 50 51 49 53 52 51 46 38 34 35 37 39 40 43 44
13 12 10 11 18 27 33 41 55 59 60 70 77 85 89 88 81 78 80 75 69 63 66 73 67 68 60 58 61 59 55 53 54 56 54 53 45 41 41 43 46 48 50
16 14 13 11 11 17 27 35 45 60 63 65 76 77 88 91 89 89 88 87 79 69 63 65 74 68 81 61 66 67 66 62 61 61 58 59 55 51 47 47 49 52 54
19 17 15 14 12 12 21 29 35 47 60 62 68 82 80 90 88 90 88 88 85 80 77 77 82 85 77 76 81 66 71 73 66 64 63 64 61 58 56 52 53 57 59
22 20 18 16 15 13 14 22 27 36 49 57 57 65 78 81 85 92 90 87 87 85 85 84 85 84 81 82 79 70 75 74 72 71 71 67 66 65 61 54 58 60 60
27 25 23 20 20 18 16 17 21 31 43 53 57 57 61 73 77 84 89 80 85 80 82 84 81 80 79 81 70 71 71 73 72 74 75 71 69 73 68 62 70 79 79
32 28 26 23 20 20 23 22 23 25 43 55 60 62 60 64 71 80 83 85 83 80 76 82 78 75 74 75 65 65 68 64 63 66 67 69 72 74 71 73 80 80 85
47 39 30 25 23 23 24 25 29 26 37 50 59 65 67 64 68 72 77 68 72 71 75 76 73 77 75 71 68 64 64 66 64 66 65 67 79 80 75 81 84 86 85
62 52 41 33 30 28 29 27 26 28 34 46 61 68 71 68 68 73 69 69 63 68 68 70 64 62 69 65 59 59 57 60 61 61 63 77 87 83 84 83 83 83 81
64 62 52 43 34 30 33 31 28 26 35 48 63 68 68 65 63 63 61 58 54 54 56 53 49 48 49 53 58 57 58 64 69 67 61 73 87 86 90 87 84 92 86

GFSSE_prec_cthk_117.txt.gz
RH
48 48 49 52 49 47 43 42 47 47 45 43 40 40 38 35 32 28 25 27 28 19 18 18 24 30 17 14 21 26 30 25 16 15 28 17 16 17 23 31 37 21 18
39 47 50 55 53 50 48 45 50 49 42 45 42 40 39 35 31 26 29 35 31 25 21 25 32 23 15 19 23 23 22 15 14 23 29 25 22 20 20 21 25 31 37
33 43 49 52 53 50 52 51 52 51 44 46 47 38 37 34 32 27 31 40 42 31 29 25 21 16 14 16 17 16 16 14 20 31 44 47 42 42 39 38 46 42 39
36 43 48 51 53 51 48 50 55 55 49 49 44 39 35 34 33 29 36 46 47 35 35 26 19 12 12 14 14 14 14 16 25 32 42 42 38 34 33 24 24 24 23
40 47 46 52 58 51 48 47 47 51 54 53 41 42 34 33 33 30 47 63 56 36 28 20 17 13 13 15 16 17 17 19 22 28 33 31 25 18 18 19 21 20 19
41 50 54 51 56 54 54 49 48 44 47 50 44 41 36 36 33 33 52 63 62 42 27 20 15 14 14 16 17 18 19 21 23 27 25 26 24 17 18 20 21 22 21
40 47 51 58 57 57 57 62 56 48 45 48 46 41 39 38 36 41 54 59 61 48 30 23 17 15 16 17 17 18 19 20 24 26 26 27 20 20 21 22 22 23 23
42 46 51 54 59 54 54 59 63 57 47 44 45 47 46 43 43 50 52 59 63 52 36 27 20 19 18 18 18 18 19 19 23 27 28 29 23 23 24 24 25 25 25
44 50 52 56 56 57 50 56 61 64 53 46 46 51 50 50 53 55 56 63 67 55 41 31 26 22 21 21 20 20 19 20 24 27 28 28 24 25 25 25 24 24 25
40 48 54 54 55 62 62 57 54 61 63 59 51 50 53 51 55 59 66 68 74 63 46 33 34 27 24 23 24 23 21 22 26 26 27 27 23 24 24 25 25 25 25
33 44 51 52 51 53 57 63 65 58 55 59 58 56 56 58 54 53 63 73 76 77 56 40 38 34 31 27 25 25 24 24 27 27 28 24 23 23 23 23 23 23 24
26 35 46 51 52 49 50 53 52 65 65 57 56 58 58 58 59 50 57 68 75 78 68 51 41 43 37 35 31 27 26 29 29 27 26 22 21 21 21 21 22 22 23
22 26 36 47 53 55 51 52 58 63 67 68 67 61 63 61 63 65 60 65 74 75 72 57 46 43 42 44 43 39 34 35 31 29 27 22 21 21 21 21 21 22 23
19 22 26 34 45 51 53 57 59 67 66 66 70 74 68 63 62 68 62 62 65 71 70 60 49 43 46 48 47 47 45 44 39 37 34 26 24 23 22 21 22 23 25
10 12 18 25 33 42 51 56 60 60 64 69 71 76 78 74 65 59 60 61 62 68 72 69 60 53 48 48 49 47 48 47 48 47 40 34 30 28 26 26 25 26 27
11 9 10 12 20 29 37 50 56 61 64 70 70 69 71 80 81 78 66 56 60 58 64 68 66 61 53 48 48 48 48 49 51 50 49 46 38 34 33 33 32 33 36
13 12 11 11 10 14 24 35 49 58 64 68 72 71 75 76 81 89 82 75 62 54 56 63 68 67 62 58 51 51 52 50 51 52 51 51 49 44 41 40 39 39 40
16 15 13 12 11 10 14 20 34 47 60 65 72 78 85 84 88 87 89 83 81 77 69 74 76 72 65 64 55 56 55 52 53 54 55 56 54 54 51 50 47 46 46
23 20 17 15 12 11 11 16 20 35 46 60 65 69 74 83 91 86 86 88 88 86 87 83 83 79 72 64 64 61 64 59 59 59 59 61 62 61 59 58 56 55 53
25 23 21 19 17 17 14 12 17 23 33 50 65 68 68 66 74 85 87 91 92 93 94 89 86 79 69 66 67 68 69 61 70 66 61 66 62 60 59 61 63 60 60
28 26 25 23 21 20 18 15 14 20 26 34 56 67 67 66 69 81 76 82 93 95 93 93 91 86 83 83 80 83 74 68 70 66 63 69 67 63 64 65 64 62 67
33 30 28 26 25 23 21 20 18 20 23 26 36 60 71 72 73 71 76 78 86 89 92 93 94 91 90 88 84 85 81 74 68 64 59 60 63 61 60 64 61 62 67
44 40 35 32 29 28 25 23 23 25 27 25 31 42 62 74 76 72 70 75 74 72 81 89 90 91 87 84 82 82 77 69 63 60 56 55 55 58 58 58 58 58 65
57 58 49 42 35 32 29 26 24 26 28 26 30 35 52 64 73 74 73 69 71 78 80 81 90 89 86 80 78 77 76 72 71 60 58 55 54 54 52 53 60 61 67
70 65 64 57 50 42 33 29 26 30 31 31 29 33 46 61 72 78 80 75 71 78 76 75 78 77 80 79 75 76 71 67 67 68 62 57 51 51 57 57 58 65 73
77 78 73 69 62 52 41 34 32 32 36 33 31 35 41 55 70 79 84 84 82 73 70 76 74 70 66 66 72 72 70 57 52 54 58 58 62 67 69 69 66 68 78

GFSSE_prec_cthk_123.txt.gz
RH
45 49 44 47 49 48 45 45 44 42 37 35 36 36 36 33 29 27 25 28 20 18 18 20 15 16 23 40 35 34 25 18 24 14 15 20 33 38 39 27 20 22 21
42 45 45 46 48 50 47 48 50 46 40 37 36 33 34 33 30 27 28 29 24 22 26 33 17 14 24 29 32 30 15 16 23 18 16 16 18 18 20 29 40 39 28
34 40 44 45 46 48 49 50 53 52 47 44 42 37 31 29 29 30 33 32 29 30 35 33 19 15 17 20 25 17 16 25 32 35 29 25 24 28 40 50 48 37 21
37 37 43 45 47 46 47 46 48 51 48 49 48 51 35 31 28 29 37 40 36 34 28 18 13 13 14 16 18 16 24 33 38 41 44 41 42 45 37 29 23 17 17
35 35 39 45 51 46 48 45 45 47 45 50 49 51 40 34 31 29 41 51 42 38 29 19 13 11 12 14 15 19 27 30 35 38 40 34 30 21 16 18 18 19 18
36 39 42 48 52 54 52 50 47 49 47 49 46 42 45 37 34 30 46 57 51 39 31 23 16 14 13 14 15 20 24 26 26 28 23 21 16 16 17 18 19 20 19
32 37 41 47 54 56 55 55 52 50 53 51 49 41 44 41 36 33 42 59 59 44 32 26 20 16 16 15 16 17 20 21 23 24 24 22 19 18 19 20 20 20 20
32 36 39 48 51 55 60 57 56 54 57 56 57 50 44 42 39 36 41 57 62 54 36 28 24 19 19 18 17 16 17 19 20 21 22 22 20 21 21 21 21 21 21
28 37 41 42 50 52 57 62 59 59 58 57 56 58 49 43 42 42 44 55 62 62 47 32 28 22 21 21 20 19 17 17 19 20 21 22 21 21 22 22 22 22 21
23 33 37 43 47 50 53 59 59 57 56 55 53 53 53 51 44 49 50 53 59 65 58 42 33 31 24 22 22 22 21 21 22 21 20 21 21 20 21 21 21 21 21
20 22 31 40 52 53 53 55 59 57 54 51 54 54 54 53 53 52 55 56 55 60 64 56 44 38 35 29 27 25 24 24 25 24 23 23 22 20 19 19 19 19 19
18 19 21 31 42 52 54 54 54 56 58 56 55 55 53 56 52 55 57 60 64 63 64 59 48 46 42 40 35 34 31 28 27 26 25 23 22 20 19 18 18 17 17
10 13 16 19 26 42 52 56 55 54 54 53 55 57 58 56 53 53 53 54 57 64 67 65 57 48 42 42 43 41 40 39 37 34 30 27 25 23 21 20 19 18 18
7 8 9 11 14 21 35 50 55 57 56 54 48 50 49 54 59 53 54 58 54 52 59 67 69 63 52 45 42 43 45 42 44 43 40 39 36 31 28 26 24 22 22
9 8 8 8 9 11 14 24 42 53 55 58 56 51 49 50 59 61 60 63 61 62 59 60 65 67 61 50 47 46 48 44 43 45 43 43 44 42 41 39 36 34 33
13 12 11 10 10 10 9 10 16 29 48 58 63 61 59 60 61 65 65 66 67 66 62 64 63 64 62 58 49 49 50 50 47 44 43 43 46 45 44 42 41 39 39
21 20 16 15 13 12 11 10 10 11 21 40 56 68 63 63 65 67 64 65 69 70 72 67 68 69 67 63 57 48 48 48 47 48 47 48 46 44 44 45 42 44 43
25 24 22 19 18 16 14 12 11 10 10 16 34 51 68 70 68 68 65 65 69 71 72 75 73 72 70 69 65 57 50 51 50 50 49 48 48 47 46 49 50 54 53
28 27 25 24 22 20 18 16 14 13 11 10 13 29 47 64 69 65 65 70 70 68 70 72 71 73 73 76 78 69 71 64 61 60 56 51 52 52 53 58 56 59 56
27 27 27 26 25 24 23 21 20 17 15 13 11 12 26 44 65 69 71 76 78 79 78 78 79 83 85 90 89 85 83 83 78 70 65 57 55 57 60 62 59 61 58
27 26 25 25 26 27 26 24 22 20 18 16 14 14 14 23 39 58 68 77 80 84 88 90 88 88 91 91 92 91 91 89 82 80 74 68 58 58 60 65 66 60 59
31 32 32 30 27 30 29 28 25 22 20 19 18 15 15 17 26 43 58 69 82 85 88 84 85 83 89 90 92 96 96 94 86 80 79 79 76 72 66 63 62 58 52
38 39 41 41 38 37 40 37 33 29 25 22 21 19 19 18 18 28 50 59 75 77 84 88 80 78 80 82 93 92 91 92 91 92 85 80 80 74 67 64 59 56 56
49 52 54 55 53 53 57 52 48 42 34 28 26 23 24 22 21 22 33 49 65 72 81 86 87 78 76 92 83 84 88 91 97 91 87 82 78 75 70 65 59 57 55
55 57 59 59 57 58 66 69 62 54 50 46 39 33 30 26 24 23 24 34 53 72 77 84 87 83 80 89 79 85 77 88 94 96 91 87 87 79 73 67 63 57 53
58 61 63 62 63 66 71 75 72 66 64 62 55 45 41 35 30 29 26 30 44 52 72 81 87 95 91 96 88 78 72 82 93 93 90 84 83 74 70 64 56 54 53

GFSSE_prec_cthk_126.txt.gz
RH
47 49 47 49 50 52 47 46 45 42 36 34 34 35 37 34 31 27 24 25 19 18 16 12 12 19 29 29 45 37 18 23 13 13 18 31 36 39 30 24 21 21 19
41 43 47 47 48 54 52 51 52 49 42 39 37 34 32 31 31 30 28 25 24 26 26 14 15 22 34 36 36 26 13 22 14 14 17 25 27 24 23 35 37 27 18
38 38 42 45 45 50 53 51 54 52 47 46 44 39 33 29 26 29 32 30 29 33 37 24 13 14 23 26 25 15 17 22 23 18 18 16 17 27 41 47 37 22 16
36 39 40 43 44 48 55 52 53 53 51 49 49 51 41 33 29 30 34 35 38 37 33 22 13 11 15 18 22 15 24 33 34 34 29 29 35 38 37 30 20 17 17
36 36 37 42 48 47 49 52 50 51 50 49 50 50 48 36 33 34 38 38 41 39 29 19 14 13 12 12 16 19 25 29 34 38 38 39 39 24 17 17 17 18 17
35 36 38 44 51 47 51 51 49 51 53 48 52 48 44 39 36 32 49 49 44 41 31 23 17 15 15 13 13 18 23 25 28 31 34 26 17 15 17 18 18 19 18
31 36 39 44 59 58 49 51 52 54 53 53 54 53 45 38 37 33 40 53 54 43 35 26 20 18 18 17 17 19 20 19 20 21 21 19 17 17 18 19 19 19 19
27 33 35 44 49 56 54 55 53 53 52 54 55 56 55 48 38 37 35 50 58 53 38 31 26 20 19 20 19 21 20 18 18 20 19 19 17 18 19 20 20 20 20
25 33 38 40 46 54 57 55 56 53 50 54 54 55 57 55 46 42 38 47 60 61 49 37 31 26 21 21 21 21 21 19 18 18 18 19 18 19 20 20 20 20 20
21 25 34 37 39 47 51 56 56 58 58 56 55 51 50 54 48 46 44 46 55 63 61 47 37 33 29 25 23 22 21 21 20 20 20 19 18 18 19 19 20 20 19
17 18 22 32 37 43 50 52 57 59 58 57 55 53 48 50 52 50 47 52 53 59 62 58 45 41 38 33 30 28 25 23 23 23 22 22 22 21 20 19 18 18 18
17 17 17 20 31 34 46 51 53 57 61 60 58 53 51 52 53 54 52 52 57 58 62 66 56 42 41 40 39 36 35 32 30 26 24 24 24 21 20 19 18 17 17
8 9 11 13 16 25 32 47 53 55 56 60 58 59 57 56 54 53 53 53 55 58 62 66 68 55 44 42 40 40 42 41 40 39 37 33 30 26 23 22 20 19 18
9 8 8 8 10 11 15 26 38 49 55 56 59 59 57 56 57 56 55 54 53 52 56 61 65 66 58 49 47 44 42 40 40 44 42 40 39 38 35 35 35 33 28
10 10 10 10 9 8 9 11 17 29 41 50 58 64 65 63 53 53 51 58 57 57 56 57 60 66 67 62 54 50 46 46 44 44 42 40 40 41 40 39 40 38 36
12 12 12 12 12 12 10 8 9 11 19 32 44 51 57 65 63 55 51 55 62 64 68 66 63 66 71 70 62 51 47 46 47 46 46 44 43 44 44 43 43 42 41
18 17 16 15 15 14 13 12 10 9 9 12 21 38 47 56 66 66 61 63 65 70 72 73 72 69 68 73 71 66 55 50 48 46 48 45 45 45 46 46 46 46 45
23 22 21 20 19 18 17 16 15 13 11 10 10 15 31 44 53 68 68 65 70 73 73 77 75 74 73 73 74 72 70 66 60 51 47 46 48 49 49 47 48 49 50
24 24 23 23 23 22 21 20 19 18 17 14 12 11 13 28 41 50 65 74 75 73 71 74 81 78 77 76 77 74 71 70 63 60 56 56 57 58 54 52 53 53 55
29 28 27 26 24 23 24 23 22 21 18 17 15 14 12 14 29 42 49 60 74 82 78 77 78 76 78 79 75 75 79 76 76 74 72 66 66 65 64 60 58 58 60
33 31 29 28 26 25 23 22 24 24 22 19 18 17 16 14 15 31 44 49 59 73 78 80 82 82 85 84 83 84 86 89 91 85 85 85 78 72 69 66 61 58 62
34 33 31 31 30 30 30 29 28 29 27 24 22 20 18 17 15 15 29 44 53 66 73 80 87 88 93 92 93 92 91 94 91 89 90 86 85 85 81 75 68 69 66
34 34 34 36 37 40 40 41 41 44 39 33 30 26 22 20 17 16 16 25 38 56 62 76 76 92 88 94 96 95 94 88 93 92 94 90 89 88 83 84 84 80 71
40 41 44 44 48 49 48 47 53 56 54 52 47 40 32 27 24 25 24 23 25 37 52 59 70 75 99 93 97 96 95 91 86 91 91 86 91 88 84 83 82 79 73
51 52 53 53 51 52 50 50 58 61 62 62 61 56 48 39 31 34 32 27 26 26 35 50 60 75 82 89 95 97 96 91 92 93 88 88 86 91 92 92 86 82 79
52 55 57 54 52 55 56 61 65 67 67 68 67 65 61 50 45 41 39 32 27 25 26 33 54 72 83 88 94 93 94 94 90 93 92 85 84 89 92 90 86 82 78

GFSSE_prec_cthk_129.txt.gz
RH
45 45 46 50 51 51 48 47 46 44 40 37 35 34 35 34 32 30 25 24 20 20 14 10 12 17 22 31 42 29 18 14 14 17 18 26 31 30 23 25 23 18 17
43 43 44 45 48 55 60 51 50 49 44 40 38 36 33 30 29 30 28 27 24 28 18 14 21 28 38 40 40 26 17 14 12 17 29 35 33 27 26 31 28 19 15
40 38 40 41 45 47 56 58 58 56 50 45 43 41 36 32 28 28 25 28 35 40 34 17 17 20 27 30 29 18 14 16 14 15 19 20 18 26 38 39 26 16 16
37 40 40 42 45 47 51 54 56 55 52 48 48 50 45 37 31 31 30 31 37 42 39 26 16 16 19 21 20 15 18 22 22 18 18 23 30 40 36 28 18 17 16
36 36 36 40 46 46 50 54 52 55 52 48 50 53 50 43 35 34 35 36 39 45 41 25 16 15 17 17 17 16 24 31 32 32 32 33 35 29 23 17 17 17 16
36 37 36 40 46 49 44 51 52 50 53 52 49 50 49 43 34 38 42 43 41 43 38 27 20 17 16 16 17 16 22 28 34 35 35 35 29 18 15 17 18 18 17
32 31 37 40 46 54 62 55 51 50 55 54 53 55 55 49 40 33 39 50 48 45 39 35 26 19 18 19 19 19 20 21 23 22 32 24 16 15 17 18 18 18 18
25 27 31 37 44 54 57 60 57 52 53 57 54 57 57 58 52 41 36 40 52 54 43 37 32 26 21 19 21 23 21 20 18 18 17 17 16 16 18 18 18 18 18
20 27 33 35 41 47 54 60 62 56 54 53 51 52 54 56 58 51 44 41 48 58 56 41 36 32 27 24 22 24 23 22 20 19 18 17 17 17 18 19 19 19 19
18 20 28 34 35 39 47 54 59 57 54 53 52 55 53 52 51 54 47 42 47 57 62 56 44 40 35 29 26 25 25 24 22 22 21 21 20 18 18 18 18 19 19
18 17 17 22 32 34 36 42 49 55 60 57 58 57 58 53 49 48 50 49 44 52 60 63 53 43 42 40 35 31 28 26 24 24 25 24 23 22 21 20 19 18 17
18 17 16 16 18 26 35 35 42 50 53 63 66 62 58 56 53 48 51 52 53 53 56 63 67 56 43 42 42 41 38 35 30 29 29 28 26 25 23 21 19 18 18
9 9 9 9 10 12 19 28 33 39 50 54 61 67 68 61 57 54 52 53 54 54 56 60 65 69 61 48 42 40 40 39 38 37 35 35 33 32 30 26 23 22 22
9 9 9 9 8 9 9 11 20 28 33 46 53 54 61 67 66 60 57 56 55 55 54 55 59 65 69 60 51 48 44 42 41 38 40 44 43 40 38 34 34 33 32
10 10 10 10 10 9 8 8 9 12 21 29 35 47 51 57 61 63 62 59 57 56 58 57 56 58 64 67 59 52 51 51 48 45 40 41 41 41 41 41 40 39 38
12 12 12 12 12 12 11 10 9 8 9 13 21 28 40 46 52 57 63 64 61 53 54 59 60 61 60 63 68 66 56 50 48 47 46 45 45 43 42 42 42 42 41
16 16 16 15 16 16 15 14 14 12 11 10 11 15 24 33 43 48 50 57 64 63 54 58 65 68 69 67 67 70 69 64 53 49 49 47 47 45 45 43 45 46 45
21 20 20 19 19 18 18 17 17 17 16 15 13 12 14 18 28 40 46 49 57 69 68 66 69 78 79 77 72 68 69 70 69 64 59 55 50 46 45 43 45 47 48
24 24 23 23 22 22 21 20 19 19 19 19 18 16 15 15 16 24 38 46 55 60 72 74 73 77 80 81 80 75 70 77 76 73 65 64 61 57 53 51 52 55 55
28 28 27 26 26 25 24 23 23 21 20 22 22 21 20 19 18 16 22 36 48 57 60 71 78 82 83 81 83 84 77 77 75 74 70 67 64 61 60 61 58 60 62
33 32 31 29 28 28 27 25 24 23 23 21 22 23 21 19 19 18 17 20 35 48 55 62 71 80 84 89 86 84 81 80 78 79 71 74 77 74 74 70 68 66 67
33 33 33 32 31 31 31 31 29 28 29 29 28 29 27 23 21 19 18 18 22 35 44 59 64 70 81 88 93 98 88 85 81 82 83 80 83 87 86 87 83 78 70
29 31 35 37 35 34 34 33 32 33 38 41 42 42 41 38 32 25 21 19 18 23 34 44 58 67 70 78 86 94 93 90 91 90 85 88 92 92 90 91 88 88 88
30 33 39 43 42 42 42 40 42 47 49 49 49 50 50 51 49 44 34 27 26 26 25 30 44 64 68 69 85 91 95 94 96 95 92 90 89 93 93 91 88 91 90
33 38 43 50 53 51 52 52 53 56 56 55 54 52 53 54 56 56 53 47 43 36 30 27 29 35 46 63 71 80 89 88 97 95 93 90 90 90 87 90 90 87 85
34 36 40 46 56 54 55 55 55 56 57 55 51 50 52 56 60 63 64 62 57 47 35 28 25 25 30 41 58 67 75 99 97 97 96 96 92 88 86 92 91 91 94

GFSSE_prec_cthk_132.txt.gz
RH
42 42 45 50 52 53 45 44 44 43 43 40 37 36 36 33 31 31 28 26 21 22 17 11 12 17 25 35 38 28 16 12 19 17 27 36 30 24 24 24 22 16 16
44 43 41 47 47 50 53 57 49 47 45 41 41 39 35 32 30 28 26 28 28 27 19 19 22 27 30 39 44 29 15 11 13 16 29 37 31 29 28 27 22 16 15
41 39 38 43 45 46 51 56 53 55 53 46 44 44 42 37 33 30 26 26 34 42 32 21 26 27 30 31 30 24 14 14 13 20 29 29 27 28 36 32 18 15 15
39 40 41 40 43 44 50 54 60 56 52 48 46 46 47 44 37 33 30 31 37 46 44 32 19 18 22 22 19 16 16 18 16 15 15 17 27 44 35 25 17 16 15
39 38 37 44 44 46 45 51 56 58 57 53 47 48 48 47 41 36 35 36 40 45 48 39 23 19 19 19 18 15 18 28 28 25 25 30 33 33 26 19 17 17 16
37 35 36 37 43 49 48 50 55 56 53 53 51 50 49 48 44 36 34 37 41 42 44 35 30 22 20 18 19 17 20 27 32 35 35 35 34 25 16 17 18 18 17
33 31 32 36 40 46 52 54 56 60 57 53 53 52 54 54 51 46 40 42 44 44 43 38 34 28 22 19 20 19 22 24 26 30 28 31 25 16 16 17 18 18 18
23 23 27 30 38 42 52 56 55 56 59 60 60 58 57 58 58 54 50 40 45 47 48 42 37 33 30 24 21 21 23 24 23 20 22 21 16 15 17 18 18 18 18
17 22 26 25 31 38 43 53 57 58 59 59 58 60 58 55 54 56 55 48 41 49 58 55 43 39 36 32 27 23 24 24 23 21 21 19 17 16 17 18 19 19 19
15 15 18 26 31 32 36 44 48 53 62 59 55 56 55 56 55 54 51 50 47 42 54 65 60 45 42 39 35 30 25 25 24 24 23 23 21 20 18 19 19 19 19
18 18 17 17 20 28 32 33 39 45 51 55 57 60 57 57 57 55 52 46 48 47 45 56 64 59 47 43 41 39 34 29 26 24 23 24 24 24 23 22 21 20 19
19 18 17 16 16 17 21 29 33 35 40 48 50 56 65 69 65 59 56 51 45 50 50 51 58 65 61 52 45 42 41 38 34 31 28 27 25 25 25 25 23 21 20
11 10 9 9 9 9 10 12 22 28 31 35 49 52 56 60 71 72 62 57 52 50 51 53 52 59 66 64 53 49 46 41 37 35 36 35 32 32 31 30 27 25 24
9 8 8 8 8 7 7 7 8 11 19 25 31 38 49 52 54 59 67 68 63 55 53 53 53 53 58 64 66 55 51 49 45 40 37 39 40 40 39 37 36 33 33
9 9 9 10 10 10 9 9 8 7 8 12 19 24 31 39 47 50 54 60 66 66 60 58 56 55 55 57 60 64 56 51 51 50 47 42 38 40 40 38 38 36 38
12 12 11 12 12 12 12 11 11 10 9 9 9 14 21 25 30 40 47 53 55 61 65 65 61 57 59 58 58 60 62 59 54 54 54 49 44 42 43 43 42 41 40
16 15 15 15 15 15 14 14 14 14 14 14 13 12 12 18 23 26 36 45 52 54 60 62 64 64 57 57 59 60 61 64 66 62 58 55 50 45 44 45 45 44 43
19 18 18 18 18 17 17 17 17 17 17 17 17 16 15 14 15 20 24 30 40 52 56 56 59 63 66 62 61 65 68 68 68 69 66 62 58 54 49 47 46 44 43
22 22 22 22 22 21 21 21 21 20 20 19 19 19 20 20 19 18 17 20 27 36 50 57 64 63 66 69 70 71 79 81 78 76 71 69 68 66 63 59 56 54 52
24 25 26 27 28 27 27 27 26 26 25 24 22 21 20 20 20 19 19 18 18 21 30 44 59 69 67 68 72 79 80 81 86 86 81 77 78 77 71 67 62 58 53
27 27 27 26 27 28 28 28 27 27 26 26 25 25 23 23 23 21 18 17 17 17 18 27 39 59 76 70 74 74 81 85 86 86 89 84 78 78 73 68 63 66 63
27 26 28 28 29 31 32 32 31 30 30 31 32 33 33 33 32 30 28 24 19 16 14 16 31 40 54 64 75 79 79 79 78 85 88 87 84 84 82 74 72 74 71
26 27 29 30 31 32 35 36 36 38 38 38 37 37 38 40 41 41 41 40 37 32 24 17 17 28 41 55 65 92 79 74 78 80 83 88 89 89 90 91 87 86 83
25 27 29 30 33 35 38 40 45 46 46 46 46 46 47 47 47 48 47 47 45 43 43 42 36 24 26 39 51 63 65 76 96 78 78 87 87 90 96 98 97 96 95
25 27 28 31 37 39 41 45 46 50 52 52 52 49 47 48 47 47 47 47 47 47 52 57 57 52 36 28 30 36 58 66 82 95 84 86 94 93 91 91 98 97 98
26 24 24 29 33 36 38 40 45 51 53 52 50 48 47 45 43 43 43 46 50 52 57 60 62 64 57 44 30 29 32 49 60 76 73 84 83 89 93 90 91 92 93